<?xml version="1.0" encoding="UTF-8" standalone="no" ?>
<gpx xmlns="http://www.topografix.com/GPX/1/1" xmlns:xsi="http://www.w3.org/2001/XMLSchema-instance" xsi:schemaLocation="http://www.topografix.com/GPX/1/1 http://www.topografix.com/GPX/1/1/gpx.xsd" version="1.1" creator="VisuGPX - https://www.visugpx.com">
  <metadata>
    <name>Sortie du 12 février 2011</name>
    <desc><![CDATA[Tour du lac de Meaulx et environs]]></desc>
  </metadata>
  <trk>
    <name><![CDATA[ACTIVE LOG-F-MNT]]></name>
    <trkseg>
      <trkpt lat="43.54169" lon="6.70003">
        <ele>288.776093</ele>
        <time>2011-02-12T09:09:39Z</time>
      </trkpt>
      <trkpt lat="43.54169" lon="6.70001">
        <ele>288.890015</ele>
        <time>2011-02-12T09:10:28Z</time>
      </trkpt>
      <trkpt lat="43.54165" lon="6.69997">
        <ele>287.589935</ele>
        <time>2011-02-12T09:10:34Z</time>
      </trkpt>
      <trkpt lat="43.54167" lon="6.70018">
        <ele>286.919891</ele>
        <time>2011-02-12T09:10:43Z</time>
      </trkpt>
      <trkpt lat="43.54169" lon="6.70022">
        <ele>287.447937</ele>
        <time>2011-02-12T09:10:45Z</time>
      </trkpt>
      <trkpt lat="43.54174" lon="6.70027">
        <ele>288.970215</ele>
        <time>2011-02-12T09:10:48Z</time>
      </trkpt>
      <trkpt lat="43.5418" lon="6.70031">
        <ele>290.478302</ele>
        <time>2011-02-12T09:10:52Z</time>
      </trkpt>
      <trkpt lat="43.54197" lon="6.70039">
        <ele>293.3078</ele>
        <time>2011-02-12T09:11:03Z</time>
      </trkpt>
      <trkpt lat="43.5421" lon="6.70042">
        <ele>295.680786</ele>
        <time>2011-02-12T09:11:21Z</time>
      </trkpt>
      <trkpt lat="43.5421" lon="6.70042">
        <ele>295.680786</ele>
        <time>2011-02-12T09:11:29Z</time>
      </trkpt>
      <trkpt lat="43.54212" lon="6.70037">
        <ele>296.281067</ele>
        <time>2011-02-12T09:12:29Z</time>
      </trkpt>
      <trkpt lat="43.54219" lon="6.70037">
        <ele>297.506256</ele>
        <time>2011-02-12T09:12:33Z</time>
      </trkpt>
      <trkpt lat="43.54223" lon="6.70039">
        <ele>298.119141</ele>
        <time>2011-02-12T09:12:35Z</time>
      </trkpt>
      <trkpt lat="43.54229" lon="6.70039">
        <ele>299.059448</ele>
        <time>2011-02-12T09:12:39Z</time>
      </trkpt>
      <trkpt lat="43.54234" lon="6.70042">
        <ele>299.603699</ele>
        <time>2011-02-12T09:12:41Z</time>
      </trkpt>
      <trkpt lat="43.54242" lon="6.70046">
        <ele>300.709351</ele>
        <time>2011-02-12T09:12:47Z</time>
      </trkpt>
      <trkpt lat="43.54251" lon="6.7005">
        <ele>301.837891</ele>
        <time>2011-02-12T09:12:52Z</time>
      </trkpt>
      <trkpt lat="43.54253" lon="6.7005">
        <ele>302.156525</ele>
        <time>2011-02-12T09:12:54Z</time>
      </trkpt>
      <trkpt lat="43.54257" lon="6.70052">
        <ele>302.730499</ele>
        <time>2011-02-12T09:12:57Z</time>
      </trkpt>
      <trkpt lat="43.54262" lon="6.70052">
        <ele>303.369324</ele>
        <time>2011-02-12T09:12:58Z</time>
      </trkpt>
      <trkpt lat="43.54277" lon="6.70054">
        <ele>305.549622</ele>
        <time>2011-02-12T09:13:07Z</time>
      </trkpt>
      <trkpt lat="43.54281" lon="6.70057">
        <ele>306.143036</ele>
        <time>2011-02-12T09:13:11Z</time>
      </trkpt>
      <trkpt lat="43.5429" lon="6.70059">
        <ele>307.384308</ele>
        <time>2011-02-12T09:13:17Z</time>
      </trkpt>
      <trkpt lat="43.54298" lon="6.70063">
        <ele>308.604309</ele>
        <time>2011-02-12T09:13:22Z</time>
      </trkpt>
      <trkpt lat="43.54315" lon="6.70069">
        <ele>310.452362</ele>
        <time>2011-02-12T09:13:34Z</time>
      </trkpt>
      <trkpt lat="43.5432" lon="6.70074">
        <ele>310.580933</ele>
        <time>2011-02-12T09:13:37Z</time>
      </trkpt>
      <trkpt lat="43.54322" lon="6.70076">
        <ele>310.649963</ele>
        <time>2011-02-12T09:13:39Z</time>
      </trkpt>
      <trkpt lat="43.54337" lon="6.70082">
        <ele>311.25824</ele>
        <time>2011-02-12T09:13:47Z</time>
      </trkpt>
      <trkpt lat="43.54347" lon="6.70084">
        <ele>311.729156</ele>
        <time>2011-02-12T09:13:53Z</time>
      </trkpt>
      <trkpt lat="43.54367" lon="6.70097">
        <ele>311.390472</ele>
        <time>2011-02-12T09:14:04Z</time>
      </trkpt>
      <trkpt lat="43.54365" lon="6.7011">
        <ele>311.462677</ele>
        <time>2011-02-12T09:14:08Z</time>
      </trkpt>
      <trkpt lat="43.54362" lon="6.70119">
        <ele>311.542633</ele>
        <time>2011-02-12T09:14:10Z</time>
      </trkpt>
      <trkpt lat="43.54347" lon="6.7016">
        <ele>312.084351</ele>
        <time>2011-02-12T09:14:22Z</time>
      </trkpt>
      <trkpt lat="43.54358" lon="6.70151">
        <ele>311.73053</ele>
        <time>2011-02-12T09:14:26Z</time>
      </trkpt>
      <trkpt lat="43.54401" lon="6.70082">
        <ele>309.885956</ele>
        <time>2011-02-12T09:14:41Z</time>
      </trkpt>
      <trkpt lat="43.54414" lon="6.70052">
        <ele>309.182861</ele>
        <time>2011-02-12T09:14:46Z</time>
      </trkpt>
      <trkpt lat="43.54427" lon="6.69915">
        <ele>308.25174</ele>
        <time>2011-02-12T09:15:04Z</time>
      </trkpt>
      <trkpt lat="43.54425" lon="6.69866">
        <ele>307.430634</ele>
        <time>2011-02-12T09:15:10Z</time>
      </trkpt>
      <trkpt lat="43.54414" lon="6.69829">
        <ele>307.038177</ele>
        <time>2011-02-12T09:15:15Z</time>
      </trkpt>
      <trkpt lat="43.54408" lon="6.69808">
        <ele>306.308167</ele>
        <time>2011-02-12T09:15:18Z</time>
      </trkpt>
      <trkpt lat="43.54388" lon="6.69752">
        <ele>303.17337</ele>
        <time>2011-02-12T09:15:25Z</time>
      </trkpt>
      <trkpt lat="43.54371" lon="6.69711">
        <ele>300.91626</ele>
        <time>2011-02-12T09:15:30Z</time>
      </trkpt>
      <trkpt lat="43.54365" lon="6.69692">
        <ele>299.929718</ele>
        <time>2011-02-12T09:15:32Z</time>
      </trkpt>
      <trkpt lat="43.54356" lon="6.6966">
        <ele>298.251709</ele>
        <time>2011-02-12T09:15:35Z</time>
      </trkpt>
      <trkpt lat="43.54341" lon="6.69625">
        <ele>296.765717</ele>
        <time>2011-02-12T09:15:41Z</time>
      </trkpt>
      <trkpt lat="43.54339" lon="6.69621">
        <ele>296.5354</ele>
        <time>2011-02-12T09:15:43Z</time>
      </trkpt>
      <trkpt lat="43.54337" lon="6.69615">
        <ele>296.262909</ele>
        <time>2011-02-12T09:15:49Z</time>
      </trkpt>
      <trkpt lat="43.54337" lon="6.69615">
        <ele>296.262909</ele>
        <time>2011-02-12T09:15:50Z</time>
      </trkpt>
      <trkpt lat="43.54335" lon="6.6961">
        <ele>296.001251</ele>
        <time>2011-02-12T09:15:57Z</time>
      </trkpt>
      <trkpt lat="43.54335" lon="6.6961">
        <ele>296.001251</ele>
        <time>2011-02-12T09:15:58Z</time>
      </trkpt>
      <trkpt lat="43.54328" lon="6.696">
        <ele>295.177277</ele>
        <time>2011-02-12T09:16:16Z</time>
      </trkpt>
      <trkpt lat="43.54335" lon="6.69578">
        <ele>295.463318</ele>
        <time>2011-02-12T09:16:28Z</time>
      </trkpt>
      <trkpt lat="43.54343" lon="6.69557">
        <ele>296.098694</ele>
        <time>2011-02-12T09:16:34Z</time>
      </trkpt>
      <trkpt lat="43.5435" lon="6.69537">
        <ele>296.608795</ele>
        <time>2011-02-12T09:16:40Z</time>
      </trkpt>
      <trkpt lat="43.54352" lon="6.69518">
        <ele>297.057983</ele>
        <time>2011-02-12T09:16:46Z</time>
      </trkpt>
      <trkpt lat="43.54341" lon="6.69501">
        <ele>296.30896</ele>
        <time>2011-02-12T09:16:51Z</time>
      </trkpt>
      <trkpt lat="43.54339" lon="6.69499">
        <ele>296.140869</ele>
        <time>2011-02-12T09:16:52Z</time>
      </trkpt>
      <trkpt lat="43.54335" lon="6.69488">
        <ele>296.09845</ele>
        <time>2011-02-12T09:16:55Z</time>
      </trkpt>
      <trkpt lat="43.5432" lon="6.6946">
        <ele>296.014069</ele>
        <time>2011-02-12T09:17:05Z</time>
      </trkpt>
      <trkpt lat="43.54326" lon="6.69439">
        <ele>297.988434</ele>
        <time>2011-02-12T09:17:14Z</time>
      </trkpt>
      <trkpt lat="43.54328" lon="6.69439">
        <ele>298.170135</ele>
        <time>2011-02-12T09:17:15Z</time>
      </trkpt>
      <trkpt lat="43.54343" lon="6.69436">
        <ele>299.293488</ele>
        <time>2011-02-12T09:17:23Z</time>
      </trkpt>
      <trkpt lat="43.54356" lon="6.69436">
        <ele>299.92746</ele>
        <time>2011-02-12T09:17:29Z</time>
      </trkpt>
      <trkpt lat="43.54369" lon="6.69439">
        <ele>300.495789</ele>
        <time>2011-02-12T09:17:35Z</time>
      </trkpt>
      <trkpt lat="43.54397" lon="6.69439">
        <ele>300.807007</ele>
        <time>2011-02-12T09:17:47Z</time>
      </trkpt>
      <trkpt lat="43.54457" lon="6.69441">
        <ele>297.974579</ele>
        <time>2011-02-12T09:18:05Z</time>
      </trkpt>
      <trkpt lat="43.54481" lon="6.69443">
        <ele>296.379608</ele>
        <time>2011-02-12T09:18:09Z</time>
      </trkpt>
      <trkpt lat="43.54487" lon="6.69441">
        <ele>296.0047</ele>
        <time>2011-02-12T09:18:10Z</time>
      </trkpt>
      <trkpt lat="43.54526" lon="6.69439">
        <ele>294.093048</ele>
        <time>2011-02-12T09:18:17Z</time>
      </trkpt>
      <trkpt lat="43.54534" lon="6.69443">
        <ele>293.957275</ele>
        <time>2011-02-12T09:18:19Z</time>
      </trkpt>
      <trkpt lat="43.54543" lon="6.69447">
        <ele>293.821503</ele>
        <time>2011-02-12T09:18:22Z</time>
      </trkpt>
      <trkpt lat="43.5456" lon="6.69454">
        <ele>293.552917</ele>
        <time>2011-02-12T09:18:28Z</time>
      </trkpt>
      <trkpt lat="43.54611" lon="6.69451">
        <ele>294.687286</ele>
        <time>2011-02-12T09:18:46Z</time>
      </trkpt>
      <trkpt lat="43.54614" lon="6.69434">
        <ele>294.511566</ele>
        <time>2011-02-12T09:18:51Z</time>
      </trkpt>
      <trkpt lat="43.54603" lon="6.69381">
        <ele>293.840454</ele>
        <time>2011-02-12T09:19:03Z</time>
      </trkpt>
      <trkpt lat="43.54586" lon="6.69297">
        <ele>293.320282</ele>
        <time>2011-02-12T09:19:22Z</time>
      </trkpt>
      <trkpt lat="43.54624" lon="6.69306">
        <ele>296.494415</ele>
        <time>2011-02-12T09:19:40Z</time>
      </trkpt>
      <trkpt lat="43.54631" lon="6.69306">
        <ele>297.212158</ele>
        <time>2011-02-12T09:19:43Z</time>
      </trkpt>
      <trkpt lat="43.54641" lon="6.69308">
        <ele>298.364044</ele>
        <time>2011-02-12T09:19:48Z</time>
      </trkpt>
      <trkpt lat="43.54648" lon="6.6931">
        <ele>299.028442</ele>
        <time>2011-02-12T09:19:51Z</time>
      </trkpt>
      <trkpt lat="43.54665" lon="6.69314">
        <ele>300.842255</ele>
        <time>2011-02-12T09:20:00Z</time>
      </trkpt>
      <trkpt lat="43.54684" lon="6.69318">
        <ele>302.915833</ele>
        <time>2011-02-12T09:20:11Z</time>
      </trkpt>
      <trkpt lat="43.5471" lon="6.69308">
        <ele>306.327911</ele>
        <time>2011-02-12T09:20:25Z</time>
      </trkpt>
      <trkpt lat="43.54717" lon="6.69306">
        <ele>307.072571</ele>
        <time>2011-02-12T09:20:29Z</time>
      </trkpt>
      <trkpt lat="43.54725" lon="6.69299">
        <ele>307.880432</ele>
        <time>2011-02-12T09:20:35Z</time>
      </trkpt>
      <trkpt lat="43.54736" lon="6.69297">
        <ele>309.126556</ele>
        <time>2011-02-12T09:20:41Z</time>
      </trkpt>
      <trkpt lat="43.54766" lon="6.69278">
        <ele>311.989349</ele>
        <time>2011-02-12T09:21:02Z</time>
      </trkpt>
      <trkpt lat="43.54779" lon="6.69273">
        <ele>313.584869</ele>
        <time>2011-02-12T09:21:10Z</time>
      </trkpt>
      <trkpt lat="43.54787" lon="6.69278">
        <ele>314.878601</ele>
        <time>2011-02-12T09:21:15Z</time>
      </trkpt>
      <trkpt lat="43.54794" lon="6.69284">
        <ele>315.976349</ele>
        <time>2011-02-12T09:21:20Z</time>
      </trkpt>
      <trkpt lat="43.54796" lon="6.69288">
        <ele>316.421539</ele>
        <time>2011-02-12T09:21:23Z</time>
      </trkpt>
      <trkpt lat="43.54805" lon="6.69295">
        <ele>317.945038</ele>
        <time>2011-02-12T09:21:29Z</time>
      </trkpt>
      <trkpt lat="43.54817" lon="6.69308">
        <ele>320.202576</ele>
        <time>2011-02-12T09:21:41Z</time>
      </trkpt>
      <trkpt lat="43.54824" lon="6.69314">
        <ele>321.288452</ele>
        <time>2011-02-12T09:21:46Z</time>
      </trkpt>
      <trkpt lat="43.5483" lon="6.69323">
        <ele>321.93866</ele>
        <time>2011-02-12T09:21:52Z</time>
      </trkpt>
      <trkpt lat="43.54837" lon="6.69333">
        <ele>322.194427</ele>
        <time>2011-02-12T09:21:58Z</time>
      </trkpt>
      <trkpt lat="43.54843" lon="6.69348">
        <ele>322.296539</ele>
        <time>2011-02-12T09:22:05Z</time>
      </trkpt>
      <trkpt lat="43.54862" lon="6.69381">
        <ele>324.135986</ele>
        <time>2011-02-12T09:22:20Z</time>
      </trkpt>
      <trkpt lat="43.54869" lon="6.69387">
        <ele>325.096802</ele>
        <time>2011-02-12T09:22:24Z</time>
      </trkpt>
      <trkpt lat="43.54875" lon="6.69398">
        <ele>325.808838</ele>
        <time>2011-02-12T09:22:29Z</time>
      </trkpt>
      <trkpt lat="43.54916" lon="6.69441">
        <ele>327.638885</ele>
        <time>2011-02-12T09:22:53Z</time>
      </trkpt>
      <trkpt lat="43.54923" lon="6.69443">
        <ele>327.267059</ele>
        <time>2011-02-12T09:22:56Z</time>
      </trkpt>
      <trkpt lat="43.54931" lon="6.6943">
        <ele>325.15863</ele>
        <time>2011-02-12T09:23:04Z</time>
      </trkpt>
      <trkpt lat="43.54929" lon="6.69421">
        <ele>325.749878</ele>
        <time>2011-02-12T09:23:07Z</time>
      </trkpt>
      <trkpt lat="43.54929" lon="6.69417">
        <ele>325.769867</ele>
        <time>2011-02-12T09:23:09Z</time>
      </trkpt>
      <trkpt lat="43.54929" lon="6.69409">
        <ele>325.813049</ele>
        <time>2011-02-12T09:23:12Z</time>
      </trkpt>
      <trkpt lat="43.54923" lon="6.69301">
        <ele>326.61969</ele>
        <time>2011-02-12T09:23:47Z</time>
      </trkpt>
      <trkpt lat="43.54923" lon="6.69254">
        <ele>326.771942</ele>
        <time>2011-02-12T09:23:59Z</time>
      </trkpt>
      <trkpt lat="43.5491" lon="6.69125">
        <ele>319.529327</ele>
        <time>2011-02-12T09:24:04Z</time>
      </trkpt>
      <trkpt lat="43.5491" lon="6.69046">
        <ele>316.937256</ele>
        <time>2011-02-12T09:24:10Z</time>
      </trkpt>
      <trkpt lat="43.54912" lon="6.69031">
        <ele>316.022095</ele>
        <time>2011-02-12T09:24:11Z</time>
      </trkpt>
      <trkpt lat="43.54914" lon="6.68988">
        <ele>313.927124</ele>
        <time>2011-02-12T09:24:14Z</time>
      </trkpt>
      <trkpt lat="43.54925" lon="6.68851">
        <ele>313.737091</ele>
        <time>2011-02-12T09:24:26Z</time>
      </trkpt>
      <trkpt lat="43.54942" lon="6.68743">
        <ele>311.495667</ele>
        <time>2011-02-12T09:24:44Z</time>
      </trkpt>
      <trkpt lat="43.54944" lon="6.68724">
        <ele>310.349701</ele>
        <time>2011-02-12T09:24:47Z</time>
      </trkpt>
      <trkpt lat="43.54946" lon="6.68698">
        <ele>308.806396</ele>
        <time>2011-02-12T09:24:51Z</time>
      </trkpt>
      <trkpt lat="43.54948" lon="6.68651">
        <ele>305.77124</ele>
        <time>2011-02-12T09:24:58Z</time>
      </trkpt>
      <trkpt lat="43.5491" lon="6.68544">
        <ele>306.294647</ele>
        <time>2011-02-12T09:25:04Z</time>
      </trkpt>
      <trkpt lat="43.54895" lon="6.68479">
        <ele>304.183441</ele>
        <time>2011-02-12T09:25:09Z</time>
      </trkpt>
      <trkpt lat="43.54895" lon="6.68428">
        <ele>301.492371</ele>
        <time>2011-02-12T09:25:13Z</time>
      </trkpt>
      <trkpt lat="43.54895" lon="6.68415">
        <ele>300.914246</ele>
        <time>2011-02-12T09:25:14Z</time>
      </trkpt>
      <trkpt lat="43.5489" lon="6.68325">
        <ele>299.411621</ele>
        <time>2011-02-12T09:25:21Z</time>
      </trkpt>
      <trkpt lat="43.54888" lon="6.68299">
        <ele>299.06665</ele>
        <time>2011-02-12T09:25:23Z</time>
      </trkpt>
      <trkpt lat="43.54888" lon="6.68258">
        <ele>297.851715</ele>
        <time>2011-02-12T09:25:26Z</time>
      </trkpt>
      <trkpt lat="43.54895" lon="6.68149">
        <ele>292.91687</ele>
        <time>2011-02-12T09:25:35Z</time>
      </trkpt>
      <trkpt lat="43.54903" lon="6.6801">
        <ele>292.227203</ele>
        <time>2011-02-12T09:25:47Z</time>
      </trkpt>
      <trkpt lat="43.54886" lon="6.67988">
        <ele>292.331726</ele>
        <time>2011-02-12T09:25:51Z</time>
      </trkpt>
      <trkpt lat="43.54875" lon="6.67979">
        <ele>291.640717</ele>
        <time>2011-02-12T09:25:53Z</time>
      </trkpt>
      <trkpt lat="43.54854" lon="6.67947">
        <ele>290.093414</ele>
        <time>2011-02-12T09:25:57Z</time>
      </trkpt>
      <trkpt lat="43.54847" lon="6.67941">
        <ele>289.583099</ele>
        <time>2011-02-12T09:25:58Z</time>
      </trkpt>
      <trkpt lat="43.54824" lon="6.67922">
        <ele>287.649933</ele>
        <time>2011-02-12T09:26:01Z</time>
      </trkpt>
      <trkpt lat="43.54805" lon="6.67904">
        <ele>285.771973</ele>
        <time>2011-02-12T09:26:04Z</time>
      </trkpt>
      <trkpt lat="43.54798" lon="6.679">
        <ele>285.332458</ele>
        <time>2011-02-12T09:26:05Z</time>
      </trkpt>
      <trkpt lat="43.54777" lon="6.67881">
        <ele>283.731628</ele>
        <time>2011-02-12T09:26:08Z</time>
      </trkpt>
      <trkpt lat="43.54759" lon="6.67829">
        <ele>279.183716</ele>
        <time>2011-02-12T09:26:13Z</time>
      </trkpt>
      <trkpt lat="43.54744" lon="6.67769">
        <ele>275.864197</ele>
        <time>2011-02-12T09:26:18Z</time>
      </trkpt>
      <trkpt lat="43.54732" lon="6.67709">
        <ele>272.658875</ele>
        <time>2011-02-12T09:26:24Z</time>
      </trkpt>
      <trkpt lat="43.54736" lon="6.67696">
        <ele>272.15686</ele>
        <time>2011-02-12T09:26:27Z</time>
      </trkpt>
      <trkpt lat="43.54809" lon="6.67623">
        <ele>270.794434</ele>
        <time>2011-02-12T09:26:44Z</time>
      </trkpt>
      <trkpt lat="43.5482" lon="6.67613">
        <ele>270.585724</ele>
        <time>2011-02-12T09:26:46Z</time>
      </trkpt>
      <trkpt lat="43.54832" lon="6.67578">
        <ele>269.284668</ele>
        <time>2011-02-12T09:26:50Z</time>
      </trkpt>
      <trkpt lat="43.54854" lon="6.67499">
        <ele>269.303284</ele>
        <time>2011-02-12T09:27:00Z</time>
      </trkpt>
      <trkpt lat="43.54869" lon="6.67428">
        <ele>270.339874</ele>
        <time>2011-02-12T09:27:16Z</time>
      </trkpt>
      <trkpt lat="43.54882" lon="6.67374">
        <ele>270.503815</ele>
        <time>2011-02-12T09:27:30Z</time>
      </trkpt>
      <trkpt lat="43.54899" lon="6.67289">
        <ele>271.198792</ele>
        <time>2011-02-12T09:27:49Z</time>
      </trkpt>
      <trkpt lat="43.54899" lon="6.67282">
        <ele>271.211273</ele>
        <time>2011-02-12T09:27:50Z</time>
      </trkpt>
      <trkpt lat="43.5491" lon="6.67198">
        <ele>270.122803</ele>
        <time>2011-02-12T09:28:02Z</time>
      </trkpt>
      <trkpt lat="43.5492" lon="6.6713">
        <ele>268.963348</ele>
        <time>2011-02-12T09:28:10Z</time>
      </trkpt>
      <trkpt lat="43.54884" lon="6.67061">
        <ele>268.545807</ele>
        <time>2011-02-12T09:28:21Z</time>
      </trkpt>
      <trkpt lat="43.5486" lon="6.67037">
        <ele>270.944397</ele>
        <time>2011-02-12T09:28:29Z</time>
      </trkpt>
      <trkpt lat="43.54796" lon="6.67016">
        <ele>271.842529</ele>
        <time>2011-02-12T09:28:49Z</time>
      </trkpt>
      <trkpt lat="43.54721" lon="6.66967">
        <ele>269.970734</ele>
        <time>2011-02-12T09:29:04Z</time>
      </trkpt>
      <trkpt lat="43.5468" lon="6.66928">
        <ele>269.87616</ele>
        <time>2011-02-12T09:29:13Z</time>
      </trkpt>
      <trkpt lat="43.54674" lon="6.66924">
        <ele>270.075317</ele>
        <time>2011-02-12T09:29:16Z</time>
      </trkpt>
      <trkpt lat="43.54669" lon="6.66924">
        <ele>270.213776</ele>
        <time>2011-02-12T09:29:17Z</time>
      </trkpt>
      <trkpt lat="43.54656" lon="6.66915">
        <ele>270.484833</ele>
        <time>2011-02-12T09:29:22Z</time>
      </trkpt>
      <trkpt lat="43.54611" lon="6.66862">
        <ele>270.529541</ele>
        <time>2011-02-12T09:29:43Z</time>
      </trkpt>
      <trkpt lat="43.54528" lon="6.66804">
        <ele>267.832611</ele>
        <time>2011-02-12T09:30:01Z</time>
      </trkpt>
      <trkpt lat="43.54513" lon="6.66795">
        <ele>265.423279</ele>
        <time>2011-02-12T09:30:04Z</time>
      </trkpt>
      <trkpt lat="43.54496" lon="6.66795">
        <ele>263.197876</ele>
        <time>2011-02-12T09:30:06Z</time>
      </trkpt>
      <trkpt lat="43.54472" lon="6.66795">
        <ele>260.349762</ele>
        <time>2011-02-12T09:30:09Z</time>
      </trkpt>
      <trkpt lat="43.54465" lon="6.66795">
        <ele>259.615265</ele>
        <time>2011-02-12T09:30:10Z</time>
      </trkpt>
      <trkpt lat="43.54442" lon="6.66795">
        <ele>256.941498</ele>
        <time>2011-02-12T09:30:13Z</time>
      </trkpt>
      <trkpt lat="43.54416" lon="6.66793">
        <ele>254.053467</ele>
        <time>2011-02-12T09:30:16Z</time>
      </trkpt>
      <trkpt lat="43.54397" lon="6.66793">
        <ele>252.00264</ele>
        <time>2011-02-12T09:30:18Z</time>
      </trkpt>
      <trkpt lat="43.5438" lon="6.66793">
        <ele>250.364746</ele>
        <time>2011-02-12T09:30:20Z</time>
      </trkpt>
      <trkpt lat="43.54373" lon="6.66791">
        <ele>249.578705</ele>
        <time>2011-02-12T09:30:21Z</time>
      </trkpt>
      <trkpt lat="43.54352" lon="6.66789">
        <ele>247.351379</ele>
        <time>2011-02-12T09:30:24Z</time>
      </trkpt>
      <trkpt lat="43.54343" lon="6.66786">
        <ele>245.868149</ele>
        <time>2011-02-12T09:30:26Z</time>
      </trkpt>
      <trkpt lat="43.54339" lon="6.66784">
        <ele>245.027649</ele>
        <time>2011-02-12T09:30:27Z</time>
      </trkpt>
      <trkpt lat="43.54337" lon="6.66769">
        <ele>243.40535</ele>
        <time>2011-02-12T09:30:30Z</time>
      </trkpt>
      <trkpt lat="43.54339" lon="6.66763">
        <ele>243.123962</ele>
        <time>2011-02-12T09:30:31Z</time>
      </trkpt>
      <trkpt lat="43.5439" lon="6.66649">
        <ele>238.045135</ele>
        <time>2011-02-12T09:30:52Z</time>
      </trkpt>
      <trkpt lat="43.5439" lon="6.66638">
        <ele>237.374451</ele>
        <time>2011-02-12T09:30:53Z</time>
      </trkpt>
      <trkpt lat="43.54393" lon="6.66621">
        <ele>236.429657</ele>
        <time>2011-02-12T09:30:55Z</time>
      </trkpt>
      <trkpt lat="43.54388" lon="6.666">
        <ele>235.299072</ele>
        <time>2011-02-12T09:30:57Z</time>
      </trkpt>
      <trkpt lat="43.5438" lon="6.66553">
        <ele>233.211563</ele>
        <time>2011-02-12T09:31:02Z</time>
      </trkpt>
      <trkpt lat="43.54375" lon="6.66505">
        <ele>231.75441</ele>
        <time>2011-02-12T09:31:06Z</time>
      </trkpt>
      <trkpt lat="43.54382" lon="6.66402">
        <ele>231.457443</ele>
        <time>2011-02-12T09:31:15Z</time>
      </trkpt>
      <trkpt lat="43.54388" lon="6.66387">
        <ele>232.088409</ele>
        <time>2011-02-12T09:31:18Z</time>
      </trkpt>
      <trkpt lat="43.54388" lon="6.66383">
        <ele>232.223312</ele>
        <time>2011-02-12T09:31:19Z</time>
      </trkpt>
      <trkpt lat="43.54403" lon="6.66297">
        <ele>236.146301</ele>
        <time>2011-02-12T09:31:38Z</time>
      </trkpt>
      <trkpt lat="43.54423" lon="6.66168">
        <ele>241.37326</ele>
        <time>2011-02-12T09:32:10Z</time>
      </trkpt>
      <trkpt lat="43.54423" lon="6.66166">
        <ele>241.41011</ele>
        <time>2011-02-12T09:32:11Z</time>
      </trkpt>
      <trkpt lat="43.54429" lon="6.6613">
        <ele>242.048615</ele>
        <time>2011-02-12T09:32:20Z</time>
      </trkpt>
      <trkpt lat="43.54442" lon="6.66119">
        <ele>242.426941</ele>
        <time>2011-02-12T09:32:25Z</time>
      </trkpt>
      <trkpt lat="43.54491" lon="6.66089">
        <ele>243.518784</ele>
        <time>2011-02-12T09:32:41Z</time>
      </trkpt>
      <trkpt lat="43.54568" lon="6.66012">
        <ele>247.084717</ele>
        <time>2011-02-12T09:33:10Z</time>
      </trkpt>
      <trkpt lat="43.54605" lon="6.65973">
        <ele>248.334412</ele>
        <time>2011-02-12T09:33:25Z</time>
      </trkpt>
      <trkpt lat="43.54609" lon="6.65967">
        <ele>248.641739</ele>
        <time>2011-02-12T09:33:27Z</time>
      </trkpt>
      <trkpt lat="43.54618" lon="6.6596">
        <ele>248.802551</ele>
        <time>2011-02-12T09:33:30Z</time>
      </trkpt>
      <trkpt lat="43.54626" lon="6.6595">
        <ele>248.992264</ele>
        <time>2011-02-12T09:33:34Z</time>
      </trkpt>
      <trkpt lat="43.54635" lon="6.65945">
        <ele>248.965088</ele>
        <time>2011-02-12T09:33:37Z</time>
      </trkpt>
      <trkpt lat="43.54714" lon="6.6592">
        <ele>249.904999</ele>
        <time>2011-02-12T09:34:06Z</time>
      </trkpt>
      <trkpt lat="43.54744" lon="6.65907">
        <ele>250.951538</ele>
        <time>2011-02-12T09:34:17Z</time>
      </trkpt>
      <trkpt lat="43.54744" lon="6.65905">
        <ele>250.953308</ele>
        <time>2011-02-12T09:34:18Z</time>
      </trkpt>
      <trkpt lat="43.54744" lon="6.65898">
        <ele>250.96019</ele>
        <time>2011-02-12T09:34:20Z</time>
      </trkpt>
      <trkpt lat="43.54744" lon="6.6589">
        <ele>250.973083</ele>
        <time>2011-02-12T09:34:24Z</time>
      </trkpt>
      <trkpt lat="43.54742" lon="6.65881">
        <ele>250.983215</ele>
        <time>2011-02-12T09:34:27Z</time>
      </trkpt>
      <trkpt lat="43.54742" lon="6.65872">
        <ele>251.017761</ele>
        <time>2011-02-12T09:34:30Z</time>
      </trkpt>
      <trkpt lat="43.54736" lon="6.65829">
        <ele>251.898315</ele>
        <time>2011-02-12T09:34:46Z</time>
      </trkpt>
      <trkpt lat="43.54734" lon="6.65823">
        <ele>252.204971</ele>
        <time>2011-02-12T09:34:48Z</time>
      </trkpt>
      <trkpt lat="43.54734" lon="6.65776">
        <ele>254.47728</ele>
        <time>2011-02-12T09:35:04Z</time>
      </trkpt>
      <trkpt lat="43.54736" lon="6.65761">
        <ele>255.794067</ele>
        <time>2011-02-12T09:35:10Z</time>
      </trkpt>
      <trkpt lat="43.54736" lon="6.65746">
        <ele>257.17923</ele>
        <time>2011-02-12T09:35:16Z</time>
      </trkpt>
      <trkpt lat="43.54738" lon="6.65731">
        <ele>258.517914</ele>
        <time>2011-02-12T09:35:23Z</time>
      </trkpt>
      <trkpt lat="43.54736" lon="6.6572">
        <ele>259.567474</ele>
        <time>2011-02-12T09:35:28Z</time>
      </trkpt>
      <trkpt lat="43.54732" lon="6.65718">
        <ele>259.87558</ele>
        <time>2011-02-12T09:35:31Z</time>
      </trkpt>
      <trkpt lat="43.54725" lon="6.65714">
        <ele>260.487</ele>
        <time>2011-02-12T09:35:34Z</time>
      </trkpt>
      <trkpt lat="43.54719" lon="6.65711">
        <ele>260.868683</ele>
        <time>2011-02-12T09:35:37Z</time>
      </trkpt>
      <trkpt lat="43.54712" lon="6.65709">
        <ele>261.2659</ele>
        <time>2011-02-12T09:35:41Z</time>
      </trkpt>
      <trkpt lat="43.54702" lon="6.65707">
        <ele>261.370544</ele>
        <time>2011-02-12T09:35:46Z</time>
      </trkpt>
      <trkpt lat="43.54693" lon="6.65699">
        <ele>262.284302</ele>
        <time>2011-02-12T09:35:52Z</time>
      </trkpt>
      <trkpt lat="43.54699" lon="6.65692">
        <ele>263.300323</ele>
        <time>2011-02-12T09:35:57Z</time>
      </trkpt>
      <trkpt lat="43.54702" lon="6.6569">
        <ele>263.632172</ele>
        <time>2011-02-12T09:35:58Z</time>
      </trkpt>
      <trkpt lat="43.54712" lon="6.65686">
        <ele>264.316681</ele>
        <time>2011-02-12T09:36:05Z</time>
      </trkpt>
      <trkpt lat="43.54729" lon="6.65677">
        <ele>264.678101</ele>
        <time>2011-02-12T09:36:16Z</time>
      </trkpt>
      <trkpt lat="43.54738" lon="6.65671">
        <ele>265.010193</ele>
        <time>2011-02-12T09:36:22Z</time>
      </trkpt>
      <trkpt lat="43.54744" lon="6.65671">
        <ele>264.6828</ele>
        <time>2011-02-12T09:36:25Z</time>
      </trkpt>
      <trkpt lat="43.54749" lon="6.65671">
        <ele>264.462036</ele>
        <time>2011-02-12T09:36:28Z</time>
      </trkpt>
      <trkpt lat="43.54753" lon="6.65664">
        <ele>264.894501</ele>
        <time>2011-02-12T09:36:31Z</time>
      </trkpt>
      <trkpt lat="43.54759" lon="6.6566">
        <ele>265.034332</ele>
        <time>2011-02-12T09:36:34Z</time>
      </trkpt>
      <trkpt lat="43.54768" lon="6.65651">
        <ele>265.671448</ele>
        <time>2011-02-12T09:36:40Z</time>
      </trkpt>
      <trkpt lat="43.54787" lon="6.65626">
        <ele>267.579865</ele>
        <time>2011-02-12T09:36:53Z</time>
      </trkpt>
      <trkpt lat="43.548" lon="6.65613">
        <ele>268.221405</ele>
        <time>2011-02-12T09:37:01Z</time>
      </trkpt>
      <trkpt lat="43.54813" lon="6.65602">
        <ele>268.967682</ele>
        <time>2011-02-12T09:37:10Z</time>
      </trkpt>
      <trkpt lat="43.5483" lon="6.65596">
        <ele>269.38504</ele>
        <time>2011-02-12T09:37:19Z</time>
      </trkpt>
      <trkpt lat="43.54835" lon="6.65591">
        <ele>269.751831</ele>
        <time>2011-02-12T09:37:22Z</time>
      </trkpt>
      <trkpt lat="43.54837" lon="6.65589">
        <ele>269.930115</ele>
        <time>2011-02-12T09:37:23Z</time>
      </trkpt>
      <trkpt lat="43.54843" lon="6.65581">
        <ele>270.660248</ele>
        <time>2011-02-12T09:37:28Z</time>
      </trkpt>
      <trkpt lat="43.54873" lon="6.65523">
        <ele>275.242615</ele>
        <time>2011-02-12T09:37:52Z</time>
      </trkpt>
      <trkpt lat="43.54875" lon="6.6551">
        <ele>276.638641</ele>
        <time>2011-02-12T09:37:58Z</time>
      </trkpt>
      <trkpt lat="43.54882" lon="6.65497">
        <ele>277.970459</ele>
        <time>2011-02-12T09:38:05Z</time>
      </trkpt>
      <trkpt lat="43.5489" lon="6.65488">
        <ele>278.857147</ele>
        <time>2011-02-12T09:38:10Z</time>
      </trkpt>
      <trkpt lat="43.54895" lon="6.65478">
        <ele>280.087402</ele>
        <time>2011-02-12T09:38:16Z</time>
      </trkpt>
      <trkpt lat="43.54903" lon="6.65471">
        <ele>280.529266</ele>
        <time>2011-02-12T09:38:22Z</time>
      </trkpt>
      <trkpt lat="43.54912" lon="6.65462">
        <ele>281.033936</ele>
        <time>2011-02-12T09:38:29Z</time>
      </trkpt>
      <trkpt lat="43.5492" lon="6.65454">
        <ele>281.429352</ele>
        <time>2011-02-12T09:38:36Z</time>
      </trkpt>
      <trkpt lat="43.54925" lon="6.6545">
        <ele>281.58606</ele>
        <time>2011-02-12T09:38:39Z</time>
      </trkpt>
      <trkpt lat="43.54933" lon="6.65435">
        <ele>282.41507</ele>
        <time>2011-02-12T09:38:46Z</time>
      </trkpt>
      <trkpt lat="43.54942" lon="6.65422">
        <ele>283.163361</ele>
        <time>2011-02-12T09:38:53Z</time>
      </trkpt>
      <trkpt lat="43.54965" lon="6.65383">
        <ele>287.298676</ele>
        <time>2011-02-12T09:39:13Z</time>
      </trkpt>
      <trkpt lat="43.54985" lon="6.65359">
        <ele>289.714233</ele>
        <time>2011-02-12T09:39:26Z</time>
      </trkpt>
      <trkpt lat="43.54989" lon="6.65355">
        <ele>290.109253</ele>
        <time>2011-02-12T09:39:28Z</time>
      </trkpt>
      <trkpt lat="43.55021" lon="6.65329">
        <ele>291.804077</ele>
        <time>2011-02-12T09:39:46Z</time>
      </trkpt>
      <trkpt lat="43.55026" lon="6.65321">
        <ele>291.735168</ele>
        <time>2011-02-12T09:39:49Z</time>
      </trkpt>
      <trkpt lat="43.5506" lon="6.65224">
        <ele>288.284271</ele>
        <time>2011-02-12T09:40:10Z</time>
      </trkpt>
      <trkpt lat="43.55071" lon="6.65194">
        <ele>288.650024</ele>
        <time>2011-02-12T09:40:16Z</time>
      </trkpt>
      <trkpt lat="43.55083" lon="6.65175">
        <ele>286.840179</ele>
        <time>2011-02-12T09:40:22Z</time>
      </trkpt>
      <trkpt lat="43.55092" lon="6.65134">
        <ele>288.724213</ele>
        <time>2011-02-12T09:40:34Z</time>
      </trkpt>
      <trkpt lat="43.55114" lon="6.65104">
        <ele>287.171753</ele>
        <time>2011-02-12T09:40:46Z</time>
      </trkpt>
      <trkpt lat="43.55135" lon="6.65025">
        <ele>290.562164</ele>
        <time>2011-02-12T09:41:10Z</time>
      </trkpt>
      <trkpt lat="43.55144" lon="6.65003">
        <ele>291.390961</ele>
        <time>2011-02-12T09:41:17Z</time>
      </trkpt>
      <trkpt lat="43.55161" lon="6.64975">
        <ele>293.202332</ele>
        <time>2011-02-12T09:41:28Z</time>
      </trkpt>
      <trkpt lat="43.55167" lon="6.64973">
        <ele>293.399475</ele>
        <time>2011-02-12T09:41:31Z</time>
      </trkpt>
      <trkpt lat="43.55174" lon="6.64969">
        <ele>293.839264</ele>
        <time>2011-02-12T09:41:35Z</time>
      </trkpt>
      <trkpt lat="43.55182" lon="6.64963">
        <ele>294.600952</ele>
        <time>2011-02-12T09:41:41Z</time>
      </trkpt>
      <trkpt lat="43.55193" lon="6.64954">
        <ele>296.063141</ele>
        <time>2011-02-12T09:41:46Z</time>
      </trkpt>
      <trkpt lat="43.55201" lon="6.64956">
        <ele>296.802246</ele>
        <time>2011-02-12T09:41:49Z</time>
      </trkpt>
      <trkpt lat="43.55208" lon="6.64958">
        <ele>297.259613</ele>
        <time>2011-02-12T09:41:52Z</time>
      </trkpt>
      <trkpt lat="43.55214" lon="6.64963">
        <ele>297.375122</ele>
        <time>2011-02-12T09:41:55Z</time>
      </trkpt>
      <trkpt lat="43.55219" lon="6.64967">
        <ele>297.195313</ele>
        <time>2011-02-12T09:41:57Z</time>
      </trkpt>
      <trkpt lat="43.55249" lon="6.6498">
        <ele>297.41391</ele>
        <time>2011-02-12T09:42:09Z</time>
      </trkpt>
      <trkpt lat="43.55262" lon="6.64975">
        <ele>298.914124</ele>
        <time>2011-02-12T09:42:14Z</time>
      </trkpt>
      <trkpt lat="43.55292" lon="6.64967">
        <ele>301.380829</ele>
        <time>2011-02-12T09:42:24Z</time>
      </trkpt>
      <trkpt lat="43.553" lon="6.64969">
        <ele>301.048553</ele>
        <time>2011-02-12T09:42:27Z</time>
      </trkpt>
      <trkpt lat="43.55307" lon="6.64971">
        <ele>300.806427</ele>
        <time>2011-02-12T09:42:29Z</time>
      </trkpt>
      <trkpt lat="43.55313" lon="6.6498">
        <ele>300.201263</ele>
        <time>2011-02-12T09:42:33Z</time>
      </trkpt>
      <trkpt lat="43.55317" lon="6.64984">
        <ele>300.06839</ele>
        <time>2011-02-12T09:42:35Z</time>
      </trkpt>
      <trkpt lat="43.55324" lon="6.64999">
        <ele>299.852264</ele>
        <time>2011-02-12T09:42:40Z</time>
      </trkpt>
      <trkpt lat="43.55326" lon="6.65005">
        <ele>299.863007</ele>
        <time>2011-02-12T09:42:43Z</time>
      </trkpt>
      <trkpt lat="43.55326" lon="6.65008">
        <ele>299.80127</ele>
        <time>2011-02-12T09:42:44Z</time>
      </trkpt>
      <trkpt lat="43.55332" lon="6.6502">
        <ele>300.018707</ele>
        <time>2011-02-12T09:42:49Z</time>
      </trkpt>
      <trkpt lat="43.55341" lon="6.65042">
        <ele>300.306824</ele>
        <time>2011-02-12T09:42:58Z</time>
      </trkpt>
      <trkpt lat="43.55352" lon="6.65055">
        <ele>301.119568</ele>
        <time>2011-02-12T09:43:05Z</time>
      </trkpt>
      <trkpt lat="43.55362" lon="6.65057">
        <ele>302.171509</ele>
        <time>2011-02-12T09:43:10Z</time>
      </trkpt>
      <trkpt lat="43.55373" lon="6.65051">
        <ele>302.342773</ele>
        <time>2011-02-12T09:43:16Z</time>
      </trkpt>
      <trkpt lat="43.55401" lon="6.65008">
        <ele>303.474579</ele>
        <time>2011-02-12T09:43:35Z</time>
      </trkpt>
      <trkpt lat="43.55407" lon="6.64997">
        <ele>304.113495</ele>
        <time>2011-02-12T09:43:40Z</time>
      </trkpt>
      <trkpt lat="43.55427" lon="6.64973">
        <ele>305.140594</ele>
        <time>2011-02-12T09:43:53Z</time>
      </trkpt>
      <trkpt lat="43.55435" lon="6.64963">
        <ele>305.82605</ele>
        <time>2011-02-12T09:43:59Z</time>
      </trkpt>
      <trkpt lat="43.55476" lon="6.64909">
        <ele>313.215881</ele>
        <time>2011-02-12T09:44:29Z</time>
      </trkpt>
      <trkpt lat="43.55521" lon="6.64845">
        <ele>317.750214</ele>
        <time>2011-02-12T09:45:00Z</time>
      </trkpt>
      <trkpt lat="43.55528" lon="6.64836">
        <ele>318.078186</ele>
        <time>2011-02-12T09:45:04Z</time>
      </trkpt>
      <trkpt lat="43.55536" lon="6.64834">
        <ele>318.196075</ele>
        <time>2011-02-12T09:45:08Z</time>
      </trkpt>
      <trkpt lat="43.55541" lon="6.64834">
        <ele>318.230682</ele>
        <time>2011-02-12T09:45:10Z</time>
      </trkpt>
      <trkpt lat="43.5556" lon="6.64842">
        <ele>318.688507</ele>
        <time>2011-02-12T09:45:22Z</time>
      </trkpt>
      <trkpt lat="43.55564" lon="6.64851">
        <ele>319.201843</ele>
        <time>2011-02-12T09:45:27Z</time>
      </trkpt>
      <trkpt lat="43.55568" lon="6.64862">
        <ele>319.629242</ele>
        <time>2011-02-12T09:45:32Z</time>
      </trkpt>
      <trkpt lat="43.55577" lon="6.6487">
        <ele>320.068298</ele>
        <time>2011-02-12T09:45:37Z</time>
      </trkpt>
      <trkpt lat="43.55581" lon="6.64872">
        <ele>320.312439</ele>
        <time>2011-02-12T09:45:40Z</time>
      </trkpt>
      <trkpt lat="43.55583" lon="6.64872">
        <ele>320.430389</ele>
        <time>2011-02-12T09:45:41Z</time>
      </trkpt>
      <trkpt lat="43.55588" lon="6.64875">
        <ele>320.688232</ele>
        <time>2011-02-12T09:45:44Z</time>
      </trkpt>
      <trkpt lat="43.5559" lon="6.64875">
        <ele>320.807983</ele>
        <time>2011-02-12T09:45:46Z</time>
      </trkpt>
      <trkpt lat="43.55598" lon="6.64877">
        <ele>321.247101</ele>
        <time>2011-02-12T09:45:51Z</time>
      </trkpt>
      <trkpt lat="43.55652" lon="6.6487">
        <ele>313.932556</ele>
        <time>2011-02-12T09:46:23Z</time>
      </trkpt>
      <trkpt lat="43.55661" lon="6.64993">
        <ele>319.329895</ele>
        <time>2011-02-12T09:46:36Z</time>
      </trkpt>
      <trkpt lat="43.55678" lon="6.65001">
        <ele>317.765503</ele>
        <time>2011-02-12T09:46:37Z</time>
      </trkpt>
      <trkpt lat="43.55661" lon="6.64982">
        <ele>319.500549</ele>
        <time>2011-02-12T09:46:40Z</time>
      </trkpt>
      <trkpt lat="43.5565" lon="6.65014">
        <ele>319.469025</ele>
        <time>2011-02-12T09:46:45Z</time>
      </trkpt>
      <trkpt lat="43.55648" lon="6.65031">
        <ele>319.178802</ele>
        <time>2011-02-12T09:46:47Z</time>
      </trkpt>
      <trkpt lat="43.5565" lon="6.65057">
        <ele>318.289398</ele>
        <time>2011-02-12T09:46:51Z</time>
      </trkpt>
      <trkpt lat="43.55637" lon="6.65102">
        <ele>319.473145</ele>
        <time>2011-02-12T09:47:02Z</time>
      </trkpt>
      <trkpt lat="43.55635" lon="6.65113">
        <ele>319.311493</ele>
        <time>2011-02-12T09:47:04Z</time>
      </trkpt>
      <trkpt lat="43.55635" lon="6.65141">
        <ele>316.064209</ele>
        <time>2011-02-12T09:47:09Z</time>
      </trkpt>
      <trkpt lat="43.55633" lon="6.65145">
        <ele>315.824249</ele>
        <time>2011-02-12T09:47:10Z</time>
      </trkpt>
      <trkpt lat="43.55631" lon="6.65149">
        <ele>315.169586</ele>
        <time>2011-02-12T09:47:11Z</time>
      </trkpt>
      <trkpt lat="43.55628" lon="6.65158">
        <ele>313.903381</ele>
        <time>2011-02-12T09:47:13Z</time>
      </trkpt>
      <trkpt lat="43.55639" lon="6.6519">
        <ele>310.863556</ele>
        <time>2011-02-12T09:47:21Z</time>
      </trkpt>
      <trkpt lat="43.55644" lon="6.6519">
        <ele>310.591766</ele>
        <time>2011-02-12T09:47:22Z</time>
      </trkpt>
      <trkpt lat="43.55659" lon="6.65203">
        <ele>308.937012</ele>
        <time>2011-02-12T09:47:27Z</time>
      </trkpt>
      <trkpt lat="43.55659" lon="6.65209">
        <ele>308.602448</ele>
        <time>2011-02-12T09:47:28Z</time>
      </trkpt>
      <trkpt lat="43.55661" lon="6.65239">
        <ele>307.082184</ele>
        <time>2011-02-12T09:47:33Z</time>
      </trkpt>
      <trkpt lat="43.55663" lon="6.65257">
        <ele>306.357666</ele>
        <time>2011-02-12T09:47:36Z</time>
      </trkpt>
      <trkpt lat="43.55667" lon="6.65278">
        <ele>305.567719</ele>
        <time>2011-02-12T09:47:40Z</time>
      </trkpt>
      <trkpt lat="43.55689" lon="6.6528">
        <ele>304.259338</ele>
        <time>2011-02-12T09:47:46Z</time>
      </trkpt>
      <trkpt lat="43.55701" lon="6.65265">
        <ele>303.463562</ele>
        <time>2011-02-12T09:47:50Z</time>
      </trkpt>
      <trkpt lat="43.5571" lon="6.65248">
        <ele>302.846497</ele>
        <time>2011-02-12T09:47:54Z</time>
      </trkpt>
      <trkpt lat="43.55719" lon="6.65224">
        <ele>301.131622</ele>
        <time>2011-02-12T09:47:59Z</time>
      </trkpt>
      <trkpt lat="43.55723" lon="6.65216">
        <ele>299.630524</ele>
        <time>2011-02-12T09:48:01Z</time>
      </trkpt>
      <trkpt lat="43.55744" lon="6.6516">
        <ele>291.444794</ele>
        <time>2011-02-12T09:48:13Z</time>
      </trkpt>
      <trkpt lat="43.55751" lon="6.65145">
        <ele>289.612274</ele>
        <time>2011-02-12T09:48:16Z</time>
      </trkpt>
      <trkpt lat="43.55774" lon="6.65068">
        <ele>288.017273</ele>
        <time>2011-02-12T09:48:33Z</time>
      </trkpt>
      <trkpt lat="43.55779" lon="6.6502">
        <ele>293.069214</ele>
        <time>2011-02-12T09:48:46Z</time>
      </trkpt>
      <trkpt lat="43.55787" lon="6.64988">
        <ele>294.734985</ele>
        <time>2011-02-12T09:48:57Z</time>
      </trkpt>
      <trkpt lat="43.55789" lon="6.64984">
        <ele>294.55545</ele>
        <time>2011-02-12T09:48:59Z</time>
      </trkpt>
      <trkpt lat="43.55796" lon="6.64963">
        <ele>294.909637</ele>
        <time>2011-02-12T09:49:06Z</time>
      </trkpt>
      <trkpt lat="43.55802" lon="6.64932">
        <ele>296.068604</ele>
        <time>2011-02-12T09:49:17Z</time>
      </trkpt>
      <trkpt lat="43.55813" lon="6.64894">
        <ele>296.475647</ele>
        <time>2011-02-12T09:49:31Z</time>
      </trkpt>
      <trkpt lat="43.55828" lon="6.64853">
        <ele>294.740387</ele>
        <time>2011-02-12T09:49:39Z</time>
      </trkpt>
      <trkpt lat="43.55854" lon="6.64765">
        <ele>291.044067</ele>
        <time>2011-02-12T09:49:54Z</time>
      </trkpt>
      <trkpt lat="43.5588" lon="6.64692">
        <ele>290.861298</ele>
        <time>2011-02-12T09:50:16Z</time>
      </trkpt>
      <trkpt lat="43.55925" lon="6.64613">
        <ele>297.493317</ele>
        <time>2011-02-12T09:50:43Z</time>
      </trkpt>
      <trkpt lat="43.55942" lon="6.64585">
        <ele>301.150665</ele>
        <time>2011-02-12T09:50:53Z</time>
      </trkpt>
      <trkpt lat="43.55944" lon="6.64559">
        <ele>301.557556</ele>
        <time>2011-02-12T09:51:00Z</time>
      </trkpt>
      <trkpt lat="43.55946" lon="6.64557">
        <ele>301.760254</ele>
        <time>2011-02-12T09:51:02Z</time>
      </trkpt>
      <trkpt lat="43.5595" lon="6.64551">
        <ele>302.094025</ele>
        <time>2011-02-12T09:51:05Z</time>
      </trkpt>
      <trkpt lat="43.55959" lon="6.64542">
        <ele>303.174927</ele>
        <time>2011-02-12T09:51:09Z</time>
      </trkpt>
      <trkpt lat="43.55961" lon="6.64538">
        <ele>303.396454</ele>
        <time>2011-02-12T09:51:11Z</time>
      </trkpt>
      <trkpt lat="43.55963" lon="6.64536">
        <ele>303.720551</ele>
        <time>2011-02-12T09:51:13Z</time>
      </trkpt>
      <trkpt lat="43.55972" lon="6.64523">
        <ele>305.046844</ele>
        <time>2011-02-12T09:51:20Z</time>
      </trkpt>
      <trkpt lat="43.55978" lon="6.64518">
        <ele>306.342102</ele>
        <time>2011-02-12T09:51:24Z</time>
      </trkpt>
      <trkpt lat="43.55985" lon="6.64514">
        <ele>307.342926</ele>
        <time>2011-02-12T09:51:27Z</time>
      </trkpt>
      <trkpt lat="43.55989" lon="6.64514">
        <ele>308.254974</ele>
        <time>2011-02-12T09:51:29Z</time>
      </trkpt>
      <trkpt lat="43.56036" lon="6.64488">
        <ele>310.667786</ele>
        <time>2011-02-12T09:51:54Z</time>
      </trkpt>
      <trkpt lat="43.56047" lon="6.64482">
        <ele>309.384766</ele>
        <time>2011-02-12T09:51:59Z</time>
      </trkpt>
      <trkpt lat="43.56047" lon="6.64482">
        <ele>309.384766</ele>
        <time>2011-02-12T09:52:11Z</time>
      </trkpt>
      <trkpt lat="43.56047" lon="6.64482">
        <ele>309.384766</ele>
        <time>2011-02-12T09:52:17Z</time>
      </trkpt>
      <trkpt lat="43.56047" lon="6.64482">
        <ele>309.384766</ele>
        <time>2011-02-12T09:52:19Z</time>
      </trkpt>
      <trkpt lat="43.56047" lon="6.64482">
        <ele>309.384766</ele>
        <time>2011-02-12T09:52:24Z</time>
      </trkpt>
      <trkpt lat="43.56047" lon="6.64482">
        <ele>309.384766</ele>
        <time>2011-02-12T09:52:27Z</time>
      </trkpt>
      <trkpt lat="43.56047" lon="6.64482">
        <ele>309.384766</ele>
        <time>2011-02-12T09:52:36Z</time>
      </trkpt>
      <trkpt lat="43.56047" lon="6.64482">
        <ele>309.384766</ele>
        <time>2011-02-12T09:52:38Z</time>
      </trkpt>
      <trkpt lat="43.56047" lon="6.64482">
        <ele>309.384766</ele>
        <time>2011-02-12T09:52:45Z</time>
      </trkpt>
      <trkpt lat="43.5612" lon="6.64681">
        <ele>285.422424</ele>
        <time>2011-02-12T09:52:48Z</time>
      </trkpt>
      <trkpt lat="43.56111" lon="6.64761">
        <ele>275.389771</ele>
        <time>2011-02-12T09:52:52Z</time>
      </trkpt>
      <trkpt lat="43.56086" lon="6.64808">
        <ele>277.220856</ele>
        <time>2011-02-12T09:52:56Z</time>
      </trkpt>
      <trkpt lat="43.56058" lon="6.649">
        <ele>273.447784</ele>
        <time>2011-02-12T09:53:03Z</time>
      </trkpt>
      <trkpt lat="43.56055" lon="6.64913">
        <ele>271.71759</ele>
        <time>2011-02-12T09:53:04Z</time>
      </trkpt>
      <trkpt lat="43.56043" lon="6.64965">
        <ele>266.419434</ele>
        <time>2011-02-12T09:53:08Z</time>
      </trkpt>
      <trkpt lat="43.56038" lon="6.64978">
        <ele>265.072876</ele>
        <time>2011-02-12T09:53:09Z</time>
      </trkpt>
      <trkpt lat="43.56023" lon="6.65027">
        <ele>260.383087</ele>
        <time>2011-02-12T09:53:13Z</time>
      </trkpt>
      <trkpt lat="43.56019" lon="6.6504">
        <ele>259.829315</ele>
        <time>2011-02-12T09:53:14Z</time>
      </trkpt>
      <trkpt lat="43.56008" lon="6.65078">
        <ele>258.067505</ele>
        <time>2011-02-12T09:53:17Z</time>
      </trkpt>
      <trkpt lat="43.55993" lon="6.6513">
        <ele>259.35379</ele>
        <time>2011-02-12T09:53:21Z</time>
      </trkpt>
      <trkpt lat="43.55989" lon="6.65143">
        <ele>256.94809</ele>
        <time>2011-02-12T09:53:22Z</time>
      </trkpt>
      <trkpt lat="43.55963" lon="6.65162">
        <ele>250.139954</ele>
        <time>2011-02-12T09:53:28Z</time>
      </trkpt>
      <trkpt lat="43.55959" lon="6.65156">
        <ele>251.16597</ele>
        <time>2011-02-12T09:53:29Z</time>
      </trkpt>
      <trkpt lat="43.5595" lon="6.65143">
        <ele>253.098175</ele>
        <time>2011-02-12T09:53:31Z</time>
      </trkpt>
      <trkpt lat="43.55929" lon="6.65106">
        <ele>259.516602</ele>
        <time>2011-02-12T09:53:36Z</time>
      </trkpt>
      <trkpt lat="43.55916" lon="6.65115">
        <ele>259.116699</ele>
        <time>2011-02-12T09:53:41Z</time>
      </trkpt>
      <trkpt lat="43.55914" lon="6.65128">
        <ele>257.540192</ele>
        <time>2011-02-12T09:53:43Z</time>
      </trkpt>
      <trkpt lat="43.55907" lon="6.65158">
        <ele>253.251877</ele>
        <time>2011-02-12T09:53:47Z</time>
      </trkpt>
      <trkpt lat="43.55895" lon="6.65184">
        <ele>251.687622</ele>
        <time>2011-02-12T09:53:51Z</time>
      </trkpt>
      <trkpt lat="43.55897" lon="6.65229">
        <ele>248.567429</ele>
        <time>2011-02-12T09:53:56Z</time>
      </trkpt>
      <trkpt lat="43.55899" lon="6.65257">
        <ele>246.527008</ele>
        <time>2011-02-12T09:53:59Z</time>
      </trkpt>
      <trkpt lat="43.55905" lon="6.6531">
        <ele>242.718491</ele>
        <time>2011-02-12T09:54:04Z</time>
      </trkpt>
      <trkpt lat="43.5591" lon="6.65342">
        <ele>238.795105</ele>
        <time>2011-02-12T09:54:07Z</time>
      </trkpt>
      <trkpt lat="43.55918" lon="6.65409">
        <ele>233.167557</ele>
        <time>2011-02-12T09:54:13Z</time>
      </trkpt>
      <trkpt lat="43.5592" lon="6.65443">
        <ele>233.826202</ele>
        <time>2011-02-12T09:54:16Z</time>
      </trkpt>
      <trkpt lat="43.55918" lon="6.6546">
        <ele>236.434677</ele>
        <time>2011-02-12T09:54:19Z</time>
      </trkpt>
      <trkpt lat="43.55927" lon="6.65458">
        <ele>234.94722</ele>
        <time>2011-02-12T09:54:22Z</time>
      </trkpt>
      <trkpt lat="43.55929" lon="6.65456">
        <ele>234.326874</ele>
        <time>2011-02-12T09:54:23Z</time>
      </trkpt>
      <trkpt lat="43.5594" lon="6.65452">
        <ele>232.128922</ele>
        <time>2011-02-12T09:54:27Z</time>
      </trkpt>
      <trkpt lat="43.55957" lon="6.6545">
        <ele>229.522751</ele>
        <time>2011-02-12T09:54:30Z</time>
      </trkpt>
      <trkpt lat="43.56" lon="6.65456">
        <ele>225.237732</ele>
        <time>2011-02-12T09:54:37Z</time>
      </trkpt>
      <trkpt lat="43.56043" lon="6.6546">
        <ele>223.930634</ele>
        <time>2011-02-12T09:54:43Z</time>
      </trkpt>
      <trkpt lat="43.56051" lon="6.6546">
        <ele>224.295578</ele>
        <time>2011-02-12T09:54:44Z</time>
      </trkpt>
      <trkpt lat="43.56079" lon="6.65426">
        <ele>220.426941</ele>
        <time>2011-02-12T09:54:49Z</time>
      </trkpt>
      <trkpt lat="43.56092" lon="6.65413">
        <ele>219.203766</ele>
        <time>2011-02-12T09:54:51Z</time>
      </trkpt>
      <trkpt lat="43.56101" lon="6.65409">
        <ele>219.408951</ele>
        <time>2011-02-12T09:54:52Z</time>
      </trkpt>
      <trkpt lat="43.56116" lon="6.65402">
        <ele>220.219604</ele>
        <time>2011-02-12T09:54:54Z</time>
      </trkpt>
      <trkpt lat="43.56122" lon="6.65396">
        <ele>218.999008</ele>
        <time>2011-02-12T09:54:55Z</time>
      </trkpt>
      <trkpt lat="43.56128" lon="6.6539">
        <ele>216.852737</ele>
        <time>2011-02-12T09:54:56Z</time>
      </trkpt>
      <trkpt lat="43.56154" lon="6.65379">
        <ele>211.51738</ele>
        <time>2011-02-12T09:54:59Z</time>
      </trkpt>
      <trkpt lat="43.56195" lon="6.65413">
        <ele>207.303009</ele>
        <time>2011-02-12T09:55:05Z</time>
      </trkpt>
      <trkpt lat="43.56204" lon="6.65435">
        <ele>207.232971</ele>
        <time>2011-02-12T09:55:07Z</time>
      </trkpt>
      <trkpt lat="43.56212" lon="6.65454">
        <ele>207.056854</ele>
        <time>2011-02-12T09:55:09Z</time>
      </trkpt>
      <trkpt lat="43.56234" lon="6.65501">
        <ele>201.211349</ele>
        <time>2011-02-12T09:55:14Z</time>
      </trkpt>
      <trkpt lat="43.56227" lon="6.6552">
        <ele>202.50737</ele>
        <time>2011-02-12T09:55:16Z</time>
      </trkpt>
      <trkpt lat="43.56201" lon="6.65557">
        <ele>201.891006</ele>
        <time>2011-02-12T09:55:21Z</time>
      </trkpt>
      <trkpt lat="43.56176" lon="6.65565">
        <ele>203.770691</ele>
        <time>2011-02-12T09:55:24Z</time>
      </trkpt>
      <trkpt lat="43.56167" lon="6.65568">
        <ele>204.334259</ele>
        <time>2011-02-12T09:55:25Z</time>
      </trkpt>
      <trkpt lat="43.56146" lon="6.65583">
        <ele>203.023346</ele>
        <time>2011-02-12T09:55:29Z</time>
      </trkpt>
      <trkpt lat="43.56146" lon="6.65587">
        <ele>202.164871</ele>
        <time>2011-02-12T09:55:30Z</time>
      </trkpt>
      <trkpt lat="43.56158" lon="6.65596">
        <ele>199.214035</ele>
        <time>2011-02-12T09:55:35Z</time>
      </trkpt>
      <trkpt lat="43.56189" lon="6.65591">
        <ele>197.622391</ele>
        <time>2011-02-12T09:55:40Z</time>
      </trkpt>
      <trkpt lat="43.56221" lon="6.65589">
        <ele>196.478378</ele>
        <time>2011-02-12T09:55:44Z</time>
      </trkpt>
      <trkpt lat="43.56249" lon="6.65589">
        <ele>196.013321</ele>
        <time>2011-02-12T09:55:47Z</time>
      </trkpt>
      <trkpt lat="43.56272" lon="6.65587">
        <ele>196.008408</ele>
        <time>2011-02-12T09:55:50Z</time>
      </trkpt>
      <trkpt lat="43.56337" lon="6.65591">
        <ele>195.881561</ele>
        <time>2011-02-12T09:56:02Z</time>
      </trkpt>
      <trkpt lat="43.56414" lon="6.65611">
        <ele>195.342682</ele>
        <time>2011-02-12T09:56:21Z</time>
      </trkpt>
      <trkpt lat="43.56442" lon="6.65621">
        <ele>195.705322</ele>
        <time>2011-02-12T09:56:28Z</time>
      </trkpt>
      <trkpt lat="43.56521" lon="6.65688">
        <ele>198.315323</ele>
        <time>2011-02-12T09:56:59Z</time>
      </trkpt>
      <trkpt lat="43.5654" lon="6.65707">
        <ele>198.096161</ele>
        <time>2011-02-12T09:57:06Z</time>
      </trkpt>
      <trkpt lat="43.5654" lon="6.65707">
        <ele>198.096161</ele>
        <time>2011-02-12T09:57:07Z</time>
      </trkpt>
      <trkpt lat="43.56573" lon="6.65716">
        <ele>197.67662</ele>
        <time>2011-02-12T09:57:18Z</time>
      </trkpt>
      <trkpt lat="43.56579" lon="6.65718">
        <ele>197.623016</ele>
        <time>2011-02-12T09:57:23Z</time>
      </trkpt>
      <trkpt lat="43.56601" lon="6.65737">
        <ele>197.1689</ele>
        <time>2011-02-12T09:57:32Z</time>
      </trkpt>
      <trkpt lat="43.56609" lon="6.65733">
        <ele>197.820435</ele>
        <time>2011-02-12T09:57:37Z</time>
      </trkpt>
      <trkpt lat="43.56609" lon="6.65731">
        <ele>197.861237</ele>
        <time>2011-02-12T09:57:38Z</time>
      </trkpt>
      <trkpt lat="43.56613" lon="6.65722">
        <ele>198.24025</ele>
        <time>2011-02-12T09:57:42Z</time>
      </trkpt>
      <trkpt lat="43.5662" lon="6.65709">
        <ele>198.666733</ele>
        <time>2011-02-12T09:57:47Z</time>
      </trkpt>
      <trkpt lat="43.56635" lon="6.65675">
        <ele>199.31073</ele>
        <time>2011-02-12T09:58:03Z</time>
      </trkpt>
      <trkpt lat="43.56646" lon="6.65662">
        <ele>200.184235</ele>
        <time>2011-02-12T09:58:11Z</time>
      </trkpt>
      <trkpt lat="43.56654" lon="6.65658">
        <ele>201.122543</ele>
        <time>2011-02-12T09:58:17Z</time>
      </trkpt>
      <trkpt lat="43.56678" lon="6.65651">
        <ele>203.394424</ele>
        <time>2011-02-12T09:58:33Z</time>
      </trkpt>
      <trkpt lat="43.56699" lon="6.65645">
        <ele>205.503555</ele>
        <time>2011-02-12T09:58:47Z</time>
      </trkpt>
      <trkpt lat="43.56699" lon="6.65645">
        <ele>205.503555</ele>
        <time>2011-02-12T09:58:47Z</time>
      </trkpt>
      <trkpt lat="43.5671" lon="6.65673">
        <ele>206.935638</ele>
        <time>2011-02-12T09:58:53Z</time>
      </trkpt>
      <trkpt lat="43.56712" lon="6.65673">
        <ele>207.250549</ele>
        <time>2011-02-12T09:58:54Z</time>
      </trkpt>
      <trkpt lat="43.56719" lon="6.65671">
        <ele>208.172577</ele>
        <time>2011-02-12T09:58:57Z</time>
      </trkpt>
      <trkpt lat="43.56723" lon="6.65664">
        <ele>208.713989</ele>
        <time>2011-02-12T09:59:01Z</time>
      </trkpt>
      <trkpt lat="43.56725" lon="6.65662">
        <ele>208.984177</ele>
        <time>2011-02-12T09:59:02Z</time>
      </trkpt>
      <trkpt lat="43.56738" lon="6.65643">
        <ele>210.313583</ele>
        <time>2011-02-12T09:59:13Z</time>
      </trkpt>
      <trkpt lat="43.56738" lon="6.65638">
        <ele>210.227661</ele>
        <time>2011-02-12T09:59:16Z</time>
      </trkpt>
      <trkpt lat="43.56742" lon="6.65634">
        <ele>210.531509</ele>
        <time>2011-02-12T09:59:19Z</time>
      </trkpt>
      <trkpt lat="43.56744" lon="6.6563">
        <ele>210.630997</ele>
        <time>2011-02-12T09:59:21Z</time>
      </trkpt>
      <trkpt lat="43.56751" lon="6.65623">
        <ele>211.139832</ele>
        <time>2011-02-12T09:59:26Z</time>
      </trkpt>
      <trkpt lat="43.56753" lon="6.65621">
        <ele>211.346054</ele>
        <time>2011-02-12T09:59:27Z</time>
      </trkpt>
      <trkpt lat="43.56757" lon="6.65617">
        <ele>211.748245</ele>
        <time>2011-02-12T09:59:30Z</time>
      </trkpt>
      <trkpt lat="43.5677" lon="6.65604">
        <ele>212.872879</ele>
        <time>2011-02-12T09:59:39Z</time>
      </trkpt>
      <trkpt lat="43.568" lon="6.6555">
        <ele>215.825958</ele>
        <time>2011-02-12T10:00:11Z</time>
      </trkpt>
      <trkpt lat="43.56817" lon="6.6552">
        <ele>217.452713</ele>
        <time>2011-02-12T10:00:18Z</time>
      </trkpt>
      <trkpt lat="43.56817" lon="6.65518">
        <ele>217.484879</ele>
        <time>2011-02-12T10:00:19Z</time>
      </trkpt>
      <trkpt lat="43.56826" lon="6.65501">
        <ele>217.930145</ele>
        <time>2011-02-12T10:00:25Z</time>
      </trkpt>
      <trkpt lat="43.5683" lon="6.6549">
        <ele>218.036148</ele>
        <time>2011-02-12T10:00:29Z</time>
      </trkpt>
      <trkpt lat="43.56832" lon="6.65482">
        <ele>218.044052</ele>
        <time>2011-02-12T10:00:32Z</time>
      </trkpt>
      <trkpt lat="43.56832" lon="6.6548">
        <ele>218.053131</ele>
        <time>2011-02-12T10:00:33Z</time>
      </trkpt>
      <trkpt lat="43.56834" lon="6.65475">
        <ele>218.001648</ele>
        <time>2011-02-12T10:00:35Z</time>
      </trkpt>
      <trkpt lat="43.56839" lon="6.65465">
        <ele>217.985672</ele>
        <time>2011-02-12T10:00:40Z</time>
      </trkpt>
      <trkpt lat="43.56834" lon="6.65452">
        <ele>218.059952</ele>
        <time>2011-02-12T10:00:46Z</time>
      </trkpt>
      <trkpt lat="43.56834" lon="6.6545">
        <ele>218.070053</ele>
        <time>2011-02-12T10:00:47Z</time>
      </trkpt>
      <trkpt lat="43.56811" lon="6.65405">
        <ele>221.75322</ele>
        <time>2011-02-12T10:01:13Z</time>
      </trkpt>
      <trkpt lat="43.56809" lon="6.65398">
        <ele>222.267288</ele>
        <time>2011-02-12T10:01:17Z</time>
      </trkpt>
      <trkpt lat="43.56809" lon="6.65398">
        <ele>222.267288</ele>
        <time>2011-02-12T10:01:30Z</time>
      </trkpt>
      <trkpt lat="43.56809" lon="6.65398">
        <ele>222.267288</ele>
        <time>2011-02-12T10:01:45Z</time>
      </trkpt>
      <trkpt lat="43.56749" lon="6.6539">
        <ele>229.648651</ele>
        <time>2011-02-12T10:01:51Z</time>
      </trkpt>
      <trkpt lat="43.56746" lon="6.6539">
        <ele>229.908936</ele>
        <time>2011-02-12T10:01:52Z</time>
      </trkpt>
      <trkpt lat="43.56742" lon="6.6539">
        <ele>230.468597</ele>
        <time>2011-02-12T10:01:55Z</time>
      </trkpt>
      <trkpt lat="43.56738" lon="6.6539">
        <ele>231.024261</ele>
        <time>2011-02-12T10:01:57Z</time>
      </trkpt>
      <trkpt lat="43.56736" lon="6.65387">
        <ele>231.592148</ele>
        <time>2011-02-12T10:01:59Z</time>
      </trkpt>
      <trkpt lat="43.56729" lon="6.65379">
        <ele>233.685547</ele>
        <time>2011-02-12T10:02:08Z</time>
      </trkpt>
      <trkpt lat="43.56727" lon="6.65377">
        <ele>234.281982</ele>
        <time>2011-02-12T10:02:11Z</time>
      </trkpt>
      <trkpt lat="43.56725" lon="6.65375">
        <ele>234.70842</ele>
        <time>2011-02-12T10:02:13Z</time>
      </trkpt>
      <trkpt lat="43.56721" lon="6.6537">
        <ele>235.551743</ele>
        <time>2011-02-12T10:02:16Z</time>
      </trkpt>
      <trkpt lat="43.56714" lon="6.65362">
        <ele>236.883301</ele>
        <time>2011-02-12T10:02:24Z</time>
      </trkpt>
      <trkpt lat="43.56701" lon="6.65353">
        <ele>239.074509</ele>
        <time>2011-02-12T10:02:35Z</time>
      </trkpt>
      <trkpt lat="43.56688" lon="6.65342">
        <ele>241.350357</ele>
        <time>2011-02-12T10:02:47Z</time>
      </trkpt>
      <trkpt lat="43.56684" lon="6.65332">
        <ele>242.604462</ele>
        <time>2011-02-12T10:02:54Z</time>
      </trkpt>
      <trkpt lat="43.56682" lon="6.65327">
        <ele>243.202927</ele>
        <time>2011-02-12T10:02:59Z</time>
      </trkpt>
      <trkpt lat="43.56676" lon="6.65312">
        <ele>245.275818</ele>
        <time>2011-02-12T10:03:11Z</time>
      </trkpt>
      <trkpt lat="43.56671" lon="6.65306">
        <ele>246.380447</ele>
        <time>2011-02-12T10:03:16Z</time>
      </trkpt>
      <trkpt lat="43.56663" lon="6.65293">
        <ele>248.600876</ele>
        <time>2011-02-12T10:03:28Z</time>
      </trkpt>
      <trkpt lat="43.56663" lon="6.65291">
        <ele>248.719742</ele>
        <time>2011-02-12T10:03:30Z</time>
      </trkpt>
      <trkpt lat="43.56661" lon="6.65287">
        <ele>249.380875</ele>
        <time>2011-02-12T10:03:34Z</time>
      </trkpt>
      <trkpt lat="43.56658" lon="6.65282">
        <ele>250.071243</ele>
        <time>2011-02-12T10:03:36Z</time>
      </trkpt>
      <trkpt lat="43.56656" lon="6.6528">
        <ele>250.637054</ele>
        <time>2011-02-12T10:03:39Z</time>
      </trkpt>
      <trkpt lat="43.56656" lon="6.65278">
        <ele>250.754745</ele>
        <time>2011-02-12T10:03:40Z</time>
      </trkpt>
      <trkpt lat="43.56654" lon="6.65274">
        <ele>251.431381</ele>
        <time>2011-02-12T10:03:43Z</time>
      </trkpt>
      <trkpt lat="43.56652" lon="6.65272">
        <ele>251.987274</ele>
        <time>2011-02-12T10:03:45Z</time>
      </trkpt>
      <trkpt lat="43.56639" lon="6.65244">
        <ele>255.767609</ele>
        <time>2011-02-12T10:04:05Z</time>
      </trkpt>
      <trkpt lat="43.56635" lon="6.65237">
        <ele>256.479706</ele>
        <time>2011-02-12T10:04:10Z</time>
      </trkpt>
      <trkpt lat="43.56637" lon="6.65229">
        <ele>255.836624</ele>
        <time>2011-02-12T10:04:16Z</time>
      </trkpt>
      <trkpt lat="43.56641" lon="6.65222">
        <ele>254.811371</ele>
        <time>2011-02-12T10:04:22Z</time>
      </trkpt>
      <trkpt lat="43.5665" lon="6.65226">
        <ele>253.178406</ele>
        <time>2011-02-12T10:04:29Z</time>
      </trkpt>
      <trkpt lat="43.56658" lon="6.65226">
        <ele>251.441055</ele>
        <time>2011-02-12T10:04:35Z</time>
      </trkpt>
      <trkpt lat="43.56667" lon="6.65226">
        <ele>249.796051</ele>
        <time>2011-02-12T10:04:40Z</time>
      </trkpt>
      <trkpt lat="43.56658" lon="6.65222">
        <ele>251.336685</ele>
        <time>2011-02-12T10:04:44Z</time>
      </trkpt>
      <trkpt lat="43.56658" lon="6.65224">
        <ele>251.38887</ele>
        <time>2011-02-12T10:04:45Z</time>
      </trkpt>
      <trkpt lat="43.56652" lon="6.65224">
        <ele>252.691879</ele>
        <time>2011-02-12T10:04:48Z</time>
      </trkpt>
      <trkpt lat="43.5665" lon="6.65224">
        <ele>253.126221</ele>
        <time>2011-02-12T10:04:49Z</time>
      </trkpt>
      <trkpt lat="43.56643" lon="6.65226">
        <ele>254.481415</ele>
        <time>2011-02-12T10:04:52Z</time>
      </trkpt>
      <trkpt lat="43.56628" lon="6.65226">
        <ele>257.52179</ele>
        <time>2011-02-12T10:04:58Z</time>
      </trkpt>
      <trkpt lat="43.56616" lon="6.6522">
        <ele>259.543732</ele>
        <time>2011-02-12T10:05:04Z</time>
      </trkpt>
      <trkpt lat="43.56607" lon="6.65211">
        <ele>260.080658</ele>
        <time>2011-02-12T10:05:10Z</time>
      </trkpt>
      <trkpt lat="43.56603" lon="6.65196">
        <ele>260.040558</ele>
        <time>2011-02-12T10:05:16Z</time>
      </trkpt>
      <trkpt lat="43.56601" lon="6.65175">
        <ele>259.184021</ele>
        <time>2011-02-12T10:05:23Z</time>
      </trkpt>
      <trkpt lat="43.56598" lon="6.6516">
        <ele>257.987701</ele>
        <time>2011-02-12T10:05:28Z</time>
      </trkpt>
      <trkpt lat="43.56605" lon="6.65136">
        <ele>255.164139</ele>
        <time>2011-02-12T10:05:32Z</time>
      </trkpt>
      <trkpt lat="43.56607" lon="6.65119">
        <ele>253.293777</ele>
        <time>2011-02-12T10:05:35Z</time>
      </trkpt>
      <trkpt lat="43.56611" lon="6.65093">
        <ele>249.090225</ele>
        <time>2011-02-12T10:05:39Z</time>
      </trkpt>
      <trkpt lat="43.56622" lon="6.64995">
        <ele>241.802689</ele>
        <time>2011-02-12T10:05:53Z</time>
      </trkpt>
      <trkpt lat="43.56622" lon="6.6498">
        <ele>242.222946</ele>
        <time>2011-02-12T10:05:55Z</time>
      </trkpt>
      <trkpt lat="43.56622" lon="6.64956">
        <ele>242.8703</ele>
        <time>2011-02-12T10:05:58Z</time>
      </trkpt>
      <trkpt lat="43.56618" lon="6.64926">
        <ele>242.618423</ele>
        <time>2011-02-12T10:06:02Z</time>
      </trkpt>
      <trkpt lat="43.56616" lon="6.64911">
        <ele>241.80867</ele>
        <time>2011-02-12T10:06:04Z</time>
      </trkpt>
      <trkpt lat="43.56613" lon="6.64902">
        <ele>241.431168</ele>
        <time>2011-02-12T10:06:05Z</time>
      </trkpt>
      <trkpt lat="43.56609" lon="6.64896">
        <ele>241.259796</ele>
        <time>2011-02-12T10:06:06Z</time>
      </trkpt>
      <trkpt lat="43.56616" lon="6.64849">
        <ele>238.49321</ele>
        <time>2011-02-12T10:06:13Z</time>
      </trkpt>
      <trkpt lat="43.5662" lon="6.64838">
        <ele>237.496674</ele>
        <time>2011-02-12T10:06:15Z</time>
      </trkpt>
      <trkpt lat="43.56622" lon="6.64812">
        <ele>235.634506</ele>
        <time>2011-02-12T10:06:19Z</time>
      </trkpt>
      <trkpt lat="43.56622" lon="6.64797">
        <ele>234.140152</ele>
        <time>2011-02-12T10:06:21Z</time>
      </trkpt>
      <trkpt lat="43.56622" lon="6.64767">
        <ele>231.10791</ele>
        <time>2011-02-12T10:06:25Z</time>
      </trkpt>
      <trkpt lat="43.56624" lon="6.64744">
        <ele>229.004608</ele>
        <time>2011-02-12T10:06:28Z</time>
      </trkpt>
      <trkpt lat="43.56631" lon="6.64748">
        <ele>229.058914</ele>
        <time>2011-02-12T10:06:31Z</time>
      </trkpt>
      <trkpt lat="43.56648" lon="6.64757">
        <ele>227.628571</ele>
        <time>2011-02-12T10:06:36Z</time>
      </trkpt>
      <trkpt lat="43.56658" lon="6.6475">
        <ele>225.402832</ele>
        <time>2011-02-12T10:06:38Z</time>
      </trkpt>
      <trkpt lat="43.56669" lon="6.64739">
        <ele>223.88295</ele>
        <time>2011-02-12T10:06:41Z</time>
      </trkpt>
      <trkpt lat="43.56684" lon="6.64724">
        <ele>222.4711</ele>
        <time>2011-02-12T10:06:45Z</time>
      </trkpt>
      <trkpt lat="43.56688" lon="6.6472">
        <ele>221.950317</ele>
        <time>2011-02-12T10:06:46Z</time>
      </trkpt>
      <trkpt lat="43.56706" lon="6.64707">
        <ele>219.416916</ele>
        <time>2011-02-12T10:06:50Z</time>
      </trkpt>
      <trkpt lat="43.56719" lon="6.64699">
        <ele>217.259659</ele>
        <time>2011-02-12T10:06:53Z</time>
      </trkpt>
      <trkpt lat="43.56736" lon="6.64688">
        <ele>213.605713</ele>
        <time>2011-02-12T10:06:57Z</time>
      </trkpt>
      <trkpt lat="43.56746" lon="6.64686">
        <ele>210.906052</ele>
        <time>2011-02-12T10:06:59Z</time>
      </trkpt>
      <trkpt lat="43.56755" lon="6.64686">
        <ele>208.755676</ele>
        <time>2011-02-12T10:07:03Z</time>
      </trkpt>
      <trkpt lat="43.56757" lon="6.64686">
        <ele>208.217453</ele>
        <time>2011-02-12T10:07:04Z</time>
      </trkpt>
      <trkpt lat="43.56759" lon="6.64686">
        <ele>207.678986</ele>
        <time>2011-02-12T10:07:05Z</time>
      </trkpt>
      <trkpt lat="43.56764" lon="6.64686">
        <ele>206.601288</ele>
        <time>2011-02-12T10:07:07Z</time>
      </trkpt>
      <trkpt lat="43.56774" lon="6.64701">
        <ele>204.267807</ele>
        <time>2011-02-12T10:07:12Z</time>
      </trkpt>
      <trkpt lat="43.56779" lon="6.64707">
        <ele>203.85556</ele>
        <time>2011-02-12T10:07:14Z</time>
      </trkpt>
      <trkpt lat="43.56789" lon="6.64716">
        <ele>202.426193</ele>
        <time>2011-02-12T10:07:17Z</time>
      </trkpt>
      <trkpt lat="43.568" lon="6.64724">
        <ele>200.811462</ele>
        <time>2011-02-12T10:07:20Z</time>
      </trkpt>
      <trkpt lat="43.56813" lon="6.64733">
        <ele>198.60347</ele>
        <time>2011-02-12T10:07:25Z</time>
      </trkpt>
      <trkpt lat="43.56822" lon="6.64748">
        <ele>197.875809</ele>
        <time>2011-02-12T10:07:28Z</time>
      </trkpt>
      <trkpt lat="43.56841" lon="6.64754">
        <ele>198.710281</ele>
        <time>2011-02-12T10:07:36Z</time>
      </trkpt>
      <trkpt lat="43.56839" lon="6.64748">
        <ele>198.697571</ele>
        <time>2011-02-12T10:07:38Z</time>
      </trkpt>
      <trkpt lat="43.56839" lon="6.64744">
        <ele>198.744766</ele>
        <time>2011-02-12T10:07:39Z</time>
      </trkpt>
      <trkpt lat="43.56839" lon="6.64722">
        <ele>198.949036</ele>
        <time>2011-02-12T10:07:45Z</time>
      </trkpt>
      <trkpt lat="43.56847" lon="6.64656">
        <ele>195.8703</ele>
        <time>2011-02-12T10:08:05Z</time>
      </trkpt>
      <trkpt lat="43.56852" lon="6.64643">
        <ele>196.030838</ele>
        <time>2011-02-12T10:08:10Z</time>
      </trkpt>
      <trkpt lat="43.56862" lon="6.64611">
        <ele>197.902573</ele>
        <time>2011-02-12T10:08:23Z</time>
      </trkpt>
      <trkpt lat="43.56862" lon="6.646">
        <ele>197.422745</ele>
        <time>2011-02-12T10:08:27Z</time>
      </trkpt>
      <trkpt lat="43.56864" lon="6.64593">
        <ele>197.797089</ele>
        <time>2011-02-12T10:08:29Z</time>
      </trkpt>
      <trkpt lat="43.56867" lon="6.64561">
        <ele>199.142227</ele>
        <time>2011-02-12T10:08:40Z</time>
      </trkpt>
      <trkpt lat="43.56877" lon="6.64553">
        <ele>203.365448</ele>
        <time>2011-02-12T10:08:45Z</time>
      </trkpt>
      <trkpt lat="43.56877" lon="6.64531">
        <ele>204.262253</ele>
        <time>2011-02-12T10:08:54Z</time>
      </trkpt>
      <trkpt lat="43.56864" lon="6.64512">
        <ele>202.299057</ele>
        <time>2011-02-12T10:09:04Z</time>
      </trkpt>
      <trkpt lat="43.5686" lon="6.64475">
        <ele>207.86351</ele>
        <time>2011-02-12T10:09:17Z</time>
      </trkpt>
      <trkpt lat="43.56856" lon="6.6446">
        <ele>209.77713</ele>
        <time>2011-02-12T10:09:22Z</time>
      </trkpt>
      <trkpt lat="43.56871" lon="6.64428">
        <ele>209.623398</ele>
        <time>2011-02-12T10:09:32Z</time>
      </trkpt>
      <trkpt lat="43.56873" lon="6.64426">
        <ele>209.712997</ele>
        <time>2011-02-12T10:09:33Z</time>
      </trkpt>
      <trkpt lat="43.56875" lon="6.64418">
        <ele>209.031738</ele>
        <time>2011-02-12T10:09:35Z</time>
      </trkpt>
      <trkpt lat="43.56879" lon="6.644">
        <ele>207.866745</ele>
        <time>2011-02-12T10:09:40Z</time>
      </trkpt>
      <trkpt lat="43.56897" lon="6.64379">
        <ele>207.496964</ele>
        <time>2011-02-12T10:09:48Z</time>
      </trkpt>
      <trkpt lat="43.56905" lon="6.64375">
        <ele>208.202362</ele>
        <time>2011-02-12T10:09:51Z</time>
      </trkpt>
      <trkpt lat="43.56933" lon="6.64347">
        <ele>204.779343</ele>
        <time>2011-02-12T10:10:04Z</time>
      </trkpt>
      <trkpt lat="43.56955" lon="6.6436">
        <ele>209.398758</ele>
        <time>2011-02-12T10:10:11Z</time>
      </trkpt>
      <trkpt lat="43.56961" lon="6.64366">
        <ele>210.945023</ele>
        <time>2011-02-12T10:10:13Z</time>
      </trkpt>
      <trkpt lat="43.56965" lon="6.64372">
        <ele>212.183624</ele>
        <time>2011-02-12T10:10:15Z</time>
      </trkpt>
      <trkpt lat="43.56974" lon="6.64381">
        <ele>214.187668</ele>
        <time>2011-02-12T10:10:18Z</time>
      </trkpt>
      <trkpt lat="43.5698" lon="6.6439">
        <ele>215.948318</ele>
        <time>2011-02-12T10:10:21Z</time>
      </trkpt>
      <trkpt lat="43.56985" lon="6.64392">
        <ele>216.589767</ele>
        <time>2011-02-12T10:10:22Z</time>
      </trkpt>
      <trkpt lat="43.56991" lon="6.6436">
        <ele>213.908676</ele>
        <time>2011-02-12T10:10:29Z</time>
      </trkpt>
      <trkpt lat="43.56995" lon="6.64353">
        <ele>213.985809</ele>
        <time>2011-02-12T10:10:31Z</time>
      </trkpt>
      <trkpt lat="43.57002" lon="6.64342">
        <ele>214.124557</ele>
        <time>2011-02-12T10:10:34Z</time>
      </trkpt>
      <trkpt lat="43.57013" lon="6.64323">
        <ele>213.550888</ele>
        <time>2011-02-12T10:10:40Z</time>
      </trkpt>
      <trkpt lat="43.5703" lon="6.64308">
        <ele>214.468353</ele>
        <time>2011-02-12T10:10:47Z</time>
      </trkpt>
      <trkpt lat="43.57066" lon="6.64289">
        <ele>216.851196</ele>
        <time>2011-02-12T10:10:59Z</time>
      </trkpt>
      <trkpt lat="43.57083" lon="6.64282">
        <ele>216.274033</ele>
        <time>2011-02-12T10:11:04Z</time>
      </trkpt>
      <trkpt lat="43.57075" lon="6.64265">
        <ele>216.876617</ele>
        <time>2011-02-12T10:11:10Z</time>
      </trkpt>
      <trkpt lat="43.57068" lon="6.64261">
        <ele>216.974014</ele>
        <time>2011-02-12T10:11:13Z</time>
      </trkpt>
      <trkpt lat="43.57064" lon="6.64254">
        <ele>217.004211</ele>
        <time>2011-02-12T10:11:16Z</time>
      </trkpt>
      <trkpt lat="43.57053" lon="6.64246">
        <ele>216.264038</ele>
        <time>2011-02-12T10:11:22Z</time>
      </trkpt>
      <trkpt lat="43.57043" lon="6.64248">
        <ele>215.330765</ele>
        <time>2011-02-12T10:11:26Z</time>
      </trkpt>
      <trkpt lat="43.57036" lon="6.64248">
        <ele>214.77832</ele>
        <time>2011-02-12T10:11:28Z</time>
      </trkpt>
      <trkpt lat="43.57028" lon="6.6425">
        <ele>213.832367</ele>
        <time>2011-02-12T10:11:30Z</time>
      </trkpt>
      <trkpt lat="43.56995" lon="6.64259">
        <ele>209.650116</ele>
        <time>2011-02-12T10:11:41Z</time>
      </trkpt>
      <trkpt lat="43.5698" lon="6.64265">
        <ele>207.209534</ele>
        <time>2011-02-12T10:11:46Z</time>
      </trkpt>
      <trkpt lat="43.56974" lon="6.64233">
        <ele>211.052841</ele>
        <time>2011-02-12T10:11:54Z</time>
      </trkpt>
      <trkpt lat="43.56976" lon="6.64207">
        <ele>213.885544</ele>
        <time>2011-02-12T10:11:59Z</time>
      </trkpt>
      <trkpt lat="43.56982" lon="6.64181">
        <ele>215.941574</ele>
        <time>2011-02-12T10:12:04Z</time>
      </trkpt>
      <trkpt lat="43.56995" lon="6.6416">
        <ele>218.192139</ele>
        <time>2011-02-12T10:12:08Z</time>
      </trkpt>
      <trkpt lat="43.57" lon="6.64149">
        <ele>217.415497</ele>
        <time>2011-02-12T10:12:10Z</time>
      </trkpt>
      <trkpt lat="43.57008" lon="6.64115">
        <ele>214.340057</ele>
        <time>2011-02-12T10:12:15Z</time>
      </trkpt>
      <trkpt lat="43.57023" lon="6.64078">
        <ele>209.460541</ele>
        <time>2011-02-12T10:12:21Z</time>
      </trkpt>
      <trkpt lat="43.57028" lon="6.64074">
        <ele>208.629715</ele>
        <time>2011-02-12T10:12:22Z</time>
      </trkpt>
      <trkpt lat="43.57045" lon="6.64063">
        <ele>206.003876</ele>
        <time>2011-02-12T10:12:26Z</time>
      </trkpt>
      <trkpt lat="43.57077" lon="6.64081">
        <ele>209.697647</ele>
        <time>2011-02-12T10:12:32Z</time>
      </trkpt>
      <trkpt lat="43.57083" lon="6.64081">
        <ele>209.82373</ele>
        <time>2011-02-12T10:12:33Z</time>
      </trkpt>
      <trkpt lat="43.57088" lon="6.64053">
        <ele>204.277893</ele>
        <time>2011-02-12T10:12:38Z</time>
      </trkpt>
      <trkpt lat="43.57085" lon="6.64046">
        <ele>202.722733</ele>
        <time>2011-02-12T10:12:39Z</time>
      </trkpt>
      <trkpt lat="43.5709" lon="6.64029">
        <ele>199.675461</ele>
        <time>2011-02-12T10:12:42Z</time>
      </trkpt>
      <trkpt lat="43.57094" lon="6.64023">
        <ele>198.830246</ele>
        <time>2011-02-12T10:12:43Z</time>
      </trkpt>
      <trkpt lat="43.57103" lon="6.64012">
        <ele>197.530502</ele>
        <time>2011-02-12T10:12:45Z</time>
      </trkpt>
      <trkpt lat="43.57118" lon="6.63999">
        <ele>196.360916</ele>
        <time>2011-02-12T10:12:48Z</time>
      </trkpt>
      <trkpt lat="43.57122" lon="6.63997">
        <ele>195.556046</ele>
        <time>2011-02-12T10:12:49Z</time>
      </trkpt>
      <trkpt lat="43.57135" lon="6.63999">
        <ele>194.579727</ele>
        <time>2011-02-12T10:12:51Z</time>
      </trkpt>
      <trkpt lat="43.5715" lon="6.64012">
        <ele>195.44603</ele>
        <time>2011-02-12T10:12:54Z</time>
      </trkpt>
      <trkpt lat="43.57154" lon="6.64021">
        <ele>196.61525</ele>
        <time>2011-02-12T10:12:55Z</time>
      </trkpt>
      <trkpt lat="43.57186" lon="6.64048">
        <ele>198.684143</ele>
        <time>2011-02-12T10:13:01Z</time>
      </trkpt>
      <trkpt lat="43.57191" lon="6.64053">
        <ele>198.905167</ele>
        <time>2011-02-12T10:13:02Z</time>
      </trkpt>
      <trkpt lat="43.57199" lon="6.64066">
        <ele>200.525787</ele>
        <time>2011-02-12T10:13:05Z</time>
      </trkpt>
      <trkpt lat="43.57208" lon="6.64057">
        <ele>198.049866</ele>
        <time>2011-02-12T10:13:09Z</time>
      </trkpt>
      <trkpt lat="43.57212" lon="6.64053">
        <ele>197.165985</ele>
        <time>2011-02-12T10:13:11Z</time>
      </trkpt>
      <trkpt lat="43.57212" lon="6.64036">
        <ele>198.067871</ele>
        <time>2011-02-12T10:13:17Z</time>
      </trkpt>
      <trkpt lat="43.5721" lon="6.64018">
        <ele>198.881424</ele>
        <time>2011-02-12T10:13:23Z</time>
      </trkpt>
      <trkpt lat="43.57203" lon="6.64003">
        <ele>198.554062</ele>
        <time>2011-02-12T10:13:29Z</time>
      </trkpt>
      <trkpt lat="43.57203" lon="6.63997">
        <ele>198.65715</ele>
        <time>2011-02-12T10:13:31Z</time>
      </trkpt>
      <trkpt lat="43.57199" lon="6.63975">
        <ele>197.695221</ele>
        <time>2011-02-12T10:13:40Z</time>
      </trkpt>
      <trkpt lat="43.57201" lon="6.63956">
        <ele>198.23999</ele>
        <time>2011-02-12T10:13:46Z</time>
      </trkpt>
      <trkpt lat="43.57214" lon="6.63924">
        <ele>200.516251</ele>
        <time>2011-02-12T10:13:58Z</time>
      </trkpt>
      <trkpt lat="43.57227" lon="6.63911">
        <ele>199.168396</ele>
        <time>2011-02-12T10:14:05Z</time>
      </trkpt>
      <trkpt lat="43.57261" lon="6.63885">
        <ele>196.944092</ele>
        <time>2011-02-12T10:14:23Z</time>
      </trkpt>
      <trkpt lat="43.57283" lon="6.63862">
        <ele>195.884293</ele>
        <time>2011-02-12T10:14:33Z</time>
      </trkpt>
      <trkpt lat="43.57285" lon="6.63857">
        <ele>195.991608</ele>
        <time>2011-02-12T10:14:34Z</time>
      </trkpt>
      <trkpt lat="43.57309" lon="6.63862">
        <ele>199.281204</ele>
        <time>2011-02-12T10:14:37Z</time>
      </trkpt>
      <trkpt lat="43.57354" lon="6.63864">
        <ele>201.162933</ele>
        <time>2011-02-12T10:14:39Z</time>
      </trkpt>
      <trkpt lat="43.57382" lon="6.63866">
        <ele>202.281052</ele>
        <time>2011-02-12T10:14:45Z</time>
      </trkpt>
      <trkpt lat="43.57388" lon="6.63838">
        <ele>199.80957</ele>
        <time>2011-02-12T10:14:51Z</time>
      </trkpt>
      <trkpt lat="43.57382" lon="6.63834">
        <ele>199.262756</ele>
        <time>2011-02-12T10:14:54Z</time>
      </trkpt>
      <trkpt lat="43.57371" lon="6.63832">
        <ele>198.838837</ele>
        <time>2011-02-12T10:14:59Z</time>
      </trkpt>
      <trkpt lat="43.57356" lon="6.63825">
        <ele>197.974731</ele>
        <time>2011-02-12T10:15:07Z</time>
      </trkpt>
      <trkpt lat="43.57352" lon="6.63825">
        <ele>197.889893</ele>
        <time>2011-02-12T10:15:09Z</time>
      </trkpt>
      <trkpt lat="43.57349" lon="6.63823">
        <ele>197.656693</ele>
        <time>2011-02-12T10:15:11Z</time>
      </trkpt>
      <trkpt lat="43.57337" lon="6.63817">
        <ele>196.631546</ele>
        <time>2011-02-12T10:15:17Z</time>
      </trkpt>
      <trkpt lat="43.57328" lon="6.6381">
        <ele>196.853455</ele>
        <time>2011-02-12T10:15:23Z</time>
      </trkpt>
      <trkpt lat="43.57306" lon="6.638">
        <ele>198.450806</ele>
        <time>2011-02-12T10:15:35Z</time>
      </trkpt>
      <trkpt lat="43.573" lon="6.63793">
        <ele>199.615875</ele>
        <time>2011-02-12T10:15:40Z</time>
      </trkpt>
      <trkpt lat="43.57296" lon="6.63778">
        <ele>203.292282</ele>
        <time>2011-02-12T10:15:47Z</time>
      </trkpt>
      <trkpt lat="43.57294" lon="6.63767">
        <ele>205.946472</ele>
        <time>2011-02-12T10:15:52Z</time>
      </trkpt>
      <trkpt lat="43.57296" lon="6.63761">
        <ele>207.99408</ele>
        <time>2011-02-12T10:15:55Z</time>
      </trkpt>
      <trkpt lat="43.57298" lon="6.63754">
        <ele>210.068542</ele>
        <time>2011-02-12T10:15:58Z</time>
      </trkpt>
      <trkpt lat="43.57298" lon="6.63752">
        <ele>210.658234</ele>
        <time>2011-02-12T10:15:59Z</time>
      </trkpt>
      <trkpt lat="43.57298" lon="6.63735">
        <ele>212.166779</ele>
        <time>2011-02-12T10:16:06Z</time>
      </trkpt>
      <trkpt lat="43.57296" lon="6.63729">
        <ele>212.109192</ele>
        <time>2011-02-12T10:16:09Z</time>
      </trkpt>
      <trkpt lat="43.57294" lon="6.63722">
        <ele>212.040787</ele>
        <time>2011-02-12T10:16:12Z</time>
      </trkpt>
      <trkpt lat="43.57291" lon="6.63714">
        <ele>212.03923</ele>
        <time>2011-02-12T10:16:16Z</time>
      </trkpt>
      <trkpt lat="43.57289" lon="6.63699">
        <ele>212.248337</ele>
        <time>2011-02-12T10:16:22Z</time>
      </trkpt>
      <trkpt lat="43.57283" lon="6.6369">
        <ele>211.536438</ele>
        <time>2011-02-12T10:16:25Z</time>
      </trkpt>
      <trkpt lat="43.57274" lon="6.63684">
        <ele>210.170868</ele>
        <time>2011-02-12T10:16:29Z</time>
      </trkpt>
      <trkpt lat="43.57259" lon="6.63679">
        <ele>207.479202</ele>
        <time>2011-02-12T10:16:35Z</time>
      </trkpt>
      <trkpt lat="43.57255" lon="6.63679">
        <ele>206.865723</ele>
        <time>2011-02-12T10:16:37Z</time>
      </trkpt>
      <trkpt lat="43.57246" lon="6.63679">
        <ele>205.629791</ele>
        <time>2011-02-12T10:16:40Z</time>
      </trkpt>
      <trkpt lat="43.57219" lon="6.63677">
        <ele>201.45961</ele>
        <time>2011-02-12T10:16:50Z</time>
      </trkpt>
      <trkpt lat="43.57214" lon="6.63677">
        <ele>200.95224</ele>
        <time>2011-02-12T10:16:51Z</time>
      </trkpt>
      <trkpt lat="43.57208" lon="6.63677">
        <ele>200.174393</ele>
        <time>2011-02-12T10:16:54Z</time>
      </trkpt>
      <trkpt lat="43.57182" lon="6.63675">
        <ele>196.982269</ele>
        <time>2011-02-12T10:17:04Z</time>
      </trkpt>
      <trkpt lat="43.57191" lon="6.63664">
        <ele>198.389099</ele>
        <time>2011-02-12T10:17:09Z</time>
      </trkpt>
      <trkpt lat="43.57193" lon="6.63662">
        <ele>198.633484</ele>
        <time>2011-02-12T10:17:10Z</time>
      </trkpt>
      <trkpt lat="43.57206" lon="6.63643">
        <ele>199.37796</ele>
        <time>2011-02-12T10:17:18Z</time>
      </trkpt>
      <trkpt lat="43.57216" lon="6.63617">
        <ele>198.677567</ele>
        <time>2011-02-12T10:17:28Z</time>
      </trkpt>
      <trkpt lat="43.57236" lon="6.63598">
        <ele>200.820694</ele>
        <time>2011-02-12T10:17:40Z</time>
      </trkpt>
      <trkpt lat="43.57257" lon="6.63585">
        <ele>201.619324</ele>
        <time>2011-02-12T10:17:52Z</time>
      </trkpt>
      <trkpt lat="43.57281" lon="6.63563">
        <ele>201.077866</ele>
        <time>2011-02-12T10:18:05Z</time>
      </trkpt>
      <trkpt lat="43.573" lon="6.63542">
        <ele>201.746323</ele>
        <time>2011-02-12T10:18:17Z</time>
      </trkpt>
      <trkpt lat="43.57306" lon="6.63527">
        <ele>201.830612</ele>
        <time>2011-02-12T10:18:23Z</time>
      </trkpt>
      <trkpt lat="43.57322" lon="6.63508">
        <ele>201.223907</ele>
        <time>2011-02-12T10:18:34Z</time>
      </trkpt>
      <trkpt lat="43.57324" lon="6.63497">
        <ele>201.690231</ele>
        <time>2011-02-12T10:18:40Z</time>
      </trkpt>
      <trkpt lat="43.57326" lon="6.63469">
        <ele>203.731567</ele>
        <time>2011-02-12T10:19:12Z</time>
      </trkpt>
      <trkpt lat="43.57328" lon="6.63467">
        <ele>203.87999</ele>
        <time>2011-02-12T10:19:16Z</time>
      </trkpt>
      <trkpt lat="43.57324" lon="6.6346">
        <ele>204.374878</ele>
        <time>2011-02-12T10:19:22Z</time>
      </trkpt>
      <trkpt lat="43.57324" lon="6.63452">
        <ele>205.028671</ele>
        <time>2011-02-12T10:19:28Z</time>
      </trkpt>
      <trkpt lat="43.57322" lon="6.63435">
        <ele>206.477203</ele>
        <time>2011-02-12T10:19:37Z</time>
      </trkpt>
      <trkpt lat="43.57319" lon="6.63426">
        <ele>207.382492</ele>
        <time>2011-02-12T10:19:41Z</time>
      </trkpt>
      <trkpt lat="43.57311" lon="6.63407">
        <ele>209.767609</ele>
        <time>2011-02-12T10:19:52Z</time>
      </trkpt>
      <trkpt lat="43.57309" lon="6.63403">
        <ele>210.267532</ele>
        <time>2011-02-12T10:19:57Z</time>
      </trkpt>
      <trkpt lat="43.57309" lon="6.63403">
        <ele>210.267532</ele>
        <time>2011-02-12T10:19:58Z</time>
      </trkpt>
      <trkpt lat="43.57306" lon="6.63403">
        <ele>210.456558</ele>
        <time>2011-02-12T10:20:35Z</time>
      </trkpt>
      <trkpt lat="43.57302" lon="6.63396">
        <ele>211.242035</ele>
        <time>2011-02-12T10:20:41Z</time>
      </trkpt>
      <trkpt lat="43.57296" lon="6.63381">
        <ele>212.601425</ele>
        <time>2011-02-12T10:20:53Z</time>
      </trkpt>
      <trkpt lat="43.57289" lon="6.63364">
        <ele>213.633102</ele>
        <time>2011-02-12T10:21:04Z</time>
      </trkpt>
      <trkpt lat="43.57283" lon="6.63355">
        <ele>214.157898</ele>
        <time>2011-02-12T10:21:10Z</time>
      </trkpt>
      <trkpt lat="43.57279" lon="6.63347">
        <ele>214.548157</ele>
        <time>2011-02-12T10:21:16Z</time>
      </trkpt>
      <trkpt lat="43.57268" lon="6.63338">
        <ele>216.04837</ele>
        <time>2011-02-12T10:21:24Z</time>
      </trkpt>
      <trkpt lat="43.57261" lon="6.63334">
        <ele>216.834442</ele>
        <time>2011-02-12T10:21:29Z</time>
      </trkpt>
      <trkpt lat="43.57242" lon="6.6331">
        <ele>218.428467</ele>
        <time>2011-02-12T10:21:51Z</time>
      </trkpt>
      <trkpt lat="43.5724" lon="6.63308">
        <ele>218.63356</ele>
        <time>2011-02-12T10:21:53Z</time>
      </trkpt>
      <trkpt lat="43.57231" lon="6.63304">
        <ele>220.240189</ele>
        <time>2011-02-12T10:21:59Z</time>
      </trkpt>
      <trkpt lat="43.57227" lon="6.63302">
        <ele>221.423584</ele>
        <time>2011-02-12T10:22:04Z</time>
      </trkpt>
      <trkpt lat="43.57219" lon="6.63297">
        <ele>223.704468</ele>
        <time>2011-02-12T10:22:10Z</time>
      </trkpt>
      <trkpt lat="43.57212" lon="6.63297">
        <ele>225.445282</ele>
        <time>2011-02-12T10:22:16Z</time>
      </trkpt>
      <trkpt lat="43.57208" lon="6.63291">
        <ele>226.350479</ele>
        <time>2011-02-12T10:22:20Z</time>
      </trkpt>
      <trkpt lat="43.57206" lon="6.63291">
        <ele>226.911011</ele>
        <time>2011-02-12T10:22:21Z</time>
      </trkpt>
      <trkpt lat="43.57203" lon="6.63287">
        <ele>227.262161</ele>
        <time>2011-02-12T10:22:24Z</time>
      </trkpt>
      <trkpt lat="43.57199" lon="6.63282">
        <ele>228.11026</ele>
        <time>2011-02-12T10:22:29Z</time>
      </trkpt>
      <trkpt lat="43.57188" lon="6.63274">
        <ele>230.023178</ele>
        <time>2011-02-12T10:22:37Z</time>
      </trkpt>
      <trkpt lat="43.57178" lon="6.63267">
        <ele>231.843475</ele>
        <time>2011-02-12T10:22:47Z</time>
      </trkpt>
      <trkpt lat="43.57171" lon="6.63265">
        <ele>233.076721</ele>
        <time>2011-02-12T10:22:53Z</time>
      </trkpt>
      <trkpt lat="43.57165" lon="6.63263">
        <ele>234.325531</ele>
        <time>2011-02-12T10:22:58Z</time>
      </trkpt>
      <trkpt lat="43.57154" lon="6.63263">
        <ele>236.602005</ele>
        <time>2011-02-12T10:23:05Z</time>
      </trkpt>
      <trkpt lat="43.57148" lon="6.63263">
        <ele>237.961914</ele>
        <time>2011-02-12T10:23:11Z</time>
      </trkpt>
      <trkpt lat="43.57133" lon="6.63263">
        <ele>239.453186</ele>
        <time>2011-02-12T10:23:23Z</time>
      </trkpt>
      <trkpt lat="43.57128" lon="6.63265">
        <ele>239.883713</ele>
        <time>2011-02-12T10:23:28Z</time>
      </trkpt>
      <trkpt lat="43.57122" lon="6.63263">
        <ele>240.463013</ele>
        <time>2011-02-12T10:23:34Z</time>
      </trkpt>
      <trkpt lat="43.57111" lon="6.63254">
        <ele>241.62056</ele>
        <time>2011-02-12T10:23:46Z</time>
      </trkpt>
      <trkpt lat="43.57105" lon="6.63254">
        <ele>242.291748</ele>
        <time>2011-02-12T10:23:52Z</time>
      </trkpt>
      <trkpt lat="43.57079" lon="6.63231">
        <ele>245.93306</ele>
        <time>2011-02-12T10:24:17Z</time>
      </trkpt>
      <trkpt lat="43.57077" lon="6.63231">
        <ele>246.090637</ele>
        <time>2011-02-12T10:24:18Z</time>
      </trkpt>
      <trkpt lat="43.57075" lon="6.63229">
        <ele>246.500778</ele>
        <time>2011-02-12T10:24:22Z</time>
      </trkpt>
      <trkpt lat="43.57064" lon="6.63214">
        <ele>248.857544</ele>
        <time>2011-02-12T10:24:34Z</time>
      </trkpt>
      <trkpt lat="43.57062" lon="6.63205">
        <ele>249.854446</ele>
        <time>2011-02-12T10:24:41Z</time>
      </trkpt>
      <trkpt lat="43.5706" lon="6.63199">
        <ele>250.540588</ele>
        <time>2011-02-12T10:24:46Z</time>
      </trkpt>
      <trkpt lat="43.5706" lon="6.63194">
        <ele>250.930283</ele>
        <time>2011-02-12T10:24:49Z</time>
      </trkpt>
      <trkpt lat="43.57053" lon="6.63188">
        <ele>250.489349</ele>
        <time>2011-02-12T10:24:54Z</time>
      </trkpt>
      <trkpt lat="43.57034" lon="6.63182">
        <ele>247.771988</ele>
        <time>2011-02-12T10:25:04Z</time>
      </trkpt>
      <trkpt lat="43.57032" lon="6.63162">
        <ele>248.194275</ele>
        <time>2011-02-12T10:25:08Z</time>
      </trkpt>
      <trkpt lat="43.57034" lon="6.63109">
        <ele>250.753723</ele>
        <time>2011-02-12T10:25:17Z</time>
      </trkpt>
      <trkpt lat="43.57038" lon="6.63087">
        <ele>251.322723</ele>
        <time>2011-02-12T10:25:20Z</time>
      </trkpt>
      <trkpt lat="43.5703" lon="6.63049">
        <ele>247.526917</ele>
        <time>2011-02-12T10:25:27Z</time>
      </trkpt>
      <trkpt lat="43.57032" lon="6.63016">
        <ele>250.092224</ele>
        <time>2011-02-12T10:25:35Z</time>
      </trkpt>
      <trkpt lat="43.57036" lon="6.62997">
        <ele>252.431946</ele>
        <time>2011-02-12T10:25:40Z</time>
      </trkpt>
      <trkpt lat="43.57043" lon="6.62971">
        <ele>256.216003</ele>
        <time>2011-02-12T10:25:46Z</time>
      </trkpt>
      <trkpt lat="43.57023" lon="6.62933">
        <ele>256.599243</ele>
        <time>2011-02-12T10:25:55Z</time>
      </trkpt>
      <trkpt lat="43.57013" lon="6.62952">
        <ele>253.113663</ele>
        <time>2011-02-12T10:26:02Z</time>
      </trkpt>
      <trkpt lat="43.57006" lon="6.62971">
        <ele>250.051208</ele>
        <time>2011-02-12T10:26:11Z</time>
      </trkpt>
      <trkpt lat="43.57002" lon="6.6298">
        <ele>248.549072</ele>
        <time>2011-02-12T10:26:16Z</time>
      </trkpt>
      <trkpt lat="43.56989" lon="6.62993">
        <ele>246.268204</ele>
        <time>2011-02-12T10:26:23Z</time>
      </trkpt>
      <trkpt lat="43.56985" lon="6.63003">
        <ele>245.197189</ele>
        <time>2011-02-12T10:26:27Z</time>
      </trkpt>
      <trkpt lat="43.56985" lon="6.63006">
        <ele>245.060135</ele>
        <time>2011-02-12T10:26:28Z</time>
      </trkpt>
      <trkpt lat="43.56982" lon="6.63021">
        <ele>243.924942</ele>
        <time>2011-02-12T10:26:34Z</time>
      </trkpt>
      <trkpt lat="43.56978" lon="6.63006">
        <ele>244.510208</ele>
        <time>2011-02-12T10:26:41Z</time>
      </trkpt>
      <trkpt lat="43.5698" lon="6.62984">
        <ele>246.025085</ele>
        <time>2011-02-12T10:26:50Z</time>
      </trkpt>
      <trkpt lat="43.56982" lon="6.62978">
        <ele>246.914749</ele>
        <time>2011-02-12T10:26:53Z</time>
      </trkpt>
      <trkpt lat="43.56982" lon="6.62967">
        <ele>248.263519</ele>
        <time>2011-02-12T10:26:58Z</time>
      </trkpt>
      <trkpt lat="43.56985" lon="6.62954">
        <ele>250.093597</ele>
        <time>2011-02-12T10:27:04Z</time>
      </trkpt>
      <trkpt lat="43.56985" lon="6.62943">
        <ele>251.442352</ele>
        <time>2011-02-12T10:27:10Z</time>
      </trkpt>
      <trkpt lat="43.56989" lon="6.62926">
        <ele>254.023499</ele>
        <time>2011-02-12T10:27:18Z</time>
      </trkpt>
      <trkpt lat="43.56993" lon="6.62913">
        <ele>255.958511</ele>
        <time>2011-02-12T10:27:23Z</time>
      </trkpt>
      <trkpt lat="43.57002" lon="6.62877">
        <ele>260.079315</ele>
        <time>2011-02-12T10:27:40Z</time>
      </trkpt>
      <trkpt lat="43.57013" lon="6.62853">
        <ele>262.003662</ele>
        <time>2011-02-12T10:27:53Z</time>
      </trkpt>
      <trkpt lat="43.57019" lon="6.6284">
        <ele>263.301636</ele>
        <time>2011-02-12T10:28:00Z</time>
      </trkpt>
      <trkpt lat="43.57038" lon="6.62812">
        <ele>267.812286</ele>
        <time>2011-02-12T10:28:17Z</time>
      </trkpt>
      <trkpt lat="43.57045" lon="6.62806">
        <ele>269.641388</ele>
        <time>2011-02-12T10:28:22Z</time>
      </trkpt>
      <trkpt lat="43.57053" lon="6.628">
        <ele>271.834869</ele>
        <time>2011-02-12T10:28:28Z</time>
      </trkpt>
      <trkpt lat="43.57058" lon="6.6281">
        <ele>271.405365</ele>
        <time>2011-02-12T10:28:32Z</time>
      </trkpt>
      <trkpt lat="43.5706" lon="6.62815">
        <ele>271.383057</ele>
        <time>2011-02-12T10:28:34Z</time>
      </trkpt>
      <trkpt lat="43.5706" lon="6.62821">
        <ele>270.800079</ele>
        <time>2011-02-12T10:28:37Z</time>
      </trkpt>
      <trkpt lat="43.57062" lon="6.62827">
        <ele>270.627747</ele>
        <time>2011-02-12T10:28:40Z</time>
      </trkpt>
      <trkpt lat="43.57062" lon="6.62843">
        <ele>269.324127</ele>
        <time>2011-02-12T10:28:47Z</time>
      </trkpt>
      <trkpt lat="43.57068" lon="6.62879">
        <ele>268.15094</ele>
        <time>2011-02-12T10:29:04Z</time>
      </trkpt>
      <trkpt lat="43.5707" lon="6.62892">
        <ele>267.909119</ele>
        <time>2011-02-12T10:29:10Z</time>
      </trkpt>
      <trkpt lat="43.57073" lon="6.62907">
        <ele>267.567566</ele>
        <time>2011-02-12T10:29:17Z</time>
      </trkpt>
      <trkpt lat="43.57077" lon="6.62918">
        <ele>268.153076</ele>
        <time>2011-02-12T10:29:23Z</time>
      </trkpt>
      <trkpt lat="43.57083" lon="6.62928">
        <ele>269.316315</ele>
        <time>2011-02-12T10:29:29Z</time>
      </trkpt>
      <trkpt lat="43.57098" lon="6.62943">
        <ele>272.501129</ele>
        <time>2011-02-12T10:29:41Z</time>
      </trkpt>
      <trkpt lat="43.57107" lon="6.62956">
        <ele>274.14859</ele>
        <time>2011-02-12T10:29:49Z</time>
      </trkpt>
      <trkpt lat="43.57111" lon="6.62961">
        <ele>275.11969</ele>
        <time>2011-02-12T10:29:51Z</time>
      </trkpt>
      <trkpt lat="43.57139" lon="6.63006">
        <ele>276.180328</ele>
        <time>2011-02-12T10:30:16Z</time>
      </trkpt>
      <trkpt lat="43.57148" lon="6.63016">
        <ele>276.072815</ele>
        <time>2011-02-12T10:30:23Z</time>
      </trkpt>
      <trkpt lat="43.57154" lon="6.63023">
        <ele>276.104034</ele>
        <time>2011-02-12T10:30:28Z</time>
      </trkpt>
      <trkpt lat="43.57154" lon="6.63006">
        <ele>278.201141</ele>
        <time>2011-02-12T10:30:36Z</time>
      </trkpt>
      <trkpt lat="43.57154" lon="6.62999">
        <ele>278.983215</ele>
        <time>2011-02-12T10:30:39Z</time>
      </trkpt>
      <trkpt lat="43.57154" lon="6.62997">
        <ele>279.243378</ele>
        <time>2011-02-12T10:30:40Z</time>
      </trkpt>
      <trkpt lat="43.57154" lon="6.62967">
        <ele>279.92926</ele>
        <time>2011-02-12T10:30:55Z</time>
      </trkpt>
      <trkpt lat="43.57154" lon="6.62958">
        <ele>280.08316</ele>
        <time>2011-02-12T10:30:59Z</time>
      </trkpt>
      <trkpt lat="43.57154" lon="6.6295">
        <ele>280.243378</ele>
        <time>2011-02-12T10:31:04Z</time>
      </trkpt>
      <trkpt lat="43.57154" lon="6.62939">
        <ele>280.452545</ele>
        <time>2011-02-12T10:31:11Z</time>
      </trkpt>
      <trkpt lat="43.57152" lon="6.62928">
        <ele>280.720886</ele>
        <time>2011-02-12T10:31:16Z</time>
      </trkpt>
      <trkpt lat="43.57154" lon="6.62918">
        <ele>281.539246</ele>
        <time>2011-02-12T10:31:23Z</time>
      </trkpt>
      <trkpt lat="43.57156" lon="6.62905">
        <ele>282.49057</ele>
        <time>2011-02-12T10:31:29Z</time>
      </trkpt>
      <trkpt lat="43.57156" lon="6.62896">
        <ele>283.022491</ele>
        <time>2011-02-12T10:31:34Z</time>
      </trkpt>
      <trkpt lat="43.57158" lon="6.62885">
        <ele>283.84082</ele>
        <time>2011-02-12T10:31:40Z</time>
      </trkpt>
      <trkpt lat="43.57161" lon="6.62875">
        <ele>284.65918</ele>
        <time>2011-02-12T10:31:46Z</time>
      </trkpt>
      <trkpt lat="43.57178" lon="6.6283">
        <ele>286.39328</ele>
        <time>2011-02-12T10:32:05Z</time>
      </trkpt>
      <trkpt lat="43.5718" lon="6.62825">
        <ele>286.538269</ele>
        <time>2011-02-12T10:32:07Z</time>
      </trkpt>
      <trkpt lat="43.57182" lon="6.62819">
        <ele>286.888397</ele>
        <time>2011-02-12T10:32:10Z</time>
      </trkpt>
      <trkpt lat="43.57186" lon="6.6281">
        <ele>287.231445</ele>
        <time>2011-02-12T10:32:13Z</time>
      </trkpt>
      <trkpt lat="43.57193" lon="6.62795">
        <ele>287.668701</ele>
        <time>2011-02-12T10:32:19Z</time>
      </trkpt>
      <trkpt lat="43.57197" lon="6.62772">
        <ele>288.979431</ele>
        <time>2011-02-12T10:32:28Z</time>
      </trkpt>
      <trkpt lat="43.57221" lon="6.6272">
        <ele>291.294067</ele>
        <time>2011-02-12T10:32:52Z</time>
      </trkpt>
      <trkpt lat="43.57225" lon="6.62707">
        <ele>291.838104</ele>
        <time>2011-02-12T10:32:58Z</time>
      </trkpt>
      <trkpt lat="43.57231" lon="6.62662">
        <ele>290.622101</ele>
        <time>2011-02-12T10:33:16Z</time>
      </trkpt>
      <trkpt lat="43.57238" lon="6.62649">
        <ele>289.613434</ele>
        <time>2011-02-12T10:33:20Z</time>
      </trkpt>
      <trkpt lat="43.57257" lon="6.62613">
        <ele>287.796844</ele>
        <time>2011-02-12T10:33:28Z</time>
      </trkpt>
      <trkpt lat="43.57274" lon="6.62572">
        <ele>286.035706</ele>
        <time>2011-02-12T10:33:35Z</time>
      </trkpt>
      <trkpt lat="43.57268" lon="6.62553">
        <ele>285.189301</ele>
        <time>2011-02-12T10:33:39Z</time>
      </trkpt>
      <trkpt lat="43.57253" lon="6.62559">
        <ele>283.79715</ele>
        <time>2011-02-12T10:33:43Z</time>
      </trkpt>
      <trkpt lat="43.57249" lon="6.62564">
        <ele>283.653351</ele>
        <time>2011-02-12T10:33:44Z</time>
      </trkpt>
      <trkpt lat="43.57216" lon="6.62602">
        <ele>284.64563</ele>
        <time>2011-02-12T10:33:52Z</time>
      </trkpt>
      <trkpt lat="43.57208" lon="6.62615">
        <ele>284.661621</ele>
        <time>2011-02-12T10:33:54Z</time>
      </trkpt>
      <trkpt lat="43.57182" lon="6.62647">
        <ele>283.626434</ele>
        <time>2011-02-12T10:33:59Z</time>
      </trkpt>
      <trkpt lat="43.57176" lon="6.62652">
        <ele>283.073547</ele>
        <time>2011-02-12T10:34:00Z</time>
      </trkpt>
      <trkpt lat="43.57156" lon="6.62673">
        <ele>284.636414</ele>
        <time>2011-02-12T10:34:04Z</time>
      </trkpt>
      <trkpt lat="43.57163" lon="6.62626">
        <ele>279.38324</ele>
        <time>2011-02-12T10:34:11Z</time>
      </trkpt>
      <trkpt lat="43.57167" lon="6.62598">
        <ele>278.052246</ele>
        <time>2011-02-12T10:34:14Z</time>
      </trkpt>
      <trkpt lat="43.57167" lon="6.62566">
        <ele>276.841003</ele>
        <time>2011-02-12T10:34:17Z</time>
      </trkpt>
      <trkpt lat="43.57133" lon="6.62501">
        <ele>269.533234</ele>
        <time>2011-02-12T10:34:24Z</time>
      </trkpt>
      <trkpt lat="43.57126" lon="6.62497">
        <ele>269.169556</ele>
        <time>2011-02-12T10:34:25Z</time>
      </trkpt>
      <trkpt lat="43.57113" lon="6.62484">
        <ele>268.10965</ele>
        <time>2011-02-12T10:34:27Z</time>
      </trkpt>
      <trkpt lat="43.57094" lon="6.62461">
        <ele>266.669556</ele>
        <time>2011-02-12T10:34:30Z</time>
      </trkpt>
      <trkpt lat="43.57085" lon="6.62446">
        <ele>265.250946</ele>
        <time>2011-02-12T10:34:32Z</time>
      </trkpt>
      <trkpt lat="43.57066" lon="6.62456">
        <ele>265.976837</ele>
        <time>2011-02-12T10:34:37Z</time>
      </trkpt>
      <trkpt lat="43.57053" lon="6.62471">
        <ele>267.553101</ele>
        <time>2011-02-12T10:34:40Z</time>
      </trkpt>
      <trkpt lat="43.57047" lon="6.62467">
        <ele>266.867859</ele>
        <time>2011-02-12T10:34:41Z</time>
      </trkpt>
      <trkpt lat="43.57036" lon="6.62458">
        <ele>265.125183</ele>
        <time>2011-02-12T10:34:43Z</time>
      </trkpt>
      <trkpt lat="43.57025" lon="6.62448">
        <ele>262.898895</ele>
        <time>2011-02-12T10:34:45Z</time>
      </trkpt>
      <trkpt lat="43.56989" lon="6.62452">
        <ele>260.356842</ele>
        <time>2011-02-12T10:34:51Z</time>
      </trkpt>
      <trkpt lat="43.56976" lon="6.62456">
        <ele>259.474213</ele>
        <time>2011-02-12T10:34:53Z</time>
      </trkpt>
      <trkpt lat="43.56952" lon="6.62456">
        <ele>256.645142</ele>
        <time>2011-02-12T10:34:56Z</time>
      </trkpt>
      <trkpt lat="43.56912" lon="6.6245">
        <ele>250.6427</ele>
        <time>2011-02-12T10:35:01Z</time>
      </trkpt>
      <trkpt lat="43.56875" lon="6.62435">
        <ele>245.874939</ele>
        <time>2011-02-12T10:35:06Z</time>
      </trkpt>
      <trkpt lat="43.5686" lon="6.62428">
        <ele>244.879059</ele>
        <time>2011-02-12T10:35:08Z</time>
      </trkpt>
      <trkpt lat="43.56845" lon="6.62424">
        <ele>244.658295</ele>
        <time>2011-02-12T10:35:10Z</time>
      </trkpt>
      <trkpt lat="43.56852" lon="6.62446">
        <ele>244.276886</ele>
        <time>2011-02-12T10:35:15Z</time>
      </trkpt>
      <trkpt lat="43.56856" lon="6.62463">
        <ele>244.293579</ele>
        <time>2011-02-12T10:35:18Z</time>
      </trkpt>
      <trkpt lat="43.56858" lon="6.62527">
        <ele>241.35643</ele>
        <time>2011-02-12T10:35:29Z</time>
      </trkpt>
      <trkpt lat="43.56869" lon="6.62559">
        <ele>241.895172</ele>
        <time>2011-02-12T10:35:33Z</time>
      </trkpt>
      <trkpt lat="43.56877" lon="6.62581">
        <ele>242.380951</ele>
        <time>2011-02-12T10:35:36Z</time>
      </trkpt>
      <trkpt lat="43.56882" lon="6.62606">
        <ele>241.82608</ele>
        <time>2011-02-12T10:35:40Z</time>
      </trkpt>
      <trkpt lat="43.56884" lon="6.62619">
        <ele>243.240555</ele>
        <time>2011-02-12T10:35:43Z</time>
      </trkpt>
      <trkpt lat="43.56882" lon="6.62647">
        <ele>243.755081</ele>
        <time>2011-02-12T10:35:52Z</time>
      </trkpt>
      <trkpt lat="43.56882" lon="6.62667">
        <ele>244.633972</ele>
        <time>2011-02-12T10:35:59Z</time>
      </trkpt>
      <trkpt lat="43.56879" lon="6.62677">
        <ele>244.068329</ele>
        <time>2011-02-12T10:36:04Z</time>
      </trkpt>
      <trkpt lat="43.56875" lon="6.62692">
        <ele>242.826294</ele>
        <time>2011-02-12T10:36:10Z</time>
      </trkpt>
      <trkpt lat="43.56879" lon="6.62701">
        <ele>244.590454</ele>
        <time>2011-02-12T10:36:13Z</time>
      </trkpt>
      <trkpt lat="43.56882" lon="6.62709">
        <ele>245.55162</ele>
        <time>2011-02-12T10:36:16Z</time>
      </trkpt>
      <trkpt lat="43.56884" lon="6.62712">
        <ele>246.36998</ele>
        <time>2011-02-12T10:36:17Z</time>
      </trkpt>
      <trkpt lat="43.56886" lon="6.62718">
        <ele>247.266922</ele>
        <time>2011-02-12T10:36:20Z</time>
      </trkpt>
      <trkpt lat="43.56886" lon="6.6272">
        <ele>247.307617</ele>
        <time>2011-02-12T10:36:21Z</time>
      </trkpt>
      <trkpt lat="43.56886" lon="6.62729">
        <ele>247.488098</ele>
        <time>2011-02-12T10:36:24Z</time>
      </trkpt>
      <trkpt lat="43.56888" lon="6.6274">
        <ele>248.551987</ele>
        <time>2011-02-12T10:36:28Z</time>
      </trkpt>
      <trkpt lat="43.5689" lon="6.62755">
        <ele>249.63884</ele>
        <time>2011-02-12T10:36:34Z</time>
      </trkpt>
      <trkpt lat="43.56892" lon="6.62774">
        <ele>250.687012</ele>
        <time>2011-02-12T10:36:40Z</time>
      </trkpt>
      <trkpt lat="43.56897" lon="6.62791">
        <ele>251.916122</ele>
        <time>2011-02-12T10:36:46Z</time>
      </trkpt>
      <trkpt lat="43.5691" lon="6.62834">
        <ele>247.362198</ele>
        <time>2011-02-12T10:36:59Z</time>
      </trkpt>
      <trkpt lat="43.56918" lon="6.62851">
        <ele>247.016586</ele>
        <time>2011-02-12T10:37:04Z</time>
      </trkpt>
      <trkpt lat="43.56927" lon="6.6286">
        <ele>248.118134</ele>
        <time>2011-02-12T10:37:07Z</time>
      </trkpt>
      <trkpt lat="43.56931" lon="6.62866">
        <ele>248.297775</ele>
        <time>2011-02-12T10:37:09Z</time>
      </trkpt>
      <trkpt lat="43.5694" lon="6.62879">
        <ele>248.849442</ele>
        <time>2011-02-12T10:37:12Z</time>
      </trkpt>
      <trkpt lat="43.56948" lon="6.629">
        <ele>247.405441</ele>
        <time>2011-02-12T10:37:17Z</time>
      </trkpt>
      <trkpt lat="43.56952" lon="6.62915">
        <ele>246.132782</ele>
        <time>2011-02-12T10:37:21Z</time>
      </trkpt>
      <trkpt lat="43.56952" lon="6.62918">
        <ele>245.778732</ele>
        <time>2011-02-12T10:37:22Z</time>
      </trkpt>
      <trkpt lat="43.56957" lon="6.62943">
        <ele>245.474777</ele>
        <time>2011-02-12T10:37:29Z</time>
      </trkpt>
      <trkpt lat="43.56957" lon="6.62976">
        <ele>243.396149</ele>
        <time>2011-02-12T10:37:38Z</time>
      </trkpt>
      <trkpt lat="43.56955" lon="6.62988">
        <ele>242.717468</ele>
        <time>2011-02-12T10:37:42Z</time>
      </trkpt>
      <trkpt lat="43.56955" lon="6.62999">
        <ele>242.613312</ele>
        <time>2011-02-12T10:37:45Z</time>
      </trkpt>
      <trkpt lat="43.56955" lon="6.63003">
        <ele>242.566116</ele>
        <time>2011-02-12T10:37:46Z</time>
      </trkpt>
      <trkpt lat="43.56957" lon="6.63012">
        <ele>242.604248</ele>
        <time>2011-02-12T10:37:49Z</time>
      </trkpt>
      <trkpt lat="43.56961" lon="6.63066">
        <ele>241.489502</ele>
        <time>2011-02-12T10:38:04Z</time>
      </trkpt>
      <trkpt lat="43.56957" lon="6.63121">
        <ele>240.726852</ele>
        <time>2011-02-12T10:38:16Z</time>
      </trkpt>
      <trkpt lat="43.56955" lon="6.63136">
        <ele>240.79567</ele>
        <time>2011-02-12T10:38:19Z</time>
      </trkpt>
      <trkpt lat="43.56946" lon="6.63171">
        <ele>240.974884</ele>
        <time>2011-02-12T10:38:26Z</time>
      </trkpt>
      <trkpt lat="43.5694" lon="6.63201">
        <ele>240.371399</ele>
        <time>2011-02-12T10:38:32Z</time>
      </trkpt>
      <trkpt lat="43.56918" lon="6.63267">
        <ele>234.616364</ele>
        <time>2011-02-12T10:38:45Z</time>
      </trkpt>
      <trkpt lat="43.56914" lon="6.6328">
        <ele>232.513611</ele>
        <time>2011-02-12T10:38:47Z</time>
      </trkpt>
      <trkpt lat="43.56864" lon="6.6339">
        <ele>225.026688</ele>
        <time>2011-02-12T10:39:01Z</time>
      </trkpt>
      <trkpt lat="43.56858" lon="6.63407">
        <ele>227.180145</ele>
        <time>2011-02-12T10:39:07Z</time>
      </trkpt>
      <trkpt lat="43.56854" lon="6.63415">
        <ele>228.541534</ele>
        <time>2011-02-12T10:39:10Z</time>
      </trkpt>
      <trkpt lat="43.56852" lon="6.6342">
        <ele>229.297989</ele>
        <time>2011-02-12T10:39:12Z</time>
      </trkpt>
      <trkpt lat="43.56849" lon="6.63428">
        <ele>230.472107</ele>
        <time>2011-02-12T10:39:16Z</time>
      </trkpt>
      <trkpt lat="43.56841" lon="6.63443">
        <ele>234.066437</ele>
        <time>2011-02-12T10:39:22Z</time>
      </trkpt>
      <trkpt lat="43.56839" lon="6.63456">
        <ele>236.084473</ele>
        <time>2011-02-12T10:39:28Z</time>
      </trkpt>
      <trkpt lat="43.56834" lon="6.63471">
        <ele>237.81662</ele>
        <time>2011-02-12T10:39:35Z</time>
      </trkpt>
      <trkpt lat="43.56828" lon="6.63484">
        <ele>237.653625</ele>
        <time>2011-02-12T10:39:41Z</time>
      </trkpt>
      <trkpt lat="43.56811" lon="6.63506">
        <ele>238.641144</ele>
        <time>2011-02-12T10:39:53Z</time>
      </trkpt>
      <trkpt lat="43.56761" lon="6.63559">
        <ele>244.85022</ele>
        <time>2011-02-12T10:40:23Z</time>
      </trkpt>
      <trkpt lat="43.56725" lon="6.63617">
        <ele>243.814606</ele>
        <time>2011-02-12T10:40:43Z</time>
      </trkpt>
      <trkpt lat="43.56701" lon="6.63656">
        <ele>237.608063</ele>
        <time>2011-02-12T10:40:52Z</time>
      </trkpt>
      <trkpt lat="43.56686" lon="6.63692">
        <ele>237.542618</ele>
        <time>2011-02-12T10:40:58Z</time>
      </trkpt>
      <trkpt lat="43.56676" lon="6.63722">
        <ele>235.528992</ele>
        <time>2011-02-12T10:41:01Z</time>
      </trkpt>
      <trkpt lat="43.56671" lon="6.63754">
        <ele>232.910095</ele>
        <time>2011-02-12T10:41:04Z</time>
      </trkpt>
      <trkpt lat="43.56667" lon="6.63787">
        <ele>230.466309</ele>
        <time>2011-02-12T10:41:07Z</time>
      </trkpt>
      <trkpt lat="43.56658" lon="6.63812">
        <ele>228.187485</ele>
        <time>2011-02-12T10:41:10Z</time>
      </trkpt>
      <trkpt lat="43.56646" lon="6.6384">
        <ele>226.53624</ele>
        <time>2011-02-12T10:41:14Z</time>
      </trkpt>
      <trkpt lat="43.56631" lon="6.63857">
        <ele>226.653915</ele>
        <time>2011-02-12T10:41:18Z</time>
      </trkpt>
      <trkpt lat="43.56626" lon="6.63857">
        <ele>226.335815</ele>
        <time>2011-02-12T10:41:19Z</time>
      </trkpt>
      <trkpt lat="43.56613" lon="6.63853">
        <ele>224.020081</ele>
        <time>2011-02-12T10:41:22Z</time>
      </trkpt>
      <trkpt lat="43.56609" lon="6.63855">
        <ele>223.574097</ele>
        <time>2011-02-12T10:41:23Z</time>
      </trkpt>
      <trkpt lat="43.56603" lon="6.63855">
        <ele>222.616379</ele>
        <time>2011-02-12T10:41:24Z</time>
      </trkpt>
      <trkpt lat="43.56583" lon="6.63857">
        <ele>220.162766</ele>
        <time>2011-02-12T10:41:28Z</time>
      </trkpt>
      <trkpt lat="43.56568" lon="6.63868">
        <ele>218.360947</ele>
        <time>2011-02-12T10:41:31Z</time>
      </trkpt>
      <trkpt lat="43.5654" lon="6.63905">
        <ele>213.731903</ele>
        <time>2011-02-12T10:41:39Z</time>
      </trkpt>
      <trkpt lat="43.56536" lon="6.63909">
        <ele>212.816727</ele>
        <time>2011-02-12T10:41:40Z</time>
      </trkpt>
      <trkpt lat="43.56534" lon="6.63913">
        <ele>212.180161</ele>
        <time>2011-02-12T10:41:41Z</time>
      </trkpt>
      <trkpt lat="43.5653" lon="6.63941">
        <ele>211.72789</ele>
        <time>2011-02-12T10:41:45Z</time>
      </trkpt>
      <trkpt lat="43.56519" lon="6.6398">
        <ele>207.682831</ele>
        <time>2011-02-12T10:41:51Z</time>
      </trkpt>
      <trkpt lat="43.5651" lon="6.6401">
        <ele>204.098068</ele>
        <time>2011-02-12T10:41:56Z</time>
      </trkpt>
      <trkpt lat="43.56506" lon="6.64023">
        <ele>201.39624</ele>
        <time>2011-02-12T10:41:58Z</time>
      </trkpt>
      <trkpt lat="43.5648" lon="6.64025">
        <ele>197.726425</ele>
        <time>2011-02-12T10:42:04Z</time>
      </trkpt>
      <trkpt lat="43.56476" lon="6.64025">
        <ele>196.717529</ele>
        <time>2011-02-12T10:42:05Z</time>
      </trkpt>
      <trkpt lat="43.56467" lon="6.64025">
        <ele>194.723633</ele>
        <time>2011-02-12T10:42:07Z</time>
      </trkpt>
      <trkpt lat="43.56472" lon="6.64051">
        <ele>194.509171</ele>
        <time>2011-02-12T10:42:13Z</time>
      </trkpt>
      <trkpt lat="43.56476" lon="6.64051">
        <ele>195.19368</ele>
        <time>2011-02-12T10:42:14Z</time>
      </trkpt>
      <trkpt lat="43.5648" lon="6.64053">
        <ele>195.725967</ele>
        <time>2011-02-12T10:42:15Z</time>
      </trkpt>
      <trkpt lat="43.56485" lon="6.64055">
        <ele>196.212448</ele>
        <time>2011-02-12T10:42:16Z</time>
      </trkpt>
      <trkpt lat="43.56495" lon="6.64063">
        <ele>194.334351</ele>
        <time>2011-02-12T10:42:18Z</time>
      </trkpt>
      <trkpt lat="43.565" lon="6.64098">
        <ele>184.007217</ele>
        <time>2011-02-12T10:42:23Z</time>
      </trkpt>
      <trkpt lat="43.565" lon="6.64104">
        <ele>182.122772</ele>
        <time>2011-02-12T10:42:24Z</time>
      </trkpt>
      <trkpt lat="43.565" lon="6.64132">
        <ele>179.850952</ele>
        <time>2011-02-12T10:42:29Z</time>
      </trkpt>
      <trkpt lat="43.565" lon="6.64149">
        <ele>184.513168</ele>
        <time>2011-02-12T10:42:32Z</time>
      </trkpt>
      <trkpt lat="43.56498" lon="6.64188">
        <ele>195.169754</ele>
        <time>2011-02-12T10:42:40Z</time>
      </trkpt>
      <trkpt lat="43.56502" lon="6.6419">
        <ele>195.740891</ele>
        <time>2011-02-12T10:42:43Z</time>
      </trkpt>
      <trkpt lat="43.56506" lon="6.64192">
        <ele>196.317764</ele>
        <time>2011-02-12T10:42:45Z</time>
      </trkpt>
      <trkpt lat="43.56521" lon="6.64194">
        <ele>196.400116</ele>
        <time>2011-02-12T10:42:52Z</time>
      </trkpt>
      <trkpt lat="43.5654" lon="6.64199">
        <ele>194.96312</ele>
        <time>2011-02-12T10:42:59Z</time>
      </trkpt>
      <trkpt lat="43.5657" lon="6.64218">
        <ele>193.351685</ele>
        <time>2011-02-12T10:43:10Z</time>
      </trkpt>
      <trkpt lat="43.56577" lon="6.64233">
        <ele>194.161041</ele>
        <time>2011-02-12T10:43:14Z</time>
      </trkpt>
      <trkpt lat="43.56577" lon="6.64246">
        <ele>196.035629</ele>
        <time>2011-02-12T10:43:17Z</time>
      </trkpt>
      <trkpt lat="43.56579" lon="6.64276">
        <ele>198.029419</ele>
        <time>2011-02-12T10:43:24Z</time>
      </trkpt>
      <trkpt lat="43.56592" lon="6.64334">
        <ele>196.190765</ele>
        <time>2011-02-12T10:43:38Z</time>
      </trkpt>
      <trkpt lat="43.56605" lon="6.64366">
        <ele>194.530228</ele>
        <time>2011-02-12T10:43:48Z</time>
      </trkpt>
      <trkpt lat="43.56611" lon="6.64375">
        <ele>193.758728</ele>
        <time>2011-02-12T10:43:52Z</time>
      </trkpt>
      <trkpt lat="43.56631" lon="6.644">
        <ele>194.079132</ele>
        <time>2011-02-12T10:44:00Z</time>
      </trkpt>
      <trkpt lat="43.56643" lon="6.64405">
        <ele>192.656143</ele>
        <time>2011-02-12T10:44:05Z</time>
      </trkpt>
      <trkpt lat="43.56646" lon="6.64407">
        <ele>192.778275</ele>
        <time>2011-02-12T10:44:07Z</time>
      </trkpt>
      <trkpt lat="43.56665" lon="6.64428">
        <ele>194.120148</ele>
        <time>2011-02-12T10:44:20Z</time>
      </trkpt>
      <trkpt lat="43.56714" lon="6.64488">
        <ele>197.511017</ele>
        <time>2011-02-12T10:44:42Z</time>
      </trkpt>
      <trkpt lat="43.56725" lon="6.64497">
        <ele>197.535172</ele>
        <time>2011-02-12T10:44:46Z</time>
      </trkpt>
      <trkpt lat="43.56789" lon="6.64538">
        <ele>189.168762</ele>
        <time>2011-02-12T10:45:10Z</time>
      </trkpt>
      <trkpt lat="43.56798" lon="6.64553">
        <ele>190.230881</ele>
        <time>2011-02-12T10:45:14Z</time>
      </trkpt>
      <trkpt lat="43.56817" lon="6.64628">
        <ele>188.42923</ele>
        <time>2011-02-12T10:45:32Z</time>
      </trkpt>
      <trkpt lat="43.56822" lon="6.64711">
        <ele>197.313187</ele>
        <time>2011-02-12T10:45:53Z</time>
      </trkpt>
      <trkpt lat="43.56828" lon="6.64793">
        <ele>200.778915</ele>
        <time>2011-02-12T10:46:17Z</time>
      </trkpt>
      <trkpt lat="43.56864" lon="6.64838">
        <ele>199.160629</ele>
        <time>2011-02-12T10:46:30Z</time>
      </trkpt>
      <trkpt lat="43.56862" lon="6.64845">
        <ele>198.844482</ele>
        <time>2011-02-12T10:46:32Z</time>
      </trkpt>
      <trkpt lat="43.56864" lon="6.6486">
        <ele>199.606064</ele>
        <time>2011-02-12T10:46:37Z</time>
      </trkpt>
      <trkpt lat="43.56871" lon="6.64883">
        <ele>201.248199</ele>
        <time>2011-02-12T10:46:45Z</time>
      </trkpt>
      <trkpt lat="43.56877" lon="6.64898">
        <ele>202.816315</ele>
        <time>2011-02-12T10:46:51Z</time>
      </trkpt>
      <trkpt lat="43.56882" lon="6.64907">
        <ele>204.010712</ele>
        <time>2011-02-12T10:46:54Z</time>
      </trkpt>
      <trkpt lat="43.56884" lon="6.64917">
        <ele>204.9198</ele>
        <time>2011-02-12T10:46:57Z</time>
      </trkpt>
      <trkpt lat="43.56879" lon="6.6493">
        <ele>204.943481</ele>
        <time>2011-02-12T10:47:02Z</time>
      </trkpt>
      <trkpt lat="43.56877" lon="6.64937">
        <ele>204.982178</ele>
        <time>2011-02-12T10:47:04Z</time>
      </trkpt>
      <trkpt lat="43.56875" lon="6.6495">
        <ele>205.398941</ele>
        <time>2011-02-12T10:47:09Z</time>
      </trkpt>
      <trkpt lat="43.56875" lon="6.6496">
        <ele>206.074722</ele>
        <time>2011-02-12T10:47:14Z</time>
      </trkpt>
      <trkpt lat="43.56877" lon="6.64973">
        <ele>207.250854</ele>
        <time>2011-02-12T10:47:19Z</time>
      </trkpt>
      <trkpt lat="43.56879" lon="6.64978">
        <ele>207.82663</ele>
        <time>2011-02-12T10:47:21Z</time>
      </trkpt>
      <trkpt lat="43.56882" lon="6.64984">
        <ele>208.55249</ele>
        <time>2011-02-12T10:47:23Z</time>
      </trkpt>
      <trkpt lat="43.56884" lon="6.64993">
        <ele>209.428452</ele>
        <time>2011-02-12T10:47:26Z</time>
      </trkpt>
      <trkpt lat="43.56884" lon="6.64995">
        <ele>209.578537</ele>
        <time>2011-02-12T10:47:27Z</time>
      </trkpt>
      <trkpt lat="43.56882" lon="6.65005">
        <ele>210.053406</ele>
        <time>2011-02-12T10:47:30Z</time>
      </trkpt>
      <trkpt lat="43.56873" lon="6.65053">
        <ele>211.386871</ele>
        <time>2011-02-12T10:47:47Z</time>
      </trkpt>
      <trkpt lat="43.56873" lon="6.65066">
        <ele>211.969055</ele>
        <time>2011-02-12T10:47:53Z</time>
      </trkpt>
      <trkpt lat="43.56871" lon="6.65081">
        <ele>212.398056</ele>
        <time>2011-02-12T10:47:59Z</time>
      </trkpt>
      <trkpt lat="43.56871" lon="6.65091">
        <ele>212.809128</ele>
        <time>2011-02-12T10:48:04Z</time>
      </trkpt>
      <trkpt lat="43.56871" lon="6.65113">
        <ele>213.59166</ele>
        <time>2011-02-12T10:48:12Z</time>
      </trkpt>
      <trkpt lat="43.56871" lon="6.65123">
        <ele>213.96312</ele>
        <time>2011-02-12T10:48:16Z</time>
      </trkpt>
      <trkpt lat="43.56871" lon="6.65134">
        <ele>214.321365</ele>
        <time>2011-02-12T10:48:21Z</time>
      </trkpt>
      <trkpt lat="43.56869" lon="6.65154">
        <ele>214.923508</ele>
        <time>2011-02-12T10:48:28Z</time>
      </trkpt>
      <trkpt lat="43.56864" lon="6.65175">
        <ele>215.650955</ele>
        <time>2011-02-12T10:48:36Z</time>
      </trkpt>
      <trkpt lat="43.56869" lon="6.65201">
        <ele>216.437057</ele>
        <time>2011-02-12T10:48:45Z</time>
      </trkpt>
      <trkpt lat="43.56869" lon="6.65209">
        <ele>216.650299</ele>
        <time>2011-02-12T10:48:49Z</time>
      </trkpt>
      <trkpt lat="43.56873" lon="6.6522">
        <ele>216.832794</ele>
        <time>2011-02-12T10:48:54Z</time>
      </trkpt>
      <trkpt lat="43.56877" lon="6.65265">
        <ele>218.011322</ele>
        <time>2011-02-12T10:49:15Z</time>
      </trkpt>
      <trkpt lat="43.56882" lon="6.65282">
        <ele>218.314575</ele>
        <time>2011-02-12T10:49:23Z</time>
      </trkpt>
      <trkpt lat="43.56867" lon="6.65321">
        <ele>219.309464</ele>
        <time>2011-02-12T10:49:36Z</time>
      </trkpt>
      <trkpt lat="43.56864" lon="6.65317">
        <ele>219.259003</ele>
        <time>2011-02-12T10:49:37Z</time>
      </trkpt>
      <trkpt lat="43.56862" lon="6.65323">
        <ele>219.456085</ele>
        <time>2011-02-12T10:49:40Z</time>
      </trkpt>
      <trkpt lat="43.56862" lon="6.65327">
        <ele>219.474442</ele>
        <time>2011-02-12T10:49:41Z</time>
      </trkpt>
      <trkpt lat="43.56858" lon="6.65338">
        <ele>219.381699</ele>
        <time>2011-02-12T10:49:45Z</time>
      </trkpt>
      <trkpt lat="43.56858" lon="6.65342">
        <ele>219.308548</ele>
        <time>2011-02-12T10:49:47Z</time>
      </trkpt>
      <trkpt lat="43.56856" lon="6.65355">
        <ele>219.134171</ele>
        <time>2011-02-12T10:49:52Z</time>
      </trkpt>
      <trkpt lat="43.56852" lon="6.65377">
        <ele>218.858551</ele>
        <time>2011-02-12T10:50:00Z</time>
      </trkpt>
      <trkpt lat="43.56849" lon="6.65387">
        <ele>218.720749</ele>
        <time>2011-02-12T10:50:04Z</time>
      </trkpt>
      <trkpt lat="43.56832" lon="6.65484">
        <ele>218.035629</ele>
        <time>2011-02-12T10:50:41Z</time>
      </trkpt>
      <trkpt lat="43.56832" lon="6.65484">
        <ele>218.035629</ele>
        <time>2011-02-12T10:51:11Z</time>
      </trkpt>
      <trkpt lat="43.56723" lon="6.65662">
        <ele>208.688736</ele>
        <time>2011-02-12T10:51:20Z</time>
      </trkpt>
      <trkpt lat="43.56719" lon="6.65666">
        <ele>208.133942</ele>
        <time>2011-02-12T10:51:21Z</time>
      </trkpt>
      <trkpt lat="43.56695" lon="6.65677">
        <ele>204.684967</ele>
        <time>2011-02-12T10:51:25Z</time>
      </trkpt>
      <trkpt lat="43.56665" lon="6.65688">
        <ele>201.189468</ele>
        <time>2011-02-12T10:51:29Z</time>
      </trkpt>
      <trkpt lat="43.56643" lon="6.65694">
        <ele>199.197998</ele>
        <time>2011-02-12T10:51:32Z</time>
      </trkpt>
      <trkpt lat="43.56624" lon="6.65703">
        <ele>198.84462</ele>
        <time>2011-02-12T10:51:35Z</time>
      </trkpt>
      <trkpt lat="43.56613" lon="6.65707">
        <ele>198.478851</ele>
        <time>2011-02-12T10:51:37Z</time>
      </trkpt>
      <trkpt lat="43.56605" lon="6.65726">
        <ele>197.709396</ele>
        <time>2011-02-12T10:51:40Z</time>
      </trkpt>
      <trkpt lat="43.56603" lon="6.65737">
        <ele>197.312805</ele>
        <time>2011-02-12T10:51:42Z</time>
      </trkpt>
      <trkpt lat="43.56586" lon="6.65739">
        <ele>197.043228</ele>
        <time>2011-02-12T10:51:47Z</time>
      </trkpt>
      <trkpt lat="43.56566" lon="6.65722">
        <ele>197.452866</ele>
        <time>2011-02-12T10:51:53Z</time>
      </trkpt>
      <trkpt lat="43.56551" lon="6.65718">
        <ele>197.640717</ele>
        <time>2011-02-12T10:51:56Z</time>
      </trkpt>
      <trkpt lat="43.56543" lon="6.65718">
        <ele>197.850754</ele>
        <time>2011-02-12T10:51:58Z</time>
      </trkpt>
      <trkpt lat="43.56536" lon="6.65724">
        <ele>197.926453</ele>
        <time>2011-02-12T10:52:01Z</time>
      </trkpt>
      <trkpt lat="43.56536" lon="6.65735">
        <ele>197.882034</ele>
        <time>2011-02-12T10:52:04Z</time>
      </trkpt>
      <trkpt lat="43.5654" lon="6.65746">
        <ele>198.454636</ele>
        <time>2011-02-12T10:52:07Z</time>
      </trkpt>
      <trkpt lat="43.56543" lon="6.6575">
        <ele>198.588531</ele>
        <time>2011-02-12T10:52:09Z</time>
      </trkpt>
      <trkpt lat="43.56551" lon="6.65761">
        <ele>198.407089</ele>
        <time>2011-02-12T10:52:14Z</time>
      </trkpt>
      <trkpt lat="43.56564" lon="6.65774">
        <ele>198.505859</ele>
        <time>2011-02-12T10:52:19Z</time>
      </trkpt>
      <trkpt lat="43.5657" lon="6.6578">
        <ele>198.534317</ele>
        <time>2011-02-12T10:52:23Z</time>
      </trkpt>
      <trkpt lat="43.56577" lon="6.65799">
        <ele>198.893173</ele>
        <time>2011-02-12T10:52:29Z</time>
      </trkpt>
      <trkpt lat="43.56583" lon="6.65817">
        <ele>199.473465</ele>
        <time>2011-02-12T10:52:34Z</time>
      </trkpt>
      <trkpt lat="43.56618" lon="6.65898">
        <ele>199.100235</ele>
        <time>2011-02-12T10:52:58Z</time>
      </trkpt>
      <trkpt lat="43.56654" lon="6.65977">
        <ele>199.137192</ele>
        <time>2011-02-12T10:53:23Z</time>
      </trkpt>
      <trkpt lat="43.56635" lon="6.66023">
        <ele>201.69603</ele>
        <time>2011-02-12T10:53:36Z</time>
      </trkpt>
      <trkpt lat="43.56631" lon="6.66023">
        <ele>201.676285</ele>
        <time>2011-02-12T10:53:37Z</time>
      </trkpt>
      <trkpt lat="43.56626" lon="6.66031">
        <ele>202.106094</ele>
        <time>2011-02-12T10:53:40Z</time>
      </trkpt>
      <trkpt lat="43.56618" lon="6.66046">
        <ele>202.59906</ele>
        <time>2011-02-12T10:53:48Z</time>
      </trkpt>
      <trkpt lat="43.56611" lon="6.6607">
        <ele>204.639236</ele>
        <time>2011-02-12T10:53:58Z</time>
      </trkpt>
      <trkpt lat="43.56605" lon="6.66083">
        <ele>205.187439</ele>
        <time>2011-02-12T10:54:06Z</time>
      </trkpt>
      <trkpt lat="43.5659" lon="6.66115">
        <ele>205.07637</ele>
        <time>2011-02-12T10:54:23Z</time>
      </trkpt>
      <trkpt lat="43.56588" lon="6.66123">
        <ele>205.796112</ele>
        <time>2011-02-12T10:54:28Z</time>
      </trkpt>
      <trkpt lat="43.56579" lon="6.66162">
        <ele>209.88855</ele>
        <time>2011-02-12T10:54:48Z</time>
      </trkpt>
      <trkpt lat="43.56573" lon="6.66183">
        <ele>212.62825</ele>
        <time>2011-02-12T10:54:59Z</time>
      </trkpt>
      <trkpt lat="43.56592" lon="6.66203">
        <ele>217.914886</ele>
        <time>2011-02-12T10:55:12Z</time>
      </trkpt>
      <trkpt lat="43.56592" lon="6.66205">
        <ele>218.238052</ele>
        <time>2011-02-12T10:55:13Z</time>
      </trkpt>
      <trkpt lat="43.56592" lon="6.66209">
        <ele>218.882797</ele>
        <time>2011-02-12T10:55:16Z</time>
      </trkpt>
      <trkpt lat="43.5659" lon="6.66216">
        <ele>219.577225</ele>
        <time>2011-02-12T10:55:19Z</time>
      </trkpt>
      <trkpt lat="43.56588" lon="6.66218">
        <ele>219.642685</ele>
        <time>2011-02-12T10:55:20Z</time>
      </trkpt>
      <trkpt lat="43.56581" lon="6.6622">
        <ele>219.217758</ele>
        <time>2011-02-12T10:55:25Z</time>
      </trkpt>
      <trkpt lat="43.56579" lon="6.6622">
        <ele>218.965744</ele>
        <time>2011-02-12T10:55:26Z</time>
      </trkpt>
      <trkpt lat="43.56575" lon="6.6622">
        <ele>218.443024</ele>
        <time>2011-02-12T10:55:29Z</time>
      </trkpt>
      <trkpt lat="43.56573" lon="6.6622">
        <ele>218.179794</ele>
        <time>2011-02-12T10:55:31Z</time>
      </trkpt>
      <trkpt lat="43.56568" lon="6.66222">
        <ele>217.965607</ele>
        <time>2011-02-12T10:55:33Z</time>
      </trkpt>
      <trkpt lat="43.56564" lon="6.66224">
        <ele>217.714111</ele>
        <time>2011-02-12T10:55:37Z</time>
      </trkpt>
      <trkpt lat="43.5656" lon="6.66226">
        <ele>217.425323</ele>
        <time>2011-02-12T10:55:40Z</time>
      </trkpt>
      <trkpt lat="43.56558" lon="6.66229">
        <ele>217.405441</ele>
        <time>2011-02-12T10:55:41Z</time>
      </trkpt>
      <trkpt lat="43.56551" lon="6.66233">
        <ele>216.982666</ele>
        <time>2011-02-12T10:55:46Z</time>
      </trkpt>
      <trkpt lat="43.56545" lon="6.66239">
        <ele>216.736359</ele>
        <time>2011-02-12T10:55:52Z</time>
      </trkpt>
      <trkpt lat="43.5654" lon="6.66252">
        <ele>217.472321</ele>
        <time>2011-02-12T10:55:59Z</time>
      </trkpt>
      <trkpt lat="43.56536" lon="6.66265">
        <ele>218.136719</ele>
        <time>2011-02-12T10:56:05Z</time>
      </trkpt>
      <trkpt lat="43.56528" lon="6.66282">
        <ele>219.028076</ele>
        <time>2011-02-12T10:56:16Z</time>
      </trkpt>
      <trkpt lat="43.5653" lon="6.66299">
        <ele>221.331406</ele>
        <time>2011-02-12T10:56:23Z</time>
      </trkpt>
      <trkpt lat="43.56525" lon="6.66374">
        <ele>232.297791</ele>
        <time>2011-02-12T10:56:53Z</time>
      </trkpt>
      <trkpt lat="43.56521" lon="6.66372">
        <ele>231.697372</ele>
        <time>2011-02-12T10:56:56Z</time>
      </trkpt>
      <trkpt lat="43.56519" lon="6.66366">
        <ele>230.709534</ele>
        <time>2011-02-12T10:56:59Z</time>
      </trkpt>
      <trkpt lat="43.56513" lon="6.66351">
        <ele>228.129654</ele>
        <time>2011-02-12T10:57:04Z</time>
      </trkpt>
      <trkpt lat="43.5651" lon="6.66347">
        <ele>227.261429</ele>
        <time>2011-02-12T10:57:06Z</time>
      </trkpt>
      <trkpt lat="43.56508" lon="6.66338">
        <ele>225.761429</ele>
        <time>2011-02-12T10:57:10Z</time>
      </trkpt>
      <trkpt lat="43.565" lon="6.66332">
        <ele>224.050705</ele>
        <time>2011-02-12T10:57:15Z</time>
      </trkpt>
      <trkpt lat="43.56498" lon="6.66332">
        <ele>223.863342</ele>
        <time>2011-02-12T10:57:16Z</time>
      </trkpt>
      <trkpt lat="43.56485" lon="6.6634">
        <ele>223.872467</ele>
        <time>2011-02-12T10:57:24Z</time>
      </trkpt>
      <trkpt lat="43.56457" lon="6.66389">
        <ele>226.868393</ele>
        <time>2011-02-12T10:57:49Z</time>
      </trkpt>
      <trkpt lat="43.56455" lon="6.66398">
        <ele>227.583832</ele>
        <time>2011-02-12T10:57:53Z</time>
      </trkpt>
      <trkpt lat="43.56455" lon="6.66413">
        <ele>229.670258</ele>
        <time>2011-02-12T10:57:59Z</time>
      </trkpt>
      <trkpt lat="43.56455" lon="6.66428">
        <ele>232.007996</ele>
        <time>2011-02-12T10:58:05Z</time>
      </trkpt>
      <trkpt lat="43.56452" lon="6.66475">
        <ele>238.417618</ele>
        <time>2011-02-12T10:58:23Z</time>
      </trkpt>
      <trkpt lat="43.56444" lon="6.66512">
        <ele>239.279175</ele>
        <time>2011-02-12T10:58:39Z</time>
      </trkpt>
      <trkpt lat="43.5644" lon="6.66516">
        <ele>239.103149</ele>
        <time>2011-02-12T10:58:42Z</time>
      </trkpt>
      <trkpt lat="43.56427" lon="6.66512">
        <ele>238.604904</ele>
        <time>2011-02-12T10:58:54Z</time>
      </trkpt>
      <trkpt lat="43.56427" lon="6.66507">
        <ele>238.424759</ele>
        <time>2011-02-12T10:58:56Z</time>
      </trkpt>
      <trkpt lat="43.56427" lon="6.66505">
        <ele>238.333694</ele>
        <time>2011-02-12T10:58:57Z</time>
      </trkpt>
      <trkpt lat="43.56427" lon="6.66503">
        <ele>238.241959</ele>
        <time>2011-02-12T10:58:58Z</time>
      </trkpt>
      <trkpt lat="43.56425" lon="6.66495">
        <ele>237.882217</ele>
        <time>2011-02-12T10:59:01Z</time>
      </trkpt>
      <trkpt lat="43.56425" lon="6.6649">
        <ele>237.674988</ele>
        <time>2011-02-12T10:59:03Z</time>
      </trkpt>
      <trkpt lat="43.56422" lon="6.66484">
        <ele>237.333023</ele>
        <time>2011-02-12T10:59:06Z</time>
      </trkpt>
      <trkpt lat="43.56399" lon="6.66424">
        <ele>226.550674</ele>
        <time>2011-02-12T10:59:36Z</time>
      </trkpt>
      <trkpt lat="43.56395" lon="6.66413">
        <ele>224.094666</ele>
        <time>2011-02-12T10:59:41Z</time>
      </trkpt>
      <trkpt lat="43.56395" lon="6.66413">
        <ele>224.094666</ele>
        <time>2011-02-12T10:59:44Z</time>
      </trkpt>
      <trkpt lat="43.5639" lon="6.66514">
        <ele>240.359283</ele>
        <time>2011-02-12T10:59:48Z</time>
      </trkpt>
      <trkpt lat="43.5639" lon="6.66518">
        <ele>240.815598</ele>
        <time>2011-02-12T10:59:49Z</time>
      </trkpt>
      <trkpt lat="43.56388" lon="6.66525">
        <ele>241.645523</ele>
        <time>2011-02-12T10:59:53Z</time>
      </trkpt>
      <trkpt lat="43.56386" lon="6.66533">
        <ele>242.170105</ele>
        <time>2011-02-12T10:59:58Z</time>
      </trkpt>
      <trkpt lat="43.56386" lon="6.66542">
        <ele>242.643036</ele>
        <time>2011-02-12T11:00:01Z</time>
      </trkpt>
      <trkpt lat="43.56384" lon="6.6655">
        <ele>242.853928</ele>
        <time>2011-02-12T11:00:05Z</time>
      </trkpt>
      <trkpt lat="43.56382" lon="6.66555">
        <ele>242.856796</ele>
        <time>2011-02-12T11:00:07Z</time>
      </trkpt>
      <trkpt lat="43.56377" lon="6.66563">
        <ele>242.938278</ele>
        <time>2011-02-12T11:00:12Z</time>
      </trkpt>
      <trkpt lat="43.56362" lon="6.66583">
        <ele>243.127396</ele>
        <time>2011-02-12T11:00:23Z</time>
      </trkpt>
      <trkpt lat="43.56356" lon="6.66591">
        <ele>243.480164</ele>
        <time>2011-02-12T11:00:29Z</time>
      </trkpt>
      <trkpt lat="43.56345" lon="6.66606">
        <ele>244.103928</ele>
        <time>2011-02-12T11:00:37Z</time>
      </trkpt>
      <trkpt lat="43.56341" lon="6.66613">
        <ele>244.357529</ele>
        <time>2011-02-12T11:00:40Z</time>
      </trkpt>
      <trkpt lat="43.56339" lon="6.66613">
        <ele>244.206818</ele>
        <time>2011-02-12T11:00:41Z</time>
      </trkpt>
      <trkpt lat="43.56334" lon="6.66619">
        <ele>244.522385</ele>
        <time>2011-02-12T11:00:44Z</time>
      </trkpt>
      <trkpt lat="43.5633" lon="6.66623">
        <ele>244.648758</ele>
        <time>2011-02-12T11:00:47Z</time>
      </trkpt>
      <trkpt lat="43.56319" lon="6.66632">
        <ele>244.740402</ele>
        <time>2011-02-12T11:00:54Z</time>
      </trkpt>
      <trkpt lat="43.56307" lon="6.66649">
        <ele>245.413895</ele>
        <time>2011-02-12T11:01:04Z</time>
      </trkpt>
      <trkpt lat="43.563" lon="6.66658">
        <ele>245.922714</ele>
        <time>2011-02-12T11:01:10Z</time>
      </trkpt>
      <trkpt lat="43.56285" lon="6.66686">
        <ele>247.803452</ele>
        <time>2011-02-12T11:01:23Z</time>
      </trkpt>
      <trkpt lat="43.56285" lon="6.66692">
        <ele>248.379715</ele>
        <time>2011-02-12T11:01:26Z</time>
      </trkpt>
      <trkpt lat="43.56283" lon="6.66698">
        <ele>248.810638</ele>
        <time>2011-02-12T11:01:30Z</time>
      </trkpt>
      <trkpt lat="43.56281" lon="6.66707">
        <ele>249.543457</ele>
        <time>2011-02-12T11:01:34Z</time>
      </trkpt>
      <trkpt lat="43.56274" lon="6.6672">
        <ele>251.023407</ele>
        <time>2011-02-12T11:01:41Z</time>
      </trkpt>
      <trkpt lat="43.5627" lon="6.66731">
        <ele>252.273819</ele>
        <time>2011-02-12T11:01:47Z</time>
      </trkpt>
      <trkpt lat="43.56257" lon="6.6675">
        <ele>253.794724</ele>
        <time>2011-02-12T11:01:58Z</time>
      </trkpt>
      <trkpt lat="43.56236" lon="6.66791">
        <ele>257.374054</ele>
        <time>2011-02-12T11:02:19Z</time>
      </trkpt>
      <trkpt lat="43.56231" lon="6.66797">
        <ele>257.64917</ele>
        <time>2011-02-12T11:02:22Z</time>
      </trkpt>
      <trkpt lat="43.56229" lon="6.66799">
        <ele>257.596558</ele>
        <time>2011-02-12T11:02:23Z</time>
      </trkpt>
      <trkpt lat="43.56225" lon="6.66808">
        <ele>258.11554</ele>
        <time>2011-02-12T11:02:27Z</time>
      </trkpt>
      <trkpt lat="43.56214" lon="6.66823">
        <ele>258.162048</ele>
        <time>2011-02-12T11:02:35Z</time>
      </trkpt>
      <trkpt lat="43.56195" lon="6.66866">
        <ele>260.81958</ele>
        <time>2011-02-12T11:02:53Z</time>
      </trkpt>
      <trkpt lat="43.56184" lon="6.66881">
        <ele>260.575653</ele>
        <time>2011-02-12T11:02:59Z</time>
      </trkpt>
      <trkpt lat="43.56178" lon="6.66898">
        <ele>261.903259</ele>
        <time>2011-02-12T11:03:05Z</time>
      </trkpt>
      <trkpt lat="43.56169" lon="6.66913">
        <ele>262.059753</ele>
        <time>2011-02-12T11:03:11Z</time>
      </trkpt>
      <trkpt lat="43.56165" lon="6.66928">
        <ele>263.147949</ele>
        <time>2011-02-12T11:03:17Z</time>
      </trkpt>
      <trkpt lat="43.56156" lon="6.66954">
        <ele>264.481598</ele>
        <time>2011-02-12T11:03:29Z</time>
      </trkpt>
      <trkpt lat="43.56152" lon="6.66967">
        <ele>265.186188</ele>
        <time>2011-02-12T11:03:35Z</time>
      </trkpt>
      <trkpt lat="43.56146" lon="6.66997">
        <ele>267.844879</ele>
        <time>2011-02-12T11:03:47Z</time>
      </trkpt>
      <trkpt lat="43.56135" lon="6.67025">
        <ele>268.611359</ele>
        <time>2011-02-12T11:03:59Z</time>
      </trkpt>
      <trkpt lat="43.56122" lon="6.67055">
        <ele>268.633606</ele>
        <time>2011-02-12T11:04:11Z</time>
      </trkpt>
      <trkpt lat="43.56111" lon="6.67085">
        <ele>269.433105</ele>
        <time>2011-02-12T11:04:23Z</time>
      </trkpt>
      <trkpt lat="43.56105" lon="6.67102">
        <ele>269.618439</ele>
        <time>2011-02-12T11:04:29Z</time>
      </trkpt>
      <trkpt lat="43.56101" lon="6.67119">
        <ele>270.504425</ele>
        <time>2011-02-12T11:04:35Z</time>
      </trkpt>
      <trkpt lat="43.56071" lon="6.67207">
        <ele>273.659424</ele>
        <time>2011-02-12T11:05:05Z</time>
      </trkpt>
      <trkpt lat="43.5606" lon="6.67246">
        <ele>275.692596</ele>
        <time>2011-02-12T11:05:17Z</time>
      </trkpt>
      <trkpt lat="43.56034" lon="6.67325">
        <ele>275.162384</ele>
        <time>2011-02-12T11:05:44Z</time>
      </trkpt>
      <trkpt lat="43.56021" lon="6.67368">
        <ele>275.929718</ele>
        <time>2011-02-12T11:05:59Z</time>
      </trkpt>
      <trkpt lat="43.56021" lon="6.67387">
        <ele>277.168091</ele>
        <time>2011-02-12T11:06:05Z</time>
      </trkpt>
      <trkpt lat="43.56019" lon="6.67396">
        <ele>277.222595</ele>
        <time>2011-02-12T11:06:08Z</time>
      </trkpt>
      <trkpt lat="43.56017" lon="6.67424">
        <ele>278.536163</ele>
        <time>2011-02-12T11:06:17Z</time>
      </trkpt>
      <trkpt lat="43.56019" lon="6.67441">
        <ele>280.034943</ele>
        <time>2011-02-12T11:06:23Z</time>
      </trkpt>
      <trkpt lat="43.56028" lon="6.67469">
        <ele>283.126984</ele>
        <time>2011-02-12T11:06:34Z</time>
      </trkpt>
      <trkpt lat="43.56028" lon="6.67486">
        <ele>283.91452</ele>
        <time>2011-02-12T11:06:41Z</time>
      </trkpt>
      <trkpt lat="43.56023" lon="6.67516">
        <ele>282.077209</ele>
        <time>2011-02-12T11:06:52Z</time>
      </trkpt>
      <trkpt lat="43.56034" lon="6.67527">
        <ele>282.248718</ele>
        <time>2011-02-12T11:06:58Z</time>
      </trkpt>
      <trkpt lat="43.56049" lon="6.67535">
        <ele>282.767334</ele>
        <time>2011-02-12T11:07:05Z</time>
      </trkpt>
      <trkpt lat="43.56081" lon="6.6755">
        <ele>283.658081</ele>
        <time>2011-02-12T11:07:20Z</time>
      </trkpt>
      <trkpt lat="43.56105" lon="6.67563">
        <ele>283.338562</ele>
        <time>2011-02-12T11:07:34Z</time>
      </trkpt>
      <trkpt lat="43.56124" lon="6.67587">
        <ele>282.970398</ele>
        <time>2011-02-12T11:07:46Z</time>
      </trkpt>
      <trkpt lat="43.56131" lon="6.6761">
        <ele>282.52359</ele>
        <time>2011-02-12T11:07:53Z</time>
      </trkpt>
      <trkpt lat="43.56143" lon="6.67683">
        <ele>283.616058</ele>
        <time>2011-02-12T11:08:18Z</time>
      </trkpt>
      <trkpt lat="43.56073" lon="6.6784">
        <ele>281.778259</ele>
        <time>2011-02-12T11:08:37Z</time>
      </trkpt>
      <trkpt lat="43.56028" lon="6.67947">
        <ele>282.169769</ele>
        <time>2011-02-12T11:08:55Z</time>
      </trkpt>
      <trkpt lat="43.55985" lon="6.68087">
        <ele>283.879456</ele>
        <time>2011-02-12T11:09:20Z</time>
      </trkpt>
      <trkpt lat="43.55963" lon="6.68183">
        <ele>290.113525</ele>
        <time>2011-02-12T11:09:41Z</time>
      </trkpt>
      <trkpt lat="43.55965" lon="6.6822">
        <ele>290.564697</ele>
        <time>2011-02-12T11:09:51Z</time>
      </trkpt>
      <trkpt lat="43.55968" lon="6.68233">
        <ele>290.684967</ele>
        <time>2011-02-12T11:09:55Z</time>
      </trkpt>
      <trkpt lat="43.55991" lon="6.68306">
        <ele>291.163483</ele>
        <time>2011-02-12T11:10:17Z</time>
      </trkpt>
      <trkpt lat="43.56025" lon="6.68402">
        <ele>292.111816</ele>
        <time>2011-02-12T11:10:45Z</time>
      </trkpt>
      <trkpt lat="43.56036" lon="6.68443">
        <ele>293.146912</ele>
        <time>2011-02-12T11:10:59Z</time>
      </trkpt>
      <trkpt lat="43.56066" lon="6.6857">
        <ele>297.719513</ele>
        <time>2011-02-12T11:11:39Z</time>
      </trkpt>
      <trkpt lat="43.56079" lon="6.6863">
        <ele>302.230469</ele>
        <time>2011-02-12T11:11:57Z</time>
      </trkpt>
      <trkpt lat="43.56079" lon="6.68636">
        <ele>302.577515</ele>
        <time>2011-02-12T11:11:59Z</time>
      </trkpt>
      <trkpt lat="43.56081" lon="6.68664">
        <ele>304.3685</ele>
        <time>2011-02-12T11:12:09Z</time>
      </trkpt>
      <trkpt lat="43.56088" lon="6.68698">
        <ele>308.023102</ele>
        <time>2011-02-12T11:12:24Z</time>
      </trkpt>
      <trkpt lat="43.5609" lon="6.68724">
        <ele>310.818878</ele>
        <time>2011-02-12T11:12:35Z</time>
      </trkpt>
      <trkpt lat="43.56088" lon="6.68752">
        <ele>312.812012</ele>
        <time>2011-02-12T11:12:46Z</time>
      </trkpt>
      <trkpt lat="43.56081" lon="6.68767">
        <ele>312.976868</ele>
        <time>2011-02-12T11:12:53Z</time>
      </trkpt>
      <trkpt lat="43.56055" lon="6.68825">
        <ele>312.29834</ele>
        <time>2011-02-12T11:13:16Z</time>
      </trkpt>
      <trkpt lat="43.56055" lon="6.68829">
        <ele>312.38382</ele>
        <time>2011-02-12T11:13:17Z</time>
      </trkpt>
      <trkpt lat="43.56038" lon="6.68868">
        <ele>311.108337</ele>
        <time>2011-02-12T11:13:29Z</time>
      </trkpt>
      <trkpt lat="43.56021" lon="6.6893">
        <ele>310.671295</ele>
        <time>2011-02-12T11:13:41Z</time>
      </trkpt>
      <trkpt lat="43.56006" lon="6.68964">
        <ele>309.029907</ele>
        <time>2011-02-12T11:13:46Z</time>
      </trkpt>
      <trkpt lat="43.55987" lon="6.68988">
        <ele>308.231537</ele>
        <time>2011-02-12T11:13:50Z</time>
      </trkpt>
      <trkpt lat="43.55972" lon="6.69003">
        <ele>308.957184</ele>
        <time>2011-02-12T11:13:53Z</time>
      </trkpt>
      <trkpt lat="43.55965" lon="6.69009">
        <ele>308.606903</ele>
        <time>2011-02-12T11:13:56Z</time>
      </trkpt>
      <trkpt lat="43.55961" lon="6.6902">
        <ele>309.030243</ele>
        <time>2011-02-12T11:13:58Z</time>
      </trkpt>
      <trkpt lat="43.55957" lon="6.69031">
        <ele>309.60675</ele>
        <time>2011-02-12T11:14:00Z</time>
      </trkpt>
      <trkpt lat="43.55953" lon="6.69037">
        <ele>309.169952</ele>
        <time>2011-02-12T11:14:02Z</time>
      </trkpt>
      <trkpt lat="43.55933" lon="6.69055">
        <ele>307.74527</ele>
        <time>2011-02-12T11:14:12Z</time>
      </trkpt>
      <trkpt lat="43.55937" lon="6.69055">
        <ele>307.941193</ele>
        <time>2011-02-12T11:14:47Z</time>
      </trkpt>
      <trkpt lat="43.55937" lon="6.69057">
        <ele>307.932953</ele>
        <time>2011-02-12T11:14:50Z</time>
      </trkpt>
      <trkpt lat="43.55933" lon="6.69063">
        <ele>307.774231</ele>
        <time>2011-02-12T11:14:53Z</time>
      </trkpt>
      <trkpt lat="43.55931" lon="6.69067">
        <ele>307.738098</ele>
        <time>2011-02-12T11:14:55Z</time>
      </trkpt>
      <trkpt lat="43.5592" lon="6.6908">
        <ele>307.116943</ele>
        <time>2011-02-12T11:15:00Z</time>
      </trkpt>
      <trkpt lat="43.55907" lon="6.69091">
        <ele>305.391449</ele>
        <time>2011-02-12T11:15:04Z</time>
      </trkpt>
      <trkpt lat="43.55903" lon="6.69097">
        <ele>304.473267</ele>
        <time>2011-02-12T11:15:05Z</time>
      </trkpt>
      <trkpt lat="43.55895" lon="6.6911">
        <ele>302.930634</ele>
        <time>2011-02-12T11:15:10Z</time>
      </trkpt>
      <trkpt lat="43.5592" lon="6.69125">
        <ele>305.02594</ele>
        <time>2011-02-12T11:15:19Z</time>
      </trkpt>
      <trkpt lat="43.55925" lon="6.6913">
        <ele>304.926941</ele>
        <time>2011-02-12T11:15:20Z</time>
      </trkpt>
      <trkpt lat="43.55953" lon="6.69168">
        <ele>303.581818</ele>
        <time>2011-02-12T11:15:28Z</time>
      </trkpt>
      <trkpt lat="43.5597" lon="6.69205">
        <ele>303.645386</ele>
        <time>2011-02-12T11:15:35Z</time>
      </trkpt>
      <trkpt lat="43.55989" lon="6.69295">
        <ele>303.903168</ele>
        <time>2011-02-12T11:15:56Z</time>
      </trkpt>
      <trkpt lat="43.55991" lon="6.6931">
        <ele>304.129425</ele>
        <time>2011-02-12T11:16:00Z</time>
      </trkpt>
      <trkpt lat="43.56002" lon="6.69376">
        <ele>307.965027</ele>
        <time>2011-02-12T11:16:20Z</time>
      </trkpt>
      <trkpt lat="43.56002" lon="6.69385">
        <ele>308.560181</ele>
        <time>2011-02-12T11:16:23Z</time>
      </trkpt>
      <trkpt lat="43.56002" lon="6.69398">
        <ele>309.360809</ele>
        <time>2011-02-12T11:16:27Z</time>
      </trkpt>
      <trkpt lat="43.56002" lon="6.69432">
        <ele>309.247864</ele>
        <time>2011-02-12T11:16:38Z</time>
      </trkpt>
      <trkpt lat="43.56" lon="6.69441">
        <ele>309.441193</ele>
        <time>2011-02-12T11:16:40Z</time>
      </trkpt>
      <trkpt lat="43.55993" lon="6.69462">
        <ele>309.125397</ele>
        <time>2011-02-12T11:16:46Z</time>
      </trkpt>
      <trkpt lat="43.55985" lon="6.69475">
        <ele>309.333527</ele>
        <time>2011-02-12T11:16:51Z</time>
      </trkpt>
      <trkpt lat="43.55961" lon="6.69499">
        <ele>311.006165</ele>
        <time>2011-02-12T11:17:03Z</time>
      </trkpt>
      <trkpt lat="43.55957" lon="6.69503">
        <ele>311.487823</ele>
        <time>2011-02-12T11:17:05Z</time>
      </trkpt>
      <trkpt lat="43.55946" lon="6.69512">
        <ele>312.51709</ele>
        <time>2011-02-12T11:17:10Z</time>
      </trkpt>
      <trkpt lat="43.5594" lon="6.69509">
        <ele>312.684906</ele>
        <time>2011-02-12T11:17:14Z</time>
      </trkpt>
      <trkpt lat="43.55935" lon="6.69509">
        <ele>312.868225</ele>
        <time>2011-02-12T11:17:16Z</time>
      </trkpt>
      <trkpt lat="43.55931" lon="6.69512">
        <ele>313.169312</ele>
        <time>2011-02-12T11:17:19Z</time>
      </trkpt>
      <trkpt lat="43.55927" lon="6.69514">
        <ele>313.477844</ele>
        <time>2011-02-12T11:17:22Z</time>
      </trkpt>
      <trkpt lat="43.5592" lon="6.69516">
        <ele>313.892365</ele>
        <time>2011-02-12T11:17:26Z</time>
      </trkpt>
      <trkpt lat="43.55914" lon="6.6952">
        <ele>314.448334</ele>
        <time>2011-02-12T11:17:30Z</time>
      </trkpt>
      <trkpt lat="43.5591" lon="6.69524">
        <ele>314.890228</ele>
        <time>2011-02-12T11:17:34Z</time>
      </trkpt>
      <trkpt lat="43.55901" lon="6.69533">
        <ele>315.176666</ele>
        <time>2011-02-12T11:17:41Z</time>
      </trkpt>
      <trkpt lat="43.5589" lon="6.69535">
        <ele>315.021912</ele>
        <time>2011-02-12T11:17:47Z</time>
      </trkpt>
      <trkpt lat="43.5588" lon="6.69548">
        <ele>315.71344</ele>
        <time>2011-02-12T11:17:56Z</time>
      </trkpt>
      <trkpt lat="43.55877" lon="6.69552">
        <ele>316.024353</ele>
        <time>2011-02-12T11:17:58Z</time>
      </trkpt>
      <trkpt lat="43.55875" lon="6.69557">
        <ele>316.360504</ele>
        <time>2011-02-12T11:18:00Z</time>
      </trkpt>
      <trkpt lat="43.55871" lon="6.69565">
        <ele>317.108551</ele>
        <time>2011-02-12T11:18:05Z</time>
      </trkpt>
      <trkpt lat="43.55869" lon="6.69578">
        <ele>318.2258</ele>
        <time>2011-02-12T11:18:10Z</time>
      </trkpt>
      <trkpt lat="43.55865" lon="6.69604">
        <ele>319.427063</ele>
        <time>2011-02-12T11:18:17Z</time>
      </trkpt>
      <trkpt lat="43.5586" lon="6.69655">
        <ele>321.217529</ele>
        <time>2011-02-12T11:18:33Z</time>
      </trkpt>
      <trkpt lat="43.5586" lon="6.6967">
        <ele>321.703857</ele>
        <time>2011-02-12T11:18:38Z</time>
      </trkpt>
      <trkpt lat="43.5586" lon="6.69675">
        <ele>321.843994</ele>
        <time>2011-02-12T11:18:40Z</time>
      </trkpt>
      <trkpt lat="43.5586" lon="6.69711">
        <ele>323.043823</ele>
        <time>2011-02-12T11:18:53Z</time>
      </trkpt>
      <trkpt lat="43.55862" lon="6.69726">
        <ele>323.462799</ele>
        <time>2011-02-12T11:18:59Z</time>
      </trkpt>
      <trkpt lat="43.55865" lon="6.69733">
        <ele>323.612091</ele>
        <time>2011-02-12T11:19:01Z</time>
      </trkpt>
      <trkpt lat="43.55865" lon="6.69739">
        <ele>323.814331</ele>
        <time>2011-02-12T11:19:04Z</time>
      </trkpt>
      <trkpt lat="43.55871" lon="6.69773">
        <ele>324.564972</ele>
        <time>2011-02-12T11:19:16Z</time>
      </trkpt>
      <trkpt lat="43.55867" lon="6.69784">
        <ele>324.650696</ele>
        <time>2011-02-12T11:19:20Z</time>
      </trkpt>
      <trkpt lat="43.5586" lon="6.69799">
        <ele>324.780243</ele>
        <time>2011-02-12T11:19:26Z</time>
      </trkpt>
      <trkpt lat="43.55856" lon="6.69808">
        <ele>324.867889</ele>
        <time>2011-02-12T11:19:29Z</time>
      </trkpt>
      <trkpt lat="43.55856" lon="6.69818">
        <ele>324.858276</ele>
        <time>2011-02-12T11:19:33Z</time>
      </trkpt>
      <trkpt lat="43.55856" lon="6.69859">
        <ele>326.116852</ele>
        <time>2011-02-12T11:19:47Z</time>
      </trkpt>
      <trkpt lat="43.55854" lon="6.69868">
        <ele>326.580902</ele>
        <time>2011-02-12T11:19:50Z</time>
      </trkpt>
      <trkpt lat="43.5585" lon="6.69874">
        <ele>327.10083</ele>
        <time>2011-02-12T11:19:53Z</time>
      </trkpt>
      <trkpt lat="43.55845" lon="6.69881">
        <ele>327.559967</ele>
        <time>2011-02-12T11:19:56Z</time>
      </trkpt>
      <trkpt lat="43.55832" lon="6.69902">
        <ele>328.863434</ele>
        <time>2011-02-12T11:20:06Z</time>
      </trkpt>
      <trkpt lat="43.55826" lon="6.69911">
        <ele>329.479431</ele>
        <time>2011-02-12T11:20:10Z</time>
      </trkpt>
      <trkpt lat="43.55817" lon="6.69934">
        <ele>331.034851</ele>
        <time>2011-02-12T11:20:21Z</time>
      </trkpt>
      <trkpt lat="43.55811" lon="6.69966">
        <ele>332.382568</ele>
        <time>2011-02-12T11:20:35Z</time>
      </trkpt>
      <trkpt lat="43.55807" lon="6.69979">
        <ele>332.830231</ele>
        <time>2011-02-12T11:20:41Z</time>
      </trkpt>
      <trkpt lat="43.55777" lon="6.70033">
        <ele>332.777527</ele>
        <time>2011-02-12T11:21:05Z</time>
      </trkpt>
      <trkpt lat="43.55757" lon="6.7008">
        <ele>331.299438</ele>
        <time>2011-02-12T11:21:17Z</time>
      </trkpt>
      <trkpt lat="43.55753" lon="6.70089">
        <ele>331.360229</ele>
        <time>2011-02-12T11:21:19Z</time>
      </trkpt>
      <trkpt lat="43.5574" lon="6.70099">
        <ele>331.434875</ele>
        <time>2011-02-12T11:21:23Z</time>
      </trkpt>
      <trkpt lat="43.55721" lon="6.70115">
        <ele>331.99057</ele>
        <time>2011-02-12T11:21:29Z</time>
      </trkpt>
      <trkpt lat="43.55708" lon="6.70123">
        <ele>332.647675</ele>
        <time>2011-02-12T11:21:34Z</time>
      </trkpt>
      <trkpt lat="43.55704" lon="6.7014">
        <ele>333.614655</ele>
        <time>2011-02-12T11:21:38Z</time>
      </trkpt>
      <trkpt lat="43.55704" lon="6.70145">
        <ele>333.818817</ele>
        <time>2011-02-12T11:21:39Z</time>
      </trkpt>
      <trkpt lat="43.5571" lon="6.70162">
        <ele>334.468689</ele>
        <time>2011-02-12T11:21:44Z</time>
      </trkpt>
      <trkpt lat="43.55712" lon="6.70164">
        <ele>334.515137</ele>
        <time>2011-02-12T11:21:45Z</time>
      </trkpt>
      <trkpt lat="43.55716" lon="6.70168">
        <ele>334.608063</ele>
        <time>2011-02-12T11:21:48Z</time>
      </trkpt>
      <trkpt lat="43.55727" lon="6.70177">
        <ele>334.738281</ele>
        <time>2011-02-12T11:21:53Z</time>
      </trkpt>
      <trkpt lat="43.55731" lon="6.70179">
        <ele>334.729126</ele>
        <time>2011-02-12T11:21:55Z</time>
      </trkpt>
      <trkpt lat="43.55738" lon="6.70185">
        <ele>334.86853</ele>
        <time>2011-02-12T11:21:58Z</time>
      </trkpt>
      <trkpt lat="43.55744" lon="6.70194">
        <ele>335.146576</ele>
        <time>2011-02-12T11:22:01Z</time>
      </trkpt>
      <trkpt lat="43.5577" lon="6.70239">
        <ele>335.645874</ele>
        <time>2011-02-12T11:22:13Z</time>
      </trkpt>
      <trkpt lat="43.558" lon="6.7031">
        <ele>336.544647</ele>
        <time>2011-02-12T11:22:31Z</time>
      </trkpt>
      <trkpt lat="43.55802" lon="6.70321">
        <ele>336.823486</ele>
        <time>2011-02-12T11:22:36Z</time>
      </trkpt>
      <trkpt lat="43.55804" lon="6.70325">
        <ele>336.832977</ele>
        <time>2011-02-12T11:22:38Z</time>
      </trkpt>
      <trkpt lat="43.55807" lon="6.70329">
        <ele>336.849365</ele>
        <time>2011-02-12T11:22:41Z</time>
      </trkpt>
      <trkpt lat="43.55807" lon="6.70333">
        <ele>337.012238</ele>
        <time>2011-02-12T11:22:43Z</time>
      </trkpt>
      <trkpt lat="43.55809" lon="6.70346">
        <ele>337.374329</ele>
        <time>2011-02-12T11:22:48Z</time>
      </trkpt>
      <trkpt lat="43.55811" lon="6.70348">
        <ele>337.330078</ele>
        <time>2011-02-12T11:22:50Z</time>
      </trkpt>
      <trkpt lat="43.55811" lon="6.70355">
        <ele>337.588074</ele>
        <time>2011-02-12T11:22:52Z</time>
      </trkpt>
      <trkpt lat="43.55813" lon="6.70359">
        <ele>337.640411</ele>
        <time>2011-02-12T11:22:54Z</time>
      </trkpt>
      <trkpt lat="43.55813" lon="6.70363">
        <ele>337.816895</ele>
        <time>2011-02-12T11:22:56Z</time>
      </trkpt>
      <trkpt lat="43.55815" lon="6.70368">
        <ele>337.879913</ele>
        <time>2011-02-12T11:22:58Z</time>
      </trkpt>
      <trkpt lat="43.55841" lon="6.70411">
        <ele>337.6763</ele>
        <time>2011-02-12T11:23:23Z</time>
      </trkpt>
      <trkpt lat="43.55845" lon="6.70421">
        <ele>337.578674</ele>
        <time>2011-02-12T11:23:29Z</time>
      </trkpt>
      <trkpt lat="43.55965" lon="6.70542">
        <ele>331.796875</ele>
        <time>2011-02-12T11:23:48Z</time>
      </trkpt>
      <trkpt lat="43.55968" lon="6.70544">
        <ele>331.707672</ele>
        <time>2011-02-12T11:23:49Z</time>
      </trkpt>
      <trkpt lat="43.56006" lon="6.70595">
        <ele>331.216553</ele>
        <time>2011-02-12T11:24:03Z</time>
      </trkpt>
      <trkpt lat="43.56004" lon="6.70606">
        <ele>331.606598</ele>
        <time>2011-02-12T11:24:07Z</time>
      </trkpt>
      <trkpt lat="43.56004" lon="6.7061">
        <ele>331.741425</ele>
        <time>2011-02-12T11:24:08Z</time>
      </trkpt>
      <trkpt lat="43.56004" lon="6.70612">
        <ele>331.808838</ele>
        <time>2011-02-12T11:24:11Z</time>
      </trkpt>
      <trkpt lat="43.56002" lon="6.70617">
        <ele>331.996643</ele>
        <time>2011-02-12T11:24:14Z</time>
      </trkpt>
      <trkpt lat="43.56002" lon="6.70617">
        <ele>331.996643</ele>
        <time>2011-02-12T11:24:16Z</time>
      </trkpt>
      <trkpt lat="43.56002" lon="6.70621">
        <ele>332.13147</ele>
        <time>2011-02-12T11:24:19Z</time>
      </trkpt>
      <trkpt lat="43.55995" lon="6.70625">
        <ele>332.459839</ele>
        <time>2011-02-12T11:24:22Z</time>
      </trkpt>
      <trkpt lat="43.55995" lon="6.70627">
        <ele>332.52533</ele>
        <time>2011-02-12T11:24:23Z</time>
      </trkpt>
      <trkpt lat="43.55989" lon="6.7063">
        <ele>332.892792</ele>
        <time>2011-02-12T11:24:26Z</time>
      </trkpt>
      <trkpt lat="43.55987" lon="6.7063">
        <ele>332.993439</ele>
        <time>2011-02-12T11:24:27Z</time>
      </trkpt>
      <trkpt lat="43.5597" lon="6.70634">
        <ele>333.929657</ele>
        <time>2011-02-12T11:24:34Z</time>
      </trkpt>
      <trkpt lat="43.55955" lon="6.70634">
        <ele>334.634277</ele>
        <time>2011-02-12T11:24:41Z</time>
      </trkpt>
      <trkpt lat="43.55946" lon="6.70634">
        <ele>335.049866</ele>
        <time>2011-02-12T11:24:45Z</time>
      </trkpt>
      <trkpt lat="43.55937" lon="6.70642">
        <ele>335.657166</ele>
        <time>2011-02-12T11:24:49Z</time>
      </trkpt>
      <trkpt lat="43.55937" lon="6.70645">
        <ele>335.687958</ele>
        <time>2011-02-12T11:24:50Z</time>
      </trkpt>
      <trkpt lat="43.55935" lon="6.70653">
        <ele>335.90921</ele>
        <time>2011-02-12T11:24:54Z</time>
      </trkpt>
      <trkpt lat="43.55937" lon="6.70668">
        <ele>336.026917</ele>
        <time>2011-02-12T11:25:00Z</time>
      </trkpt>
      <trkpt lat="43.55944" lon="6.70702">
        <ele>336.219513</ele>
        <time>2011-02-12T11:25:11Z</time>
      </trkpt>
      <trkpt lat="43.55953" lon="6.70713">
        <ele>335.727051</ele>
        <time>2011-02-12T11:25:14Z</time>
      </trkpt>
      <trkpt lat="43.55993" lon="6.70801">
        <ele>333.319366</ele>
        <time>2011-02-12T11:25:31Z</time>
      </trkpt>
      <trkpt lat="43.56071" lon="6.70977">
        <ele>331.379669</ele>
        <time>2011-02-12T11:26:05Z</time>
      </trkpt>
      <trkpt lat="43.56178" lon="6.71344">
        <ele>327.949677</ele>
        <time>2011-02-12T11:27:37Z</time>
      </trkpt>
      <trkpt lat="43.56191" lon="6.71376">
        <ele>327.037048</ele>
        <time>2011-02-12T11:27:43Z</time>
      </trkpt>
      <trkpt lat="43.56193" lon="6.71381">
        <ele>326.864349</ele>
        <time>2011-02-12T11:27:44Z</time>
      </trkpt>
      <trkpt lat="43.56197" lon="6.71406">
        <ele>326.279572</ele>
        <time>2011-02-12T11:27:49Z</time>
      </trkpt>
      <trkpt lat="43.56191" lon="6.71492">
        <ele>324.326202</ele>
        <time>2011-02-12T11:28:04Z</time>
      </trkpt>
      <trkpt lat="43.56189" lon="6.71533">
        <ele>323.749878</ele>
        <time>2011-02-12T11:28:10Z</time>
      </trkpt>
      <trkpt lat="43.56199" lon="6.71552">
        <ele>323.198334</ele>
        <time>2011-02-12T11:28:14Z</time>
      </trkpt>
      <trkpt lat="43.56204" lon="6.71556">
        <ele>323.074127</ele>
        <time>2011-02-12T11:28:16Z</time>
      </trkpt>
      <trkpt lat="43.56212" lon="6.71563">
        <ele>322.894806</ele>
        <time>2011-02-12T11:28:19Z</time>
      </trkpt>
      <trkpt lat="43.56219" lon="6.71567">
        <ele>322.804108</ele>
        <time>2011-02-12T11:28:21Z</time>
      </trkpt>
      <trkpt lat="43.56236" lon="6.71578">
        <ele>321.362213</ele>
        <time>2011-02-12T11:28:30Z</time>
      </trkpt>
      <trkpt lat="43.56231" lon="6.71578">
        <ele>322.205444</ele>
        <time>2011-02-12T11:28:34Z</time>
      </trkpt>
      <trkpt lat="43.56231" lon="6.71578">
        <ele>322.205444</ele>
        <time>2011-02-12T11:28:35Z</time>
      </trkpt>
      <trkpt lat="43.56231" lon="6.71578">
        <ele>322.205444</ele>
        <time>2011-02-12T11:28:39Z</time>
      </trkpt>
      <trkpt lat="43.56227" lon="6.71576">
        <ele>322.781281</ele>
        <time>2011-02-12T11:28:42Z</time>
      </trkpt>
      <trkpt lat="43.56223" lon="6.71571">
        <ele>322.779999</ele>
        <time>2011-02-12T11:28:47Z</time>
      </trkpt>
      <trkpt lat="43.56229" lon="6.71567">
        <ele>322.540863</ele>
        <time>2011-02-12T11:28:50Z</time>
      </trkpt>
      <trkpt lat="43.56238" lon="6.71559">
        <ele>320.842072</ele>
        <time>2011-02-12T11:28:55Z</time>
      </trkpt>
      <trkpt lat="43.56242" lon="6.71554">
        <ele>320.013153</ele>
        <time>2011-02-12T11:28:57Z</time>
      </trkpt>
      <trkpt lat="43.56244" lon="6.71554">
        <ele>319.610809</ele>
        <time>2011-02-12T11:29:00Z</time>
      </trkpt>
      <trkpt lat="43.56249" lon="6.71554">
        <ele>318.806885</ele>
        <time>2011-02-12T11:29:24Z</time>
      </trkpt>
      <trkpt lat="43.56238" lon="6.71563">
        <ele>320.86499</ele>
        <time>2011-02-12T11:29:28Z</time>
      </trkpt>
      <trkpt lat="43.56234" lon="6.71563">
        <ele>321.684631</ele>
        <time>2011-02-12T11:29:29Z</time>
      </trkpt>
      <trkpt lat="43.56225" lon="6.71565">
        <ele>322.667114</ele>
        <time>2011-02-12T11:29:32Z</time>
      </trkpt>
      <trkpt lat="43.56204" lon="6.71554">
        <ele>323.081238</ele>
        <time>2011-02-12T11:29:39Z</time>
      </trkpt>
      <trkpt lat="43.56195" lon="6.71571">
        <ele>323.130615</ele>
        <time>2011-02-12T11:29:44Z</time>
      </trkpt>
      <trkpt lat="43.56186" lon="6.71591">
        <ele>322.692963</ele>
        <time>2011-02-12T11:29:50Z</time>
      </trkpt>
      <trkpt lat="43.56182" lon="6.71597">
        <ele>322.149231</ele>
        <time>2011-02-12T11:29:52Z</time>
      </trkpt>
      <trkpt lat="43.56178" lon="6.71602">
        <ele>321.800751</ele>
        <time>2011-02-12T11:29:54Z</time>
      </trkpt>
      <trkpt lat="43.56176" lon="6.71599">
        <ele>321.947327</ele>
        <time>2011-02-12T11:30:01Z</time>
      </trkpt>
      <trkpt lat="43.56182" lon="6.71591">
        <ele>322.65918</ele>
        <time>2011-02-12T11:30:05Z</time>
      </trkpt>
      <trkpt lat="43.56186" lon="6.7158">
        <ele>323.097534</ele>
        <time>2011-02-12T11:30:09Z</time>
      </trkpt>
      <trkpt lat="43.56204" lon="6.71539">
        <ele>323.13855</ele>
        <time>2011-02-12T11:30:22Z</time>
      </trkpt>
      <trkpt lat="43.56208" lon="6.71544">
        <ele>322.982727</ele>
        <time>2011-02-12T11:30:25Z</time>
      </trkpt>
      <trkpt lat="43.56212" lon="6.71548">
        <ele>322.852325</ele>
        <time>2011-02-12T11:30:29Z</time>
      </trkpt>
      <trkpt lat="43.56212" lon="6.71548">
        <ele>322.852325</ele>
        <time>2011-02-12T11:30:30Z</time>
      </trkpt>
      <trkpt lat="43.5621" lon="6.71548">
        <ele>322.916046</ele>
        <time>2011-02-12T11:30:33Z</time>
      </trkpt>
      <trkpt lat="43.56208" lon="6.71548">
        <ele>322.979279</ele>
        <time>2011-02-12T11:30:34Z</time>
      </trkpt>
      <trkpt lat="43.56201" lon="6.71544">
        <ele>323.189117</ele>
        <time>2011-02-12T11:30:42Z</time>
      </trkpt>
      <trkpt lat="43.56195" lon="6.71539">
        <ele>323.435028</ele>
        <time>2011-02-12T11:30:46Z</time>
      </trkpt>
      <trkpt lat="43.56186" lon="6.71531">
        <ele>323.867523</ele>
        <time>2011-02-12T11:30:52Z</time>
      </trkpt>
      <trkpt lat="43.56189" lon="6.71505">
        <ele>324.217255</ele>
        <time>2011-02-12T11:30:59Z</time>
      </trkpt>
      <trkpt lat="43.56191" lon="6.71484">
        <ele>324.473938</ele>
        <time>2011-02-12T11:31:05Z</time>
      </trkpt>
      <trkpt lat="43.56191" lon="6.71473">
        <ele>324.661591</ele>
        <time>2011-02-12T11:31:08Z</time>
      </trkpt>
      <trkpt lat="43.56193" lon="6.71464">
        <ele>324.673981</ele>
        <time>2011-02-12T11:31:10Z</time>
      </trkpt>
      <trkpt lat="43.56191" lon="6.71389">
        <ele>327.012299</ele>
        <time>2011-02-12T11:31:30Z</time>
      </trkpt>
      <trkpt lat="43.56178" lon="6.71348">
        <ele>327.892761</ele>
        <time>2011-02-12T11:31:41Z</time>
      </trkpt>
      <trkpt lat="43.56167" lon="6.71335">
        <ele>328.651306</ele>
        <time>2011-02-12T11:31:46Z</time>
      </trkpt>
      <trkpt lat="43.56152" lon="6.71273">
        <ele>328.797668</ele>
        <time>2011-02-12T11:32:04Z</time>
      </trkpt>
      <trkpt lat="43.56152" lon="6.71271">
        <ele>328.772827</ele>
        <time>2011-02-12T11:32:05Z</time>
      </trkpt>
      <trkpt lat="43.56143" lon="6.7125">
        <ele>328.930481</ele>
        <time>2011-02-12T11:32:11Z</time>
      </trkpt>
      <trkpt lat="43.56107" lon="6.71194">
        <ele>331.177612</ele>
        <time>2011-02-12T11:32:29Z</time>
      </trkpt>
      <trkpt lat="43.56096" lon="6.7117">
        <ele>330.752197</ele>
        <time>2011-02-12T11:32:35Z</time>
      </trkpt>
      <trkpt lat="43.56096" lon="6.71102">
        <ele>331.609253</ele>
        <time>2011-02-12T11:32:49Z</time>
      </trkpt>
      <trkpt lat="43.56088" lon="6.71057">
        <ele>331.636871</ele>
        <time>2011-02-12T11:32:58Z</time>
      </trkpt>
      <trkpt lat="43.56088" lon="6.71044">
        <ele>331.484283</ele>
        <time>2011-02-12T11:33:01Z</time>
      </trkpt>
      <trkpt lat="43.56073" lon="6.70956">
        <ele>331.063202</ele>
        <time>2011-02-12T11:33:20Z</time>
      </trkpt>
      <trkpt lat="43.56071" lon="6.70945">
        <ele>331.235199</ele>
        <time>2011-02-12T11:33:22Z</time>
      </trkpt>
      <trkpt lat="43.56066" lon="6.70913">
        <ele>331.608124</ele>
        <time>2011-02-12T11:33:29Z</time>
      </trkpt>
      <trkpt lat="43.56058" lon="6.70891">
        <ele>332.073151</ele>
        <time>2011-02-12T11:33:35Z</time>
      </trkpt>
      <trkpt lat="43.56049" lon="6.70874">
        <ele>332.158081</ele>
        <time>2011-02-12T11:33:41Z</time>
      </trkpt>
      <trkpt lat="43.56043" lon="6.70863">
        <ele>332.285339</ele>
        <time>2011-02-12T11:33:45Z</time>
      </trkpt>
      <trkpt lat="43.56038" lon="6.70859">
        <ele>332.454926</ele>
        <time>2011-02-12T11:33:47Z</time>
      </trkpt>
      <trkpt lat="43.56015" lon="6.7084">
        <ele>333.044983</ele>
        <time>2011-02-12T11:33:59Z</time>
      </trkpt>
      <trkpt lat="43.55991" lon="6.7081">
        <ele>333.587463</ele>
        <time>2011-02-12T11:34:11Z</time>
      </trkpt>
      <trkpt lat="43.55972" lon="6.70754">
        <ele>334.329803</ele>
        <time>2011-02-12T11:34:26Z</time>
      </trkpt>
      <trkpt lat="43.55965" lon="6.70743">
        <ele>334.787842</ele>
        <time>2011-02-12T11:34:30Z</time>
      </trkpt>
      <trkpt lat="43.55957" lon="6.70728">
        <ele>335.400482</ele>
        <time>2011-02-12T11:34:35Z</time>
      </trkpt>
      <trkpt lat="43.55953" lon="6.7072">
        <ele>335.709686</ele>
        <time>2011-02-12T11:34:39Z</time>
      </trkpt>
      <trkpt lat="43.5594" lon="6.7066">
        <ele>335.805634</ele>
        <time>2011-02-12T11:34:58Z</time>
      </trkpt>
      <trkpt lat="43.55935" lon="6.70638">
        <ele>335.679169</ele>
        <time>2011-02-12T11:35:04Z</time>
      </trkpt>
      <trkpt lat="43.55944" lon="6.7064">
        <ele>335.332336</ele>
        <time>2011-02-12T11:35:07Z</time>
      </trkpt>
      <trkpt lat="43.5595" lon="6.70638">
        <ele>334.96756</ele>
        <time>2011-02-12T11:35:09Z</time>
      </trkpt>
      <trkpt lat="43.55968" lon="6.70638">
        <ele>334.161285</ele>
        <time>2011-02-12T11:35:13Z</time>
      </trkpt>
      <trkpt lat="43.56004" lon="6.70647">
        <ele>332.819092</ele>
        <time>2011-02-12T11:35:23Z</time>
      </trkpt>
      <trkpt lat="43.56019" lon="6.70653">
        <ele>332.424927</ele>
        <time>2011-02-12T11:35:28Z</time>
      </trkpt>
      <trkpt lat="43.5604" lon="6.70668">
        <ele>331.64975</ele>
        <time>2011-02-12T11:35:35Z</time>
      </trkpt>
      <trkpt lat="43.56081" lon="6.70679">
        <ele>328.362274</ele>
        <time>2011-02-12T11:35:46Z</time>
      </trkpt>
      <trkpt lat="43.56088" lon="6.70683">
        <ele>327.727753</ele>
        <time>2011-02-12T11:35:47Z</time>
      </trkpt>
      <trkpt lat="43.56107" lon="6.70694">
        <ele>325.809967</ele>
        <time>2011-02-12T11:35:51Z</time>
      </trkpt>
      <trkpt lat="43.56126" lon="6.707">
        <ele>323.979706</ele>
        <time>2011-02-12T11:35:55Z</time>
      </trkpt>
      <trkpt lat="43.56137" lon="6.70705">
        <ele>323.335327</ele>
        <time>2011-02-12T11:35:57Z</time>
      </trkpt>
      <trkpt lat="43.5615" lon="6.70713">
        <ele>322.674683</ele>
        <time>2011-02-12T11:36:00Z</time>
      </trkpt>
      <trkpt lat="43.5624" lon="6.70784">
        <ele>321.018982</ele>
        <time>2011-02-12T11:36:28Z</time>
      </trkpt>
      <trkpt lat="43.56242" lon="6.70786">
        <ele>321.003906</ele>
        <time>2011-02-12T11:36:29Z</time>
      </trkpt>
      <trkpt lat="43.56255" lon="6.70812">
        <ele>320.961731</ele>
        <time>2011-02-12T11:36:37Z</time>
      </trkpt>
      <trkpt lat="43.5627" lon="6.70842">
        <ele>320.699707</ele>
        <time>2011-02-12T11:36:45Z</time>
      </trkpt>
      <trkpt lat="43.5627" lon="6.70844">
        <ele>320.706696</ele>
        <time>2011-02-12T11:36:46Z</time>
      </trkpt>
      <trkpt lat="43.56277" lon="6.70851">
        <ele>320.581512</ele>
        <time>2011-02-12T11:36:49Z</time>
      </trkpt>
      <trkpt lat="43.56287" lon="6.70859">
        <ele>320.337982</ele>
        <time>2011-02-12T11:36:56Z</time>
      </trkpt>
      <trkpt lat="43.56334" lon="6.70898">
        <ele>319.192596</ele>
        <time>2011-02-12T11:37:19Z</time>
      </trkpt>
      <trkpt lat="43.56341" lon="6.70904">
        <ele>318.990997</ele>
        <time>2011-02-12T11:37:21Z</time>
      </trkpt>
      <trkpt lat="43.56371" lon="6.70936">
        <ele>316.327606</ele>
        <time>2011-02-12T11:37:29Z</time>
      </trkpt>
      <trkpt lat="43.56405" lon="6.70971">
        <ele>315.883026</ele>
        <time>2011-02-12T11:37:38Z</time>
      </trkpt>
      <trkpt lat="43.56412" lon="6.70977">
        <ele>316.379883</ele>
        <time>2011-02-12T11:37:40Z</time>
      </trkpt>
      <trkpt lat="43.56414" lon="6.70981">
        <ele>316.630341</ele>
        <time>2011-02-12T11:37:41Z</time>
      </trkpt>
      <trkpt lat="43.56433" lon="6.71011">
        <ele>318.874176</ele>
        <time>2011-02-12T11:37:50Z</time>
      </trkpt>
      <trkpt lat="43.56437" lon="6.7102">
        <ele>319.331024</ele>
        <time>2011-02-12T11:37:54Z</time>
      </trkpt>
      <trkpt lat="43.56437" lon="6.71022">
        <ele>319.394165</ele>
        <time>2011-02-12T11:37:55Z</time>
      </trkpt>
      <trkpt lat="43.56448" lon="6.71039">
        <ele>320.188354</ele>
        <time>2011-02-12T11:38:05Z</time>
      </trkpt>
      <trkpt lat="43.56463" lon="6.71074">
        <ele>321.020874</ele>
        <time>2011-02-12T11:38:22Z</time>
      </trkpt>
      <trkpt lat="43.56472" lon="6.71087">
        <ele>321.024231</ele>
        <time>2011-02-12T11:38:28Z</time>
      </trkpt>
      <trkpt lat="43.5648" lon="6.71104">
        <ele>320.517975</ele>
        <time>2011-02-12T11:38:34Z</time>
      </trkpt>
      <trkpt lat="43.56487" lon="6.7111">
        <ele>320.06665</ele>
        <time>2011-02-12T11:38:37Z</time>
      </trkpt>
      <trkpt lat="43.56515" lon="6.71127">
        <ele>318.452271</ele>
        <time>2011-02-12T11:38:46Z</time>
      </trkpt>
      <trkpt lat="43.56577" lon="6.7117">
        <ele>317.030243</ele>
        <time>2011-02-12T11:39:05Z</time>
      </trkpt>
      <trkpt lat="43.56588" lon="6.71183">
        <ele>316.725037</ele>
        <time>2011-02-12T11:39:10Z</time>
      </trkpt>
      <trkpt lat="43.56603" lon="6.712">
        <ele>316.756012</ele>
        <time>2011-02-12T11:39:16Z</time>
      </trkpt>
      <trkpt lat="43.56616" lon="6.71243">
        <ele>317.865387</ele>
        <time>2011-02-12T11:39:29Z</time>
      </trkpt>
      <trkpt lat="43.56626" lon="6.71254">
        <ele>317.469604</ele>
        <time>2011-02-12T11:39:35Z</time>
      </trkpt>
      <trkpt lat="43.56648" lon="6.71286">
        <ele>317.025574</ele>
        <time>2011-02-12T11:39:48Z</time>
      </trkpt>
      <trkpt lat="43.56684" lon="6.71338">
        <ele>316.500854</ele>
        <time>2011-02-12T11:40:05Z</time>
      </trkpt>
      <trkpt lat="43.56693" lon="6.71355">
        <ele>316.386902</ele>
        <time>2011-02-12T11:40:10Z</time>
      </trkpt>
      <trkpt lat="43.56712" lon="6.71376">
        <ele>315.812866</ele>
        <time>2011-02-12T11:40:17Z</time>
      </trkpt>
      <trkpt lat="43.56723" lon="6.71393">
        <ele>314.912262</ele>
        <time>2011-02-12T11:40:22Z</time>
      </trkpt>
      <trkpt lat="43.56712" lon="6.71413">
        <ele>314.527161</ele>
        <time>2011-02-12T11:40:28Z</time>
      </trkpt>
      <trkpt lat="43.5671" lon="6.71421">
        <ele>314.240662</ele>
        <time>2011-02-12T11:40:30Z</time>
      </trkpt>
      <trkpt lat="43.56708" lon="6.71428">
        <ele>314.031281</ele>
        <time>2011-02-12T11:40:32Z</time>
      </trkpt>
      <trkpt lat="43.5671" lon="6.71509">
        <ele>303.916809</ele>
        <time>2011-02-12T11:40:50Z</time>
      </trkpt>
      <trkpt lat="43.5671" lon="6.71522">
        <ele>302.92923</ele>
        <time>2011-02-12T11:40:52Z</time>
      </trkpt>
      <trkpt lat="43.56704" lon="6.71565">
        <ele>299.549927</ele>
        <time>2011-02-12T11:40:59Z</time>
      </trkpt>
      <trkpt lat="43.56686" lon="6.71576">
        <ele>299.404968</ele>
        <time>2011-02-12T11:41:02Z</time>
      </trkpt>
      <trkpt lat="43.56678" lon="6.7158">
        <ele>299.284668</ele>
        <time>2011-02-12T11:41:04Z</time>
      </trkpt>
      <trkpt lat="43.56635" lon="6.71621">
        <ele>299.077362</ele>
        <time>2011-02-12T11:41:05Z</time>
      </trkpt>
      <trkpt lat="43.56639" lon="6.71627">
        <ele>299.377777</ele>
        <time>2011-02-12T11:41:07Z</time>
      </trkpt>
      <trkpt lat="43.56613" lon="6.71632">
        <ele>298.583588</ele>
        <time>2011-02-12T11:41:11Z</time>
      </trkpt>
      <trkpt lat="43.56607" lon="6.71634">
        <ele>298.386688</ele>
        <time>2011-02-12T11:41:12Z</time>
      </trkpt>
      <trkpt lat="43.56592" lon="6.71642">
        <ele>298.049255</ele>
        <time>2011-02-12T11:41:15Z</time>
      </trkpt>
      <trkpt lat="43.56588" lon="6.71649">
        <ele>298.088806</ele>
        <time>2011-02-12T11:41:16Z</time>
      </trkpt>
      <trkpt lat="43.56573" lon="6.71662">
        <ele>296.088043</ele>
        <time>2011-02-12T11:41:21Z</time>
      </trkpt>
      <trkpt lat="43.5656" lon="6.71668">
        <ele>293.33493</ele>
        <time>2011-02-12T11:41:25Z</time>
      </trkpt>
      <trkpt lat="43.56555" lon="6.7167">
        <ele>292.282745</ele>
        <time>2011-02-12T11:41:26Z</time>
      </trkpt>
      <trkpt lat="43.56545" lon="6.71674">
        <ele>289.45105</ele>
        <time>2011-02-12T11:41:28Z</time>
      </trkpt>
      <trkpt lat="43.56523" lon="6.71685">
        <ele>286.749756</ele>
        <time>2011-02-12T11:41:33Z</time>
      </trkpt>
      <trkpt lat="43.56502" lon="6.717">
        <ele>284.542664</ele>
        <time>2011-02-12T11:41:36Z</time>
      </trkpt>
      <trkpt lat="43.56485" lon="6.71715">
        <ele>283.350128</ele>
        <time>2011-02-12T11:41:39Z</time>
      </trkpt>
      <trkpt lat="43.56478" lon="6.7172">
        <ele>283.037811</ele>
        <time>2011-02-12T11:41:40Z</time>
      </trkpt>
      <trkpt lat="43.56446" lon="6.71732">
        <ele>280.450623</ele>
        <time>2011-02-12T11:41:45Z</time>
      </trkpt>
      <trkpt lat="43.56429" lon="6.71747">
        <ele>283.809296</ele>
        <time>2011-02-12T11:41:48Z</time>
      </trkpt>
      <trkpt lat="43.5642" lon="6.71756">
        <ele>285.059906</ele>
        <time>2011-02-12T11:41:50Z</time>
      </trkpt>
      <trkpt lat="43.56403" lon="6.71762">
        <ele>284.377777</ele>
        <time>2011-02-12T11:41:53Z</time>
      </trkpt>
      <trkpt lat="43.56397" lon="6.71762">
        <ele>283.573212</ele>
        <time>2011-02-12T11:41:54Z</time>
      </trkpt>
      <trkpt lat="43.56332" lon="6.71758">
        <ele>275.215118</ele>
        <time>2011-02-12T11:42:05Z</time>
      </trkpt>
      <trkpt lat="43.56311" lon="6.71775">
        <ele>271.528748</ele>
        <time>2011-02-12T11:42:09Z</time>
      </trkpt>
      <trkpt lat="43.56298" lon="6.71784">
        <ele>270.310974</ele>
        <time>2011-02-12T11:42:11Z</time>
      </trkpt>
      <trkpt lat="43.56279" lon="6.71797">
        <ele>270.330017</ele>
        <time>2011-02-12T11:42:14Z</time>
      </trkpt>
      <trkpt lat="43.56272" lon="6.71801">
        <ele>269.776886</ele>
        <time>2011-02-12T11:42:15Z</time>
      </trkpt>
      <trkpt lat="43.56246" lon="6.71823">
        <ele>266.366394</ele>
        <time>2011-02-12T11:42:19Z</time>
      </trkpt>
      <trkpt lat="43.56225" lon="6.71838">
        <ele>258.535797</ele>
        <time>2011-02-12T11:42:23Z</time>
      </trkpt>
      <trkpt lat="43.56216" lon="6.71853">
        <ele>258.537262</ele>
        <time>2011-02-12T11:42:25Z</time>
      </trkpt>
      <trkpt lat="43.56195" lon="6.71891">
        <ele>259.843872</ele>
        <time>2011-02-12T11:42:30Z</time>
      </trkpt>
      <trkpt lat="43.5618" lon="6.71923">
        <ele>257.449677</ele>
        <time>2011-02-12T11:42:34Z</time>
      </trkpt>
      <trkpt lat="43.56171" lon="6.71947">
        <ele>255.784042</ele>
        <time>2011-02-12T11:42:37Z</time>
      </trkpt>
      <trkpt lat="43.56148" lon="6.72001">
        <ele>254.83252</ele>
        <time>2011-02-12T11:42:44Z</time>
      </trkpt>
      <trkpt lat="43.56137" lon="6.72024">
        <ele>253.347504</ele>
        <time>2011-02-12T11:42:47Z</time>
      </trkpt>
      <trkpt lat="43.56126" lon="6.72048">
        <ele>253.991028</ele>
        <time>2011-02-12T11:42:50Z</time>
      </trkpt>
      <trkpt lat="43.56021" lon="6.72082">
        <ele>245.561203</ele>
        <time>2011-02-12T11:43:18Z</time>
      </trkpt>
      <trkpt lat="43.56" lon="6.72082">
        <ele>243.698776</ele>
        <time>2011-02-12T11:43:19Z</time>
      </trkpt>
      <trkpt lat="43.55972" lon="6.7208">
        <ele>241.29686</ele>
        <time>2011-02-12T11:43:22Z</time>
      </trkpt>
      <trkpt lat="43.55959" lon="6.72086">
        <ele>241.55011</ele>
        <time>2011-02-12T11:43:24Z</time>
      </trkpt>
      <trkpt lat="43.55929" lon="6.72089">
        <ele>239.621658</ele>
        <time>2011-02-12T11:43:29Z</time>
      </trkpt>
      <trkpt lat="43.55922" lon="6.72091">
        <ele>239.390808</ele>
        <time>2011-02-12T11:43:30Z</time>
      </trkpt>
      <trkpt lat="43.55907" lon="6.72097">
        <ele>238.599213</ele>
        <time>2011-02-12T11:43:33Z</time>
      </trkpt>
      <trkpt lat="43.55899" lon="6.72108">
        <ele>237.947601</ele>
        <time>2011-02-12T11:43:35Z</time>
      </trkpt>
      <trkpt lat="43.55856" lon="6.72196">
        <ele>237.682587</ele>
        <time>2011-02-12T11:43:49Z</time>
      </trkpt>
      <trkpt lat="43.55837" lon="6.72237">
        <ele>237.413513</ele>
        <time>2011-02-12T11:43:56Z</time>
      </trkpt>
      <trkpt lat="43.55822" lon="6.72247">
        <ele>237.022293</ele>
        <time>2011-02-12T11:44:01Z</time>
      </trkpt>
      <trkpt lat="43.55815" lon="6.7225">
        <ele>236.619858</ele>
        <time>2011-02-12T11:44:03Z</time>
      </trkpt>
      <trkpt lat="43.55794" lon="6.72254">
        <ele>234.813507</ele>
        <time>2011-02-12T11:44:08Z</time>
      </trkpt>
      <trkpt lat="43.55789" lon="6.72256">
        <ele>234.959793</ele>
        <time>2011-02-12T11:44:09Z</time>
      </trkpt>
      <trkpt lat="43.55768" lon="6.72269">
        <ele>233.280472</ele>
        <time>2011-02-12T11:44:14Z</time>
      </trkpt>
      <trkpt lat="43.55762" lon="6.72277">
        <ele>231.356232</ele>
        <time>2011-02-12T11:44:16Z</time>
      </trkpt>
      <trkpt lat="43.55749" lon="6.7228">
        <ele>228.608719</ele>
        <time>2011-02-12T11:44:19Z</time>
      </trkpt>
      <trkpt lat="43.55744" lon="6.72282">
        <ele>228.510162</ele>
        <time>2011-02-12T11:44:20Z</time>
      </trkpt>
      <trkpt lat="43.55736" lon="6.72286">
        <ele>228.156143</ele>
        <time>2011-02-12T11:44:22Z</time>
      </trkpt>
      <trkpt lat="43.55716" lon="6.72312">
        <ele>226.520721</ele>
        <time>2011-02-12T11:44:28Z</time>
      </trkpt>
      <trkpt lat="43.55708" lon="6.72346">
        <ele>222.515732</ele>
        <time>2011-02-12T11:44:36Z</time>
      </trkpt>
      <trkpt lat="43.55704" lon="6.7235">
        <ele>220.298523</ele>
        <time>2011-02-12T11:44:39Z</time>
      </trkpt>
      <trkpt lat="43.55706" lon="6.72353">
        <ele>221.037628</ele>
        <time>2011-02-12T11:44:51Z</time>
      </trkpt>
      <trkpt lat="43.55706" lon="6.72357">
        <ele>221.450928</ele>
        <time>2011-02-12T11:44:55Z</time>
      </trkpt>
      <trkpt lat="43.55706" lon="6.72357">
        <ele>221.450928</ele>
        <time>2011-02-12T11:44:59Z</time>
      </trkpt>
      <trkpt lat="43.55706" lon="6.72355">
        <ele>220.837234</ele>
        <time>2011-02-12T11:45:02Z</time>
      </trkpt>
      <trkpt lat="43.55706" lon="6.72357">
        <ele>221.450928</ele>
        <time>2011-02-12T11:45:04Z</time>
      </trkpt>
      <trkpt lat="43.55706" lon="6.72361">
        <ele>222.711136</ele>
        <time>2011-02-12T11:45:48Z</time>
      </trkpt>
      <trkpt lat="43.55708" lon="6.72361">
        <ele>223.667038</ele>
        <time>2011-02-12T11:45:59Z</time>
      </trkpt>
      <trkpt lat="43.55706" lon="6.72361">
        <ele>222.711136</ele>
        <time>2011-02-12T11:46:06Z</time>
      </trkpt>
      <trkpt lat="43.55706" lon="6.72361">
        <ele>222.711136</ele>
        <time>2011-02-12T11:47:49Z</time>
      </trkpt>
      <trkpt lat="43.55699" lon="6.72365">
        <ele>222.063553</ele>
        <time>2011-02-12T11:47:52Z</time>
      </trkpt>
      <trkpt lat="43.55697" lon="6.72368">
        <ele>222.649445</ele>
        <time>2011-02-12T11:47:54Z</time>
      </trkpt>
      <trkpt lat="43.55671" lon="6.72383">
        <ele>224.831116</ele>
        <time>2011-02-12T11:48:05Z</time>
      </trkpt>
      <trkpt lat="43.55659" lon="6.72376">
        <ele>223.188141</ele>
        <time>2011-02-12T11:48:09Z</time>
      </trkpt>
      <trkpt lat="43.55652" lon="6.72372">
        <ele>222.276077</ele>
        <time>2011-02-12T11:48:11Z</time>
      </trkpt>
      <trkpt lat="43.55639" lon="6.72361">
        <ele>219.664703</ele>
        <time>2011-02-12T11:48:15Z</time>
      </trkpt>
      <trkpt lat="43.55626" lon="6.72359">
        <ele>217.801071</ele>
        <time>2011-02-12T11:48:18Z</time>
      </trkpt>
      <trkpt lat="43.55618" lon="6.72353">
        <ele>215.668808</ele>
        <time>2011-02-12T11:48:21Z</time>
      </trkpt>
      <trkpt lat="43.55616" lon="6.7235">
        <ele>215.006958</ele>
        <time>2011-02-12T11:48:22Z</time>
      </trkpt>
      <trkpt lat="43.55596" lon="6.72338">
        <ele>217.853165</ele>
        <time>2011-02-12T11:48:29Z</time>
      </trkpt>
      <trkpt lat="43.55586" lon="6.72331">
        <ele>220.09758</ele>
        <time>2011-02-12T11:48:33Z</time>
      </trkpt>
      <trkpt lat="43.55581" lon="6.72329">
        <ele>220.784927</ele>
        <time>2011-02-12T11:48:34Z</time>
      </trkpt>
      <trkpt lat="43.5556" lon="6.72327">
        <ele>222.060196</ele>
        <time>2011-02-12T11:48:40Z</time>
      </trkpt>
      <trkpt lat="43.55472" lon="6.72363">
        <ele>219.428162</ele>
        <time>2011-02-12T11:49:03Z</time>
      </trkpt>
      <trkpt lat="43.55468" lon="6.7237">
        <ele>217.417831</ele>
        <time>2011-02-12T11:49:05Z</time>
      </trkpt>
      <trkpt lat="43.55457" lon="6.72378">
        <ele>214.621063</ele>
        <time>2011-02-12T11:49:09Z</time>
      </trkpt>
      <trkpt lat="43.5545" lon="6.7238">
        <ele>213.796936</ele>
        <time>2011-02-12T11:49:11Z</time>
      </trkpt>
      <trkpt lat="43.55435" lon="6.72378">
        <ele>213.548187</ele>
        <time>2011-02-12T11:49:17Z</time>
      </trkpt>
      <trkpt lat="43.55425" lon="6.72385">
        <ele>211.821487</ele>
        <time>2011-02-12T11:49:22Z</time>
      </trkpt>
      <trkpt lat="43.55416" lon="6.72389">
        <ele>210.663345</ele>
        <time>2011-02-12T11:49:25Z</time>
      </trkpt>
      <trkpt lat="43.55412" lon="6.72389">
        <ele>210.492004</ele>
        <time>2011-02-12T11:49:27Z</time>
      </trkpt>
      <trkpt lat="43.55405" lon="6.72389">
        <ele>210.2388</ele>
        <time>2011-02-12T11:49:30Z</time>
      </trkpt>
      <trkpt lat="43.55397" lon="6.72389">
        <ele>209.90831</ele>
        <time>2011-02-12T11:49:35Z</time>
      </trkpt>
      <trkpt lat="43.55369" lon="6.72391">
        <ele>208.215561</ele>
        <time>2011-02-12T11:49:47Z</time>
      </trkpt>
      <trkpt lat="43.55362" lon="6.72393">
        <ele>207.617081</ele>
        <time>2011-02-12T11:49:50Z</time>
      </trkpt>
      <trkpt lat="43.55356" lon="6.724">
        <ele>206.571075</ele>
        <time>2011-02-12T11:49:54Z</time>
      </trkpt>
      <trkpt lat="43.55347" lon="6.72404">
        <ele>205.767166</ele>
        <time>2011-02-12T11:49:58Z</time>
      </trkpt>
      <trkpt lat="43.55341" lon="6.72389">
        <ele>206.985321</ele>
        <time>2011-02-12T11:50:07Z</time>
      </trkpt>
      <trkpt lat="43.55345" lon="6.7238">
        <ele>207.833801</ele>
        <time>2011-02-12T11:50:12Z</time>
      </trkpt>
      <trkpt lat="43.5535" lon="6.72372">
        <ele>208.82019</ele>
        <time>2011-02-12T11:50:17Z</time>
      </trkpt>
      <trkpt lat="43.55362" lon="6.72357">
        <ele>211.575455</ele>
        <time>2011-02-12T11:50:28Z</time>
      </trkpt>
      <trkpt lat="43.55365" lon="6.72357">
        <ele>211.844009</ele>
        <time>2011-02-12T11:50:29Z</time>
      </trkpt>
      <trkpt lat="43.55382" lon="6.72355">
        <ele>214.360474</ele>
        <time>2011-02-12T11:50:40Z</time>
      </trkpt>
      <trkpt lat="43.5539" lon="6.72353">
        <ele>215.614655</ele>
        <time>2011-02-12T11:50:46Z</time>
      </trkpt>
      <trkpt lat="43.55399" lon="6.72344">
        <ele>217.604355</ele>
        <time>2011-02-12T11:50:53Z</time>
      </trkpt>
      <trkpt lat="43.55405" lon="6.72338">
        <ele>219.16835</ele>
        <time>2011-02-12T11:50:59Z</time>
      </trkpt>
      <trkpt lat="43.55416" lon="6.72333">
        <ele>220.758469</ele>
        <time>2011-02-12T11:51:06Z</time>
      </trkpt>
      <trkpt lat="43.5544" lon="6.72314">
        <ele>224.193115</ele>
        <time>2011-02-12T11:51:22Z</time>
      </trkpt>
      <trkpt lat="43.55433" lon="6.7231">
        <ele>223.531372</ele>
        <time>2011-02-12T11:51:25Z</time>
      </trkpt>
      <trkpt lat="43.55427" lon="6.72307">
        <ele>223.081802</ele>
        <time>2011-02-12T11:51:27Z</time>
      </trkpt>
      <trkpt lat="43.55418" lon="6.72305">
        <ele>222.422592</ele>
        <time>2011-02-12T11:51:30Z</time>
      </trkpt>
      <trkpt lat="43.55403" lon="6.72303">
        <ele>221.161621</ele>
        <time>2011-02-12T11:51:34Z</time>
      </trkpt>
      <trkpt lat="43.55386" lon="6.72303">
        <ele>219.314316</ele>
        <time>2011-02-12T11:51:40Z</time>
      </trkpt>
      <trkpt lat="43.55375" lon="6.72305">
        <ele>217.149368</ele>
        <time>2011-02-12T11:51:42Z</time>
      </trkpt>
      <trkpt lat="43.55362" lon="6.72312">
        <ele>214.589035</ele>
        <time>2011-02-12T11:51:45Z</time>
      </trkpt>
      <trkpt lat="43.55358" lon="6.72314">
        <ele>213.765472</ele>
        <time>2011-02-12T11:51:46Z</time>
      </trkpt>
      <trkpt lat="43.55339" lon="6.72325">
        <ele>210.440216</ele>
        <time>2011-02-12T11:51:50Z</time>
      </trkpt>
      <trkpt lat="43.55335" lon="6.72331">
        <ele>209.636917</ele>
        <time>2011-02-12T11:51:51Z</time>
      </trkpt>
      <trkpt lat="43.55328" lon="6.7234">
        <ele>208.409988</ele>
        <time>2011-02-12T11:51:53Z</time>
      </trkpt>
      <trkpt lat="43.5532" lon="6.72348">
        <ele>207.062637</ele>
        <time>2011-02-12T11:51:55Z</time>
      </trkpt>
      <trkpt lat="43.55309" lon="6.72357">
        <ele>205.6633</ele>
        <time>2011-02-12T11:51:58Z</time>
      </trkpt>
      <trkpt lat="43.553" lon="6.72365">
        <ele>204.666656</ele>
        <time>2011-02-12T11:52:01Z</time>
      </trkpt>
      <trkpt lat="43.55287" lon="6.72376">
        <ele>203.728851</ele>
        <time>2011-02-12T11:52:05Z</time>
      </trkpt>
      <trkpt lat="43.55283" lon="6.72378">
        <ele>203.500793</ele>
        <time>2011-02-12T11:52:16Z</time>
      </trkpt>
      <trkpt lat="43.55283" lon="6.7238">
        <ele>203.479935</ele>
        <time>2011-02-12T11:52:27Z</time>
      </trkpt>
      <trkpt lat="43.55279" lon="6.72387">
        <ele>203.127823</ele>
        <time>2011-02-12T11:52:30Z</time>
      </trkpt>
      <trkpt lat="43.55274" lon="6.72395">
        <ele>202.590942</ele>
        <time>2011-02-12T11:52:35Z</time>
      </trkpt>
      <trkpt lat="43.55268" lon="6.72406">
        <ele>201.91333</ele>
        <time>2011-02-12T11:52:41Z</time>
      </trkpt>
      <trkpt lat="43.55264" lon="6.72415">
        <ele>201.436768</ele>
        <time>2011-02-12T11:52:47Z</time>
      </trkpt>
      <trkpt lat="43.55259" lon="6.72419">
        <ele>201.134842</ele>
        <time>2011-02-12T11:52:53Z</time>
      </trkpt>
      <trkpt lat="43.55238" lon="6.72468">
        <ele>198.961288</ele>
        <time>2011-02-12T11:53:12Z</time>
      </trkpt>
      <trkpt lat="43.55236" lon="6.72473">
        <ele>198.773468</ele>
        <time>2011-02-12T11:53:13Z</time>
      </trkpt>
      <trkpt lat="43.55217" lon="6.7249">
        <ele>197.757126</ele>
        <time>2011-02-12T11:53:22Z</time>
      </trkpt>
      <trkpt lat="43.55208" lon="6.72496">
        <ele>197.34288</ele>
        <time>2011-02-12T11:53:24Z</time>
      </trkpt>
      <trkpt lat="43.55178" lon="6.72516">
        <ele>193.868347</ele>
        <time>2011-02-12T11:53:32Z</time>
      </trkpt>
      <trkpt lat="43.55167" lon="6.72513">
        <ele>193.059448</ele>
        <time>2011-02-12T11:53:36Z</time>
      </trkpt>
      <trkpt lat="43.55156" lon="6.72511">
        <ele>192.240295</ele>
        <time>2011-02-12T11:53:39Z</time>
      </trkpt>
      <trkpt lat="43.5515" lon="6.72511">
        <ele>191.693848</ele>
        <time>2011-02-12T11:53:41Z</time>
      </trkpt>
      <trkpt lat="43.55133" lon="6.72513">
        <ele>190.175156</ele>
        <time>2011-02-12T11:53:47Z</time>
      </trkpt>
      <trkpt lat="43.55109" lon="6.72522">
        <ele>188.11113</ele>
        <time>2011-02-12T11:53:53Z</time>
      </trkpt>
      <trkpt lat="43.55098" lon="6.72531">
        <ele>187.807068</ele>
        <time>2011-02-12T11:53:57Z</time>
      </trkpt>
      <trkpt lat="43.55086" lon="6.72537">
        <ele>187.567047</ele>
        <time>2011-02-12T11:54:02Z</time>
      </trkpt>
      <trkpt lat="43.55079" lon="6.72539">
        <ele>187.481705</ele>
        <time>2011-02-12T11:54:04Z</time>
      </trkpt>
      <trkpt lat="43.55056" lon="6.72533">
        <ele>188.296783</ele>
        <time>2011-02-12T11:54:10Z</time>
      </trkpt>
      <trkpt lat="43.55047" lon="6.72524">
        <ele>189.120026</ele>
        <time>2011-02-12T11:54:14Z</time>
      </trkpt>
      <trkpt lat="43.55032" lon="6.7249">
        <ele>190.511887</ele>
        <time>2011-02-12T11:54:28Z</time>
      </trkpt>
      <trkpt lat="43.55034" lon="6.72477">
        <ele>190.83046</ele>
        <time>2011-02-12T11:54:34Z</time>
      </trkpt>
      <trkpt lat="43.55034" lon="6.72475">
        <ele>190.903687</ele>
        <time>2011-02-12T11:54:35Z</time>
      </trkpt>
      <trkpt lat="43.55032" lon="6.72464">
        <ele>191.359848</ele>
        <time>2011-02-12T11:54:40Z</time>
      </trkpt>
      <trkpt lat="43.5503" lon="6.72453">
        <ele>191.81601</ele>
        <time>2011-02-12T11:54:46Z</time>
      </trkpt>
      <trkpt lat="43.55023" lon="6.72451">
        <ele>192.159317</ele>
        <time>2011-02-12T11:54:49Z</time>
      </trkpt>
      <trkpt lat="43.55017" lon="6.72449">
        <ele>192.683838</ele>
        <time>2011-02-12T11:54:52Z</time>
      </trkpt>
      <trkpt lat="43.55006" lon="6.72445">
        <ele>193.593796</ele>
        <time>2011-02-12T11:54:59Z</time>
      </trkpt>
      <trkpt lat="43.54998" lon="6.72445">
        <ele>194.212387</ele>
        <time>2011-02-12T11:55:04Z</time>
      </trkpt>
      <trkpt lat="43.54989" lon="6.72447">
        <ele>194.785324</ele>
        <time>2011-02-12T11:55:10Z</time>
      </trkpt>
      <trkpt lat="43.54985" lon="6.72456">
        <ele>194.914413</ele>
        <time>2011-02-12T11:55:16Z</time>
      </trkpt>
      <trkpt lat="43.54993" lon="6.72466">
        <ele>193.986969</ele>
        <time>2011-02-12T11:55:23Z</time>
      </trkpt>
      <trkpt lat="43.54998" lon="6.72479">
        <ele>193.295227</ele>
        <time>2011-02-12T11:55:29Z</time>
      </trkpt>
      <trkpt lat="43.55004" lon="6.72498">
        <ele>192.563385</ele>
        <time>2011-02-12T11:55:38Z</time>
      </trkpt>
      <trkpt lat="43.55006" lon="6.72505">
        <ele>192.371445</ele>
        <time>2011-02-12T11:55:42Z</time>
      </trkpt>
      <trkpt lat="43.55015" lon="6.7255">
        <ele>191.47699</ele>
        <time>2011-02-12T11:56:05Z</time>
      </trkpt>
      <trkpt lat="43.55008" lon="6.72554">
        <ele>192.404785</ele>
        <time>2011-02-12T11:56:09Z</time>
      </trkpt>
      <trkpt lat="43.55006" lon="6.72554">
        <ele>192.651154</ele>
        <time>2011-02-12T11:56:10Z</time>
      </trkpt>
      <trkpt lat="43.54987" lon="6.72544">
        <ele>194.526962</ele>
        <time>2011-02-12T11:56:27Z</time>
      </trkpt>
      <trkpt lat="43.54987" lon="6.72544">
        <ele>194.526962</ele>
        <time>2011-02-12T11:56:28Z</time>
      </trkpt>
      <trkpt lat="43.5498" lon="6.72537">
        <ele>195.179871</ele>
        <time>2011-02-12T11:56:35Z</time>
      </trkpt>
      <trkpt lat="43.54974" lon="6.72533">
        <ele>195.826019</ele>
        <time>2011-02-12T11:56:40Z</time>
      </trkpt>
      <trkpt lat="43.54968" lon="6.72533">
        <ele>196.460846</ele>
        <time>2011-02-12T11:56:46Z</time>
      </trkpt>
      <trkpt lat="43.54959" lon="6.72531">
        <ele>197.255936</ele>
        <time>2011-02-12T11:56:52Z</time>
      </trkpt>
      <trkpt lat="43.54948" lon="6.72529">
        <ele>198.23259</ele>
        <time>2011-02-12T11:56:59Z</time>
      </trkpt>
      <trkpt lat="43.54942" lon="6.72531">
        <ele>198.967148</ele>
        <time>2011-02-12T11:57:04Z</time>
      </trkpt>
      <trkpt lat="43.54935" lon="6.72539">
        <ele>200.084595</ele>
        <time>2011-02-12T11:57:10Z</time>
      </trkpt>
      <trkpt lat="43.54929" lon="6.72552">
        <ele>200.815598</ele>
        <time>2011-02-12T11:57:17Z</time>
      </trkpt>
      <trkpt lat="43.54927" lon="6.72554">
        <ele>200.838547</ele>
        <time>2011-02-12T11:57:18Z</time>
      </trkpt>
      <trkpt lat="43.54923" lon="6.72559">
        <ele>200.872665</ele>
        <time>2011-02-12T11:57:21Z</time>
      </trkpt>
      <trkpt lat="43.5492" lon="6.72561">
        <ele>200.910233</ele>
        <time>2011-02-12T11:57:23Z</time>
      </trkpt>
      <trkpt lat="43.54914" lon="6.72563">
        <ele>201.092728</ele>
        <time>2011-02-12T11:57:28Z</time>
      </trkpt>
      <trkpt lat="43.54912" lon="6.72563">
        <ele>201.159882</ele>
        <time>2011-02-12T11:57:35Z</time>
      </trkpt>
      <trkpt lat="43.54916" lon="6.72567">
        <ele>201.025558</ele>
        <time>2011-02-12T11:57:40Z</time>
      </trkpt>
      <trkpt lat="43.54918" lon="6.72569">
        <ele>200.939331</ele>
        <time>2011-02-12T11:57:44Z</time>
      </trkpt>
      <trkpt lat="43.5492" lon="6.72571">
        <ele>200.840408</ele>
        <time>2011-02-12T11:58:17Z</time>
      </trkpt>
      <trkpt lat="43.54923" lon="6.72576">
        <ele>200.70607</ele>
        <time>2011-02-12T11:58:20Z</time>
      </trkpt>
      <trkpt lat="43.54927" lon="6.72582">
        <ele>200.392914</ele>
        <time>2011-02-12T11:58:23Z</time>
      </trkpt>
      <trkpt lat="43.54931" lon="6.72589">
        <ele>200.080887</ele>
        <time>2011-02-12T11:58:26Z</time>
      </trkpt>
      <trkpt lat="43.54933" lon="6.72595">
        <ele>199.927734</ele>
        <time>2011-02-12T11:58:28Z</time>
      </trkpt>
      <trkpt lat="43.5494" lon="6.72612">
        <ele>200.524399</ele>
        <time>2011-02-12T11:58:35Z</time>
      </trkpt>
      <trkpt lat="43.54942" lon="6.72629">
        <ele>202.44577</ele>
        <time>2011-02-12T11:58:41Z</time>
      </trkpt>
      <trkpt lat="43.5495" lon="6.72642">
        <ele>203.443268</ele>
        <time>2011-02-12T11:58:46Z</time>
      </trkpt>
      <trkpt lat="43.54953" lon="6.72647">
        <ele>203.782791</ele>
        <time>2011-02-12T11:58:47Z</time>
      </trkpt>
      <trkpt lat="43.54963" lon="6.72657">
        <ele>204.215775</ele>
        <time>2011-02-12T11:58:52Z</time>
      </trkpt>
      <trkpt lat="43.54961" lon="6.72664">
        <ele>205.003418</ele>
        <time>2011-02-12T11:58:55Z</time>
      </trkpt>
      <trkpt lat="43.54959" lon="6.72668">
        <ele>205.591461</ele>
        <time>2011-02-12T11:58:57Z</time>
      </trkpt>
      <trkpt lat="43.54957" lon="6.72672">
        <ele>206.461121</ele>
        <time>2011-02-12T11:58:59Z</time>
      </trkpt>
      <trkpt lat="43.54955" lon="6.72677">
        <ele>207.357193</ele>
        <time>2011-02-12T11:59:02Z</time>
      </trkpt>
      <trkpt lat="43.54953" lon="6.72679">
        <ele>207.865265</ele>
        <time>2011-02-12T11:59:03Z</time>
      </trkpt>
      <trkpt lat="43.5495" lon="6.72685">
        <ele>209.073639</ele>
        <time>2011-02-12T11:59:06Z</time>
      </trkpt>
      <trkpt lat="43.5494" lon="6.72704">
        <ele>212.593475</ele>
        <time>2011-02-12T11:59:17Z</time>
      </trkpt>
      <trkpt lat="43.54938" lon="6.72711">
        <ele>213.61734</ele>
        <time>2011-02-12T11:59:21Z</time>
      </trkpt>
      <trkpt lat="43.54938" lon="6.72713">
        <ele>213.942032</ele>
        <time>2011-02-12T11:59:22Z</time>
      </trkpt>
      <trkpt lat="43.54933" lon="6.72722">
        <ele>215.243698</ele>
        <time>2011-02-12T11:59:26Z</time>
      </trkpt>
      <trkpt lat="43.54929" lon="6.72726">
        <ele>215.839737</ele>
        <time>2011-02-12T11:59:29Z</time>
      </trkpt>
      <trkpt lat="43.54927" lon="6.72734">
        <ele>216.448715</ele>
        <time>2011-02-12T11:59:33Z</time>
      </trkpt>
      <trkpt lat="43.54925" lon="6.72739">
        <ele>216.622208</ele>
        <time>2011-02-12T11:59:35Z</time>
      </trkpt>
      <trkpt lat="43.54923" lon="6.72745">
        <ele>216.897171</ele>
        <time>2011-02-12T11:59:39Z</time>
      </trkpt>
      <trkpt lat="43.54918" lon="6.72752">
        <ele>217.164917</ele>
        <time>2011-02-12T11:59:42Z</time>
      </trkpt>
      <trkpt lat="43.54918" lon="6.72754">
        <ele>217.272781</ele>
        <time>2011-02-12T11:59:43Z</time>
      </trkpt>
      <trkpt lat="43.54916" lon="6.72758">
        <ele>217.495804</ele>
        <time>2011-02-12T11:59:46Z</time>
      </trkpt>
      <trkpt lat="43.54914" lon="6.72765">
        <ele>217.844543</ele>
        <time>2011-02-12T11:59:49Z</time>
      </trkpt>
      <trkpt lat="43.54912" lon="6.72769">
        <ele>218.095566</ele>
        <time>2011-02-12T11:59:51Z</time>
      </trkpt>
      <trkpt lat="43.54908" lon="6.72773">
        <ele>218.392426</ele>
        <time>2011-02-12T11:59:54Z</time>
      </trkpt>
      <trkpt lat="43.54901" lon="6.72771">
        <ele>218.363327</ele>
        <time>2011-02-12T12:00:00Z</time>
      </trkpt>
      <trkpt lat="43.54895" lon="6.72765">
        <ele>218.034012</ele>
        <time>2011-02-12T12:00:05Z</time>
      </trkpt>
      <trkpt lat="43.54886" lon="6.7275">
        <ele>217.034103</ele>
        <time>2011-02-12T12:00:33Z</time>
      </trkpt>
      <trkpt lat="43.54886" lon="6.7275">
        <ele>217.034103</ele>
        <time>2011-02-12T12:00:41Z</time>
      </trkpt>
      <trkpt lat="43.54882" lon="6.7275">
        <ele>217.039719</ele>
        <time>2011-02-12T12:00:46Z</time>
      </trkpt>
      <trkpt lat="43.54873" lon="6.7275">
        <ele>217.133682</ele>
        <time>2011-02-12T12:00:53Z</time>
      </trkpt>
      <trkpt lat="43.54865" lon="6.72754">
        <ele>217.823273</ele>
        <time>2011-02-12T12:01:00Z</time>
      </trkpt>
      <trkpt lat="43.54858" lon="6.72758">
        <ele>218.504196</ele>
        <time>2011-02-12T12:01:04Z</time>
      </trkpt>
      <trkpt lat="43.54858" lon="6.72758">
        <ele>218.504196</ele>
        <time>2011-02-12T12:01:05Z</time>
      </trkpt>
      <trkpt lat="43.5485" lon="6.72762">
        <ele>219.360229</ele>
        <time>2011-02-12T12:01:11Z</time>
      </trkpt>
      <trkpt lat="43.54841" lon="6.72769">
        <ele>220.553329</ele>
        <time>2011-02-12T12:01:17Z</time>
      </trkpt>
      <trkpt lat="43.54805" lon="6.72788">
        <ele>223.012436</ele>
        <time>2011-02-12T12:01:43Z</time>
      </trkpt>
      <trkpt lat="43.54802" lon="6.7279">
        <ele>223.224106</ele>
        <time>2011-02-12T12:01:46Z</time>
      </trkpt>
      <trkpt lat="43.548" lon="6.72792">
        <ele>223.476761</ele>
        <time>2011-02-12T12:01:47Z</time>
      </trkpt>
      <trkpt lat="43.54794" lon="6.72797">
        <ele>224.232544</ele>
        <time>2011-02-12T12:01:52Z</time>
      </trkpt>
      <trkpt lat="43.54792" lon="6.7281">
        <ele>225.946243</ele>
        <time>2011-02-12T12:01:59Z</time>
      </trkpt>
      <trkpt lat="43.54792" lon="6.72814">
        <ele>226.46106</ele>
        <time>2011-02-12T12:02:04Z</time>
      </trkpt>
      <trkpt lat="43.54794" lon="6.7282">
        <ele>226.873032</ele>
        <time>2011-02-12T12:02:11Z</time>
      </trkpt>
      <trkpt lat="43.54796" lon="6.72825">
        <ele>226.947525</ele>
        <time>2011-02-12T12:02:41Z</time>
      </trkpt>
      <trkpt lat="43.54813" lon="6.72853">
        <ele>224.956665</ele>
        <time>2011-02-12T12:02:59Z</time>
      </trkpt>
      <trkpt lat="43.54841" lon="6.72913">
        <ele>222.332108</ele>
        <time>2011-02-12T12:03:29Z</time>
      </trkpt>
      <trkpt lat="43.54843" lon="6.72923">
        <ele>221.918625</ele>
        <time>2011-02-12T12:03:35Z</time>
      </trkpt>
      <trkpt lat="43.54845" lon="6.72938">
        <ele>221.520035</ele>
        <time>2011-02-12T12:03:41Z</time>
      </trkpt>
      <trkpt lat="43.54841" lon="6.72951">
        <ele>221.985229</ele>
        <time>2011-02-12T12:03:46Z</time>
      </trkpt>
      <trkpt lat="43.54828" lon="6.72962">
        <ele>223.388</ele>
        <time>2011-02-12T12:03:53Z</time>
      </trkpt>
      <trkpt lat="43.54815" lon="6.72968">
        <ele>225.819489</ele>
        <time>2011-02-12T12:04:07Z</time>
      </trkpt>
      <trkpt lat="43.54815" lon="6.72968">
        <ele>225.819489</ele>
        <time>2011-02-12T12:04:10Z</time>
      </trkpt>
      <trkpt lat="43.54813" lon="6.72979">
        <ele>228.10817</ele>
        <time>2011-02-12T12:04:17Z</time>
      </trkpt>
      <trkpt lat="43.54815" lon="6.72986">
        <ele>228.62999</ele>
        <time>2011-02-12T12:04:22Z</time>
      </trkpt>
      <trkpt lat="43.54832" lon="6.72994">
        <ele>226.847794</ele>
        <time>2011-02-12T12:04:43Z</time>
      </trkpt>
      <trkpt lat="43.54837" lon="6.72994">
        <ele>226.160858</ele>
        <time>2011-02-12T12:04:45Z</time>
      </trkpt>
      <trkpt lat="43.54852" lon="6.73001">
        <ele>224.605133</ele>
        <time>2011-02-12T12:04:53Z</time>
      </trkpt>
      <trkpt lat="43.54862" lon="6.73007">
        <ele>223.555084</ele>
        <time>2011-02-12T12:04:59Z</time>
      </trkpt>
      <trkpt lat="43.54869" lon="6.73013">
        <ele>223.604691</ele>
        <time>2011-02-12T12:05:04Z</time>
      </trkpt>
      <trkpt lat="43.54871" lon="6.7302">
        <ele>224.161148</ele>
        <time>2011-02-12T12:05:07Z</time>
      </trkpt>
      <trkpt lat="43.54875" lon="6.73031">
        <ele>224.96521</ele>
        <time>2011-02-12T12:05:12Z</time>
      </trkpt>
      <trkpt lat="43.54877" lon="6.73043">
        <ele>225.373352</ele>
        <time>2011-02-12T12:05:17Z</time>
      </trkpt>
      <trkpt lat="43.54875" lon="6.73054">
        <ele>225.902298</ele>
        <time>2011-02-12T12:05:22Z</time>
      </trkpt>
      <trkpt lat="43.54871" lon="6.73067">
        <ele>226.926559</ele>
        <time>2011-02-12T12:05:28Z</time>
      </trkpt>
      <trkpt lat="43.54854" lon="6.73078">
        <ele>230.927399</ele>
        <time>2011-02-12T12:05:41Z</time>
      </trkpt>
      <trkpt lat="43.5485" lon="6.73084">
        <ele>232.364029</ele>
        <time>2011-02-12T12:05:46Z</time>
      </trkpt>
      <trkpt lat="43.54847" lon="6.73091">
        <ele>233.306702</ele>
        <time>2011-02-12T12:05:52Z</time>
      </trkpt>
      <trkpt lat="43.5485" lon="6.73093">
        <ele>232.910202</ele>
        <time>2011-02-12T12:05:56Z</time>
      </trkpt>
      <trkpt lat="43.5485" lon="6.73095">
        <ele>232.782944</ele>
        <time>2011-02-12T12:06:00Z</time>
      </trkpt>
      <trkpt lat="43.5485" lon="6.73095">
        <ele>232.782944</ele>
        <time>2011-02-12T12:06:02Z</time>
      </trkpt>
      <trkpt lat="43.5485" lon="6.73095">
        <ele>232.782944</ele>
        <time>2011-02-12T12:06:16Z</time>
      </trkpt>
      <trkpt lat="43.5485" lon="6.73108">
        <ele>231.459183</ele>
        <time>2011-02-12T12:06:23Z</time>
      </trkpt>
      <trkpt lat="43.5485" lon="6.73127">
        <ele>229.464462</ele>
        <time>2011-02-12T12:06:34Z</time>
      </trkpt>
      <trkpt lat="43.54845" lon="6.73136">
        <ele>229.658264</ele>
        <time>2011-02-12T12:06:40Z</time>
      </trkpt>
      <trkpt lat="43.54837" lon="6.73131">
        <ele>232.254517</ele>
        <time>2011-02-12T12:06:47Z</time>
      </trkpt>
      <trkpt lat="43.54835" lon="6.73123">
        <ele>233.63736</ele>
        <time>2011-02-12T12:06:53Z</time>
      </trkpt>
      <trkpt lat="43.54837" lon="6.73114">
        <ele>233.951187</ele>
        <time>2011-02-12T12:06:59Z</time>
      </trkpt>
      <trkpt lat="43.54835" lon="6.73106">
        <ele>235.316544</ele>
        <time>2011-02-12T12:07:05Z</time>
      </trkpt>
      <trkpt lat="43.5483" lon="6.73097">
        <ele>237.180984</ele>
        <time>2011-02-12T12:07:11Z</time>
      </trkpt>
      <trkpt lat="43.5483" lon="6.73084">
        <ele>237.087006</ele>
        <time>2011-02-12T12:07:19Z</time>
      </trkpt>
      <trkpt lat="43.54828" lon="6.73078">
        <ele>237.102982</ele>
        <time>2011-02-12T12:07:24Z</time>
      </trkpt>
      <trkpt lat="43.54828" lon="6.73071">
        <ele>236.589218</ele>
        <time>2011-02-12T12:07:28Z</time>
      </trkpt>
      <trkpt lat="43.54826" lon="6.73061">
        <ele>236.219116</ele>
        <time>2011-02-12T12:07:35Z</time>
      </trkpt>
      <trkpt lat="43.54822" lon="6.73054">
        <ele>236.653885</ele>
        <time>2011-02-12T12:07:41Z</time>
      </trkpt>
      <trkpt lat="43.54817" lon="6.7305">
        <ele>237.247177</ele>
        <time>2011-02-12T12:07:46Z</time>
      </trkpt>
      <trkpt lat="43.54809" lon="6.73048">
        <ele>239.016449</ele>
        <time>2011-02-12T12:07:53Z</time>
      </trkpt>
      <trkpt lat="43.54802" lon="6.73048">
        <ele>240.494781</ele>
        <time>2011-02-12T12:07:58Z</time>
      </trkpt>
      <trkpt lat="43.54796" lon="6.73046">
        <ele>241.738983</ele>
        <time>2011-02-12T12:08:04Z</time>
      </trkpt>
      <trkpt lat="43.54789" lon="6.73043">
        <ele>242.959976</ele>
        <time>2011-02-12T12:08:11Z</time>
      </trkpt>
      <trkpt lat="43.54785" lon="6.73039">
        <ele>243.405258</ele>
        <time>2011-02-12T12:08:17Z</time>
      </trkpt>
      <trkpt lat="43.54783" lon="6.73035">
        <ele>243.340927</ele>
        <time>2011-02-12T12:08:20Z</time>
      </trkpt>
      <trkpt lat="43.54781" lon="6.73033">
        <ele>243.534393</ele>
        <time>2011-02-12T12:08:21Z</time>
      </trkpt>
      <trkpt lat="43.54779" lon="6.73031">
        <ele>243.718338</ele>
        <time>2011-02-12T12:08:24Z</time>
      </trkpt>
      <trkpt lat="43.54777" lon="6.73024">
        <ele>243.307266</ele>
        <time>2011-02-12T12:08:28Z</time>
      </trkpt>
      <trkpt lat="43.5477" lon="6.73018">
        <ele>244.224197</ele>
        <time>2011-02-12T12:08:35Z</time>
      </trkpt>
      <trkpt lat="43.54766" lon="6.73018">
        <ele>245.553192</ele>
        <time>2011-02-12T12:08:38Z</time>
      </trkpt>
      <trkpt lat="43.54762" lon="6.73013">
        <ele>246.212982</ele>
        <time>2011-02-12T12:08:42Z</time>
      </trkpt>
      <trkpt lat="43.54762" lon="6.73013">
        <ele>246.212982</ele>
        <time>2011-02-12T12:08:43Z</time>
      </trkpt>
      <trkpt lat="43.54755" lon="6.73009">
        <ele>247.447784</ele>
        <time>2011-02-12T12:08:47Z</time>
      </trkpt>
      <trkpt lat="43.54747" lon="6.73005">
        <ele>249.219589</ele>
        <time>2011-02-12T12:08:53Z</time>
      </trkpt>
      <trkpt lat="43.54734" lon="6.72998">
        <ele>251.663177</ele>
        <time>2011-02-12T12:09:05Z</time>
      </trkpt>
      <trkpt lat="43.54727" lon="6.7299">
        <ele>251.422775</ele>
        <time>2011-02-12T12:09:12Z</time>
      </trkpt>
      <trkpt lat="43.54725" lon="6.72988">
        <ele>251.462631</ele>
        <time>2011-02-12T12:09:15Z</time>
      </trkpt>
      <trkpt lat="43.54725" lon="6.72986">
        <ele>251.031631</ele>
        <time>2011-02-12T12:09:16Z</time>
      </trkpt>
      <trkpt lat="43.54717" lon="6.72979">
        <ele>251.876144</ele>
        <time>2011-02-12T12:09:23Z</time>
      </trkpt>
      <trkpt lat="43.5471" lon="6.72973">
        <ele>252.453094</ele>
        <time>2011-02-12T12:09:29Z</time>
      </trkpt>
      <trkpt lat="43.54704" lon="6.72966">
        <ele>253.258743</ele>
        <time>2011-02-12T12:09:35Z</time>
      </trkpt>
      <trkpt lat="43.54699" lon="6.72958">
        <ele>253.434769</ele>
        <time>2011-02-12T12:09:42Z</time>
      </trkpt>
      <trkpt lat="43.54678" lon="6.7293">
        <ele>255.33223</ele>
        <time>2011-02-12T12:10:05Z</time>
      </trkpt>
      <trkpt lat="43.54674" lon="6.72925">
        <ele>255.345016</ele>
        <time>2011-02-12T12:10:09Z</time>
      </trkpt>
      <trkpt lat="43.54674" lon="6.72923">
        <ele>255.144699</ele>
        <time>2011-02-12T12:10:10Z</time>
      </trkpt>
      <trkpt lat="43.54669" lon="6.72919">
        <ele>255.157486</ele>
        <time>2011-02-12T12:10:14Z</time>
      </trkpt>
      <trkpt lat="43.54667" lon="6.72917">
        <ele>255.163879</ele>
        <time>2011-02-12T12:10:16Z</time>
      </trkpt>
      <trkpt lat="43.54661" lon="6.72908">
        <ele>254.982742</ele>
        <time>2011-02-12T12:10:23Z</time>
      </trkpt>
      <trkpt lat="43.54646" lon="6.72904">
        <ele>256.029053</ele>
        <time>2011-02-12T12:10:34Z</time>
      </trkpt>
      <trkpt lat="43.54626" lon="6.72915">
        <ele>256.499451</ele>
        <time>2011-02-12T12:10:49Z</time>
      </trkpt>
      <trkpt lat="43.54618" lon="6.72919">
        <ele>256.436249</ele>
        <time>2011-02-12T12:10:57Z</time>
      </trkpt>
      <trkpt lat="43.54616" lon="6.72921">
        <ele>256.480591</ele>
        <time>2011-02-12T12:10:58Z</time>
      </trkpt>
      <trkpt lat="43.54607" lon="6.72925">
        <ele>256.295776</ele>
        <time>2011-02-12T12:11:04Z</time>
      </trkpt>
      <trkpt lat="43.54607" lon="6.72921">
        <ele>256.037628</ele>
        <time>2011-02-12T12:11:05Z</time>
      </trkpt>
      <trkpt lat="43.54586" lon="6.72795">
        <ele>245.291199</ele>
        <time>2011-02-12T12:11:07Z</time>
      </trkpt>
      <trkpt lat="43.54584" lon="6.72771">
        <ele>244.304794</ele>
        <time>2011-02-12T12:11:09Z</time>
      </trkpt>
      <trkpt lat="43.54584" lon="6.7276">
        <ele>244.006668</ele>
        <time>2011-02-12T12:11:10Z</time>
      </trkpt>
      <trkpt lat="43.54584" lon="6.72747">
        <ele>243.874527</ele>
        <time>2011-02-12T12:11:11Z</time>
      </trkpt>
      <trkpt lat="43.54581" lon="6.72698">
        <ele>243.683578</ele>
        <time>2011-02-12T12:11:16Z</time>
      </trkpt>
      <trkpt lat="43.54558" lon="6.72672">
        <ele>245.705322</ele>
        <time>2011-02-12T12:11:21Z</time>
      </trkpt>
      <trkpt lat="43.54553" lon="6.72672">
        <ele>246.2099</ele>
        <time>2011-02-12T12:11:22Z</time>
      </trkpt>
      <trkpt lat="43.54536" lon="6.7267">
        <ele>248.271408</ele>
        <time>2011-02-12T12:11:28Z</time>
      </trkpt>
      <trkpt lat="43.5453" lon="6.72668">
        <ele>249.108063</ele>
        <time>2011-02-12T12:11:33Z</time>
      </trkpt>
      <trkpt lat="43.54526" lon="6.72666">
        <ele>249.711853</ele>
        <time>2011-02-12T12:11:35Z</time>
      </trkpt>
      <trkpt lat="43.54519" lon="6.72664">
        <ele>250.59227</ele>
        <time>2011-02-12T12:11:39Z</time>
      </trkpt>
      <trkpt lat="43.54519" lon="6.72664">
        <ele>250.59227</ele>
        <time>2011-02-12T12:11:40Z</time>
      </trkpt>
      <trkpt lat="43.54515" lon="6.72655">
        <ele>251.847031</ele>
        <time>2011-02-12T12:11:44Z</time>
      </trkpt>
      <trkpt lat="43.54515" lon="6.72653">
        <ele>251.97438</ele>
        <time>2011-02-12T12:11:45Z</time>
      </trkpt>
      <trkpt lat="43.54515" lon="6.72649">
        <ele>252.229919</ele>
        <time>2011-02-12T12:11:47Z</time>
      </trkpt>
      <trkpt lat="43.54513" lon="6.72636">
        <ele>253.421188</ele>
        <time>2011-02-12T12:11:53Z</time>
      </trkpt>
      <trkpt lat="43.54515" lon="6.72623">
        <ele>253.85907</ele>
        <time>2011-02-12T12:11:59Z</time>
      </trkpt>
      <trkpt lat="43.54517" lon="6.72608">
        <ele>254.374588</ele>
        <time>2011-02-12T12:12:07Z</time>
      </trkpt>
      <trkpt lat="43.54519" lon="6.72595">
        <ele>254.667892</ele>
        <time>2011-02-12T12:12:14Z</time>
      </trkpt>
      <trkpt lat="43.54521" lon="6.72589">
        <ele>254.486343</ele>
        <time>2011-02-12T12:12:18Z</time>
      </trkpt>
      <trkpt lat="43.54521" lon="6.72584">
        <ele>254.751602</ele>
        <time>2011-02-12T12:12:20Z</time>
      </trkpt>
      <trkpt lat="43.54521" lon="6.7258">
        <ele>255.019531</ele>
        <time>2011-02-12T12:12:23Z</time>
      </trkpt>
      <trkpt lat="43.54521" lon="6.72561">
        <ele>257.457428</ele>
        <time>2011-02-12T12:12:34Z</time>
      </trkpt>
      <trkpt lat="43.54526" lon="6.7255">
        <ele>258.019897</ele>
        <time>2011-02-12T12:12:41Z</time>
      </trkpt>
      <trkpt lat="43.5453" lon="6.72531">
        <ele>259.98291</ele>
        <time>2011-02-12T12:12:50Z</time>
      </trkpt>
      <trkpt lat="43.5453" lon="6.72529">
        <ele>260.299561</ele>
        <time>2011-02-12T12:12:52Z</time>
      </trkpt>
      <trkpt lat="43.54532" lon="6.72522">
        <ele>260.734161</ele>
        <time>2011-02-12T12:12:55Z</time>
      </trkpt>
      <trkpt lat="43.54534" lon="6.7252">
        <ele>260.520172</ele>
        <time>2011-02-12T12:12:57Z</time>
      </trkpt>
      <trkpt lat="43.54534" lon="6.72513">
        <ele>261.440247</ele>
        <time>2011-02-12T12:13:00Z</time>
      </trkpt>
      <trkpt lat="43.54534" lon="6.72505">
        <ele>262.482391</ele>
        <time>2011-02-12T12:13:05Z</time>
      </trkpt>
      <trkpt lat="43.54541" lon="6.72483">
        <ele>263.228699</ele>
        <time>2011-02-12T12:13:17Z</time>
      </trkpt>
      <trkpt lat="43.54541" lon="6.72449">
        <ele>266.985901</ele>
        <time>2011-02-12T12:13:35Z</time>
      </trkpt>
      <trkpt lat="43.54538" lon="6.72441">
        <ele>267.625824</ele>
        <time>2011-02-12T12:13:41Z</time>
      </trkpt>
      <trkpt lat="43.54534" lon="6.72432">
        <ele>268.935883</ele>
        <time>2011-02-12T12:13:47Z</time>
      </trkpt>
      <trkpt lat="43.54532" lon="6.72419">
        <ele>269.560699</ele>
        <time>2011-02-12T12:13:55Z</time>
      </trkpt>
      <trkpt lat="43.5453" lon="6.72413">
        <ele>270.20816</ele>
        <time>2011-02-12T12:13:58Z</time>
      </trkpt>
      <trkpt lat="43.54526" lon="6.724">
        <ele>271.578674</ele>
        <time>2011-02-12T12:14:06Z</time>
      </trkpt>
      <trkpt lat="43.54523" lon="6.72393">
        <ele>272.284241</ele>
        <time>2011-02-12T12:14:10Z</time>
      </trkpt>
      <trkpt lat="43.54523" lon="6.72391">
        <ele>272.28363</ele>
        <time>2011-02-12T12:14:12Z</time>
      </trkpt>
      <trkpt lat="43.54523" lon="6.72387">
        <ele>272.373535</ele>
        <time>2011-02-12T12:14:14Z</time>
      </trkpt>
      <trkpt lat="43.54519" lon="6.72363">
        <ele>276.483276</ele>
        <time>2011-02-12T12:14:29Z</time>
      </trkpt>
      <trkpt lat="43.54519" lon="6.72348">
        <ele>278.217224</ele>
        <time>2011-02-12T12:14:40Z</time>
      </trkpt>
      <trkpt lat="43.54519" lon="6.72346">
        <ele>278.465485</ele>
        <time>2011-02-12T12:14:41Z</time>
      </trkpt>
      <trkpt lat="43.54521" lon="6.72338">
        <ele>278.7229</ele>
        <time>2011-02-12T12:14:48Z</time>
      </trkpt>
      <trkpt lat="43.54523" lon="6.72335">
        <ele>278.231384</ele>
        <time>2011-02-12T12:14:50Z</time>
      </trkpt>
      <trkpt lat="43.54538" lon="6.72305">
        <ele>279.91748</ele>
        <time>2011-02-12T12:15:11Z</time>
      </trkpt>
      <trkpt lat="43.54545" lon="6.72299">
        <ele>279.875946</ele>
        <time>2011-02-12T12:15:16Z</time>
      </trkpt>
      <trkpt lat="43.54556" lon="6.7228">
        <ele>281.852631</ele>
        <time>2011-02-12T12:15:29Z</time>
      </trkpt>
      <trkpt lat="43.54558" lon="6.72275">
        <ele>282.336182</ele>
        <time>2011-02-12T12:15:32Z</time>
      </trkpt>
      <trkpt lat="43.5456" lon="6.72271">
        <ele>282.813416</ele>
        <time>2011-02-12T12:15:36Z</time>
      </trkpt>
      <trkpt lat="43.54564" lon="6.72267">
        <ele>282.680664</ele>
        <time>2011-02-12T12:15:39Z</time>
      </trkpt>
      <trkpt lat="43.54564" lon="6.72265">
        <ele>283.067566</ele>
        <time>2011-02-12T12:15:40Z</time>
      </trkpt>
      <trkpt lat="43.54571" lon="6.72256">
        <ele>282.737885</ele>
        <time>2011-02-12T12:15:47Z</time>
      </trkpt>
      <trkpt lat="43.54575" lon="6.72247">
        <ele>282.90744</ele>
        <time>2011-02-12T12:15:53Z</time>
      </trkpt>
      <trkpt lat="43.54577" lon="6.72239">
        <ele>283.661469</ele>
        <time>2011-02-12T12:15:59Z</time>
      </trkpt>
      <trkpt lat="43.54599" lon="6.722">
        <ele>282.546478</ele>
        <time>2011-02-12T12:16:29Z</time>
      </trkpt>
      <trkpt lat="43.54603" lon="6.72192">
        <ele>281.749298</ele>
        <time>2011-02-12T12:16:35Z</time>
      </trkpt>
      <trkpt lat="43.54601" lon="6.72185">
        <ele>282.854858</ele>
        <time>2011-02-12T12:16:38Z</time>
      </trkpt>
      <trkpt lat="43.54599" lon="6.7217">
        <ele>284.563904</ele>
        <time>2011-02-12T12:16:47Z</time>
      </trkpt>
      <trkpt lat="43.54599" lon="6.72162">
        <ele>285.149994</ele>
        <time>2011-02-12T12:16:51Z</time>
      </trkpt>
      <trkpt lat="43.54599" lon="6.72157">
        <ele>285.444641</ele>
        <time>2011-02-12T12:16:54Z</time>
      </trkpt>
      <trkpt lat="43.54599" lon="6.72153">
        <ele>285.740387</ele>
        <time>2011-02-12T12:16:57Z</time>
      </trkpt>
      <trkpt lat="43.54599" lon="6.72123">
        <ele>289.492645</ele>
        <time>2011-02-12T12:17:14Z</time>
      </trkpt>
      <trkpt lat="43.54601" lon="6.72117">
        <ele>289.584534</ele>
        <time>2011-02-12T12:17:18Z</time>
      </trkpt>
      <trkpt lat="43.54601" lon="6.72114">
        <ele>289.887299</ele>
        <time>2011-02-12T12:17:20Z</time>
      </trkpt>
      <trkpt lat="43.54603" lon="6.72108">
        <ele>289.938416</ele>
        <time>2011-02-12T12:17:24Z</time>
      </trkpt>
      <trkpt lat="43.54605" lon="6.72101">
        <ele>289.953827</ele>
        <time>2011-02-12T12:17:28Z</time>
      </trkpt>
      <trkpt lat="43.54609" lon="6.72093">
        <ele>289.312286</ele>
        <time>2011-02-12T12:17:35Z</time>
      </trkpt>
      <trkpt lat="43.54614" lon="6.72074">
        <ele>289.981598</ele>
        <time>2011-02-12T12:17:47Z</time>
      </trkpt>
      <trkpt lat="43.54614" lon="6.72061">
        <ele>291.670441</ele>
        <time>2011-02-12T12:18:18Z</time>
      </trkpt>
      <trkpt lat="43.54614" lon="6.72063">
        <ele>291.388977</ele>
        <time>2011-02-12T12:18:59Z</time>
      </trkpt>
      <trkpt lat="43.54614" lon="6.72063">
        <ele>291.388977</ele>
        <time>2011-02-12T12:19:22Z</time>
      </trkpt>
      <trkpt lat="43.54611" lon="6.72067">
        <ele>291.760925</ele>
        <time>2011-02-12T12:20:08Z</time>
      </trkpt>
      <trkpt lat="43.54605" lon="6.72071">
        <ele>294.002625</ele>
        <time>2011-02-12T12:20:11Z</time>
      </trkpt>
      <trkpt lat="43.54599" lon="6.72078">
        <ele>295.96286</ele>
        <time>2011-02-12T12:20:18Z</time>
      </trkpt>
      <trkpt lat="43.54577" lon="6.72127">
        <ele>298.292145</ele>
        <time>2011-02-12T12:20:45Z</time>
      </trkpt>
      <trkpt lat="43.54568" lon="6.72142">
        <ele>300.845184</ele>
        <time>2011-02-12T12:20:53Z</time>
      </trkpt>
      <trkpt lat="43.54568" lon="6.72142">
        <ele>300.845184</ele>
        <time>2011-02-12T12:21:13Z</time>
      </trkpt>
      <trkpt lat="43.54568" lon="6.72142">
        <ele>300.845184</ele>
        <time>2011-02-12T12:21:42Z</time>
      </trkpt>
      <trkpt lat="43.54538" lon="6.72215">
        <ele>301.057983</ele>
        <time>2011-02-12T12:21:57Z</time>
      </trkpt>
      <trkpt lat="43.54538" lon="6.72215">
        <ele>301.057983</ele>
        <time>2011-02-12T12:21:58Z</time>
      </trkpt>
      <trkpt lat="43.54534" lon="6.72237">
        <ele>298.052979</ele>
        <time>2011-02-12T12:22:05Z</time>
      </trkpt>
      <trkpt lat="43.54528" lon="6.72237">
        <ele>301.23877</ele>
        <time>2011-02-12T12:22:14Z</time>
      </trkpt>
      <trkpt lat="43.54526" lon="6.72239">
        <ele>301.805298</ele>
        <time>2011-02-12T12:22:16Z</time>
      </trkpt>
      <trkpt lat="43.54521" lon="6.72245">
        <ele>302.443024</ele>
        <time>2011-02-12T12:22:22Z</time>
      </trkpt>
      <trkpt lat="43.54519" lon="6.72247">
        <ele>303.009583</ele>
        <time>2011-02-12T12:22:24Z</time>
      </trkpt>
      <trkpt lat="43.54513" lon="6.72252">
        <ele>305.20459</ele>
        <time>2011-02-12T12:22:28Z</time>
      </trkpt>
      <trkpt lat="43.54504" lon="6.72265">
        <ele>306.2453</ele>
        <time>2011-02-12T12:22:40Z</time>
      </trkpt>
      <trkpt lat="43.54485" lon="6.72275">
        <ele>310.694153</ele>
        <time>2011-02-12T12:22:53Z</time>
      </trkpt>
      <trkpt lat="43.54472" lon="6.7229">
        <ele>310.657715</ele>
        <time>2011-02-12T12:23:05Z</time>
      </trkpt>
      <trkpt lat="43.54465" lon="6.72301">
        <ele>310.471344</ele>
        <time>2011-02-12T12:23:11Z</time>
      </trkpt>
      <trkpt lat="43.54459" lon="6.7231">
        <ele>311.429047</ele>
        <time>2011-02-12T12:23:16Z</time>
      </trkpt>
      <trkpt lat="43.5445" lon="6.7232">
        <ele>313.65036</ele>
        <time>2011-02-12T12:23:24Z</time>
      </trkpt>
      <trkpt lat="43.54446" lon="6.72329">
        <ele>313.988922</ele>
        <time>2011-02-12T12:23:29Z</time>
      </trkpt>
      <trkpt lat="43.5445" lon="6.72318">
        <ele>314.091125</ele>
        <time>2011-02-12T12:23:32Z</time>
      </trkpt>
      <trkpt lat="43.54457" lon="6.72307">
        <ele>313.013885</ele>
        <time>2011-02-12T12:23:37Z</time>
      </trkpt>
      <trkpt lat="43.54461" lon="6.72301">
        <ele>312.468872</ele>
        <time>2011-02-12T12:23:41Z</time>
      </trkpt>
      <trkpt lat="43.54474" lon="6.72286">
        <ele>311.074707</ele>
        <time>2011-02-12T12:23:52Z</time>
      </trkpt>
      <trkpt lat="43.54515" lon="6.72224">
        <ele>310.582611</ele>
        <time>2011-02-12T12:24:22Z</time>
      </trkpt>
      <trkpt lat="43.54526" lon="6.72151">
        <ele>319.472534</ele>
        <time>2011-02-12T12:24:40Z</time>
      </trkpt>
      <trkpt lat="43.54534" lon="6.72078">
        <ele>322.579926</ele>
        <time>2011-02-12T12:25:01Z</time>
      </trkpt>
      <trkpt lat="43.54549" lon="6.71992">
        <ele>322.500549</ele>
        <time>2011-02-12T12:25:26Z</time>
      </trkpt>
      <trkpt lat="43.5456" lon="6.71934">
        <ele>321.889954</ele>
        <time>2011-02-12T12:25:42Z</time>
      </trkpt>
      <trkpt lat="43.54586" lon="6.71799">
        <ele>320.438141</ele>
        <time>2011-02-12T12:26:14Z</time>
      </trkpt>
      <trkpt lat="43.54592" lon="6.71754">
        <ele>320.774231</ele>
        <time>2011-02-12T12:26:24Z</time>
      </trkpt>
      <trkpt lat="43.54592" lon="6.7172">
        <ele>322.336029</ele>
        <time>2011-02-12T12:26:33Z</time>
      </trkpt>
      <trkpt lat="43.54592" lon="6.71657">
        <ele>326.30072</ele>
        <time>2011-02-12T12:26:53Z</time>
      </trkpt>
      <trkpt lat="43.54592" lon="6.71655">
        <ele>326.441284</ele>
        <time>2011-02-12T12:26:54Z</time>
      </trkpt>
      <trkpt lat="43.54594" lon="6.71604">
        <ele>329.641876</ele>
        <time>2011-02-12T12:27:11Z</time>
      </trkpt>
      <trkpt lat="43.54594" lon="6.71604">
        <ele>329.641876</ele>
        <time>2011-02-12T12:27:31Z</time>
      </trkpt>
      <trkpt lat="43.54639" lon="6.71533">
        <ele>327.559906</ele>
        <time>2011-02-12T12:27:48Z</time>
      </trkpt>
      <trkpt lat="43.54639" lon="6.71533">
        <ele>327.559906</ele>
        <time>2011-02-12T12:27:49Z</time>
      </trkpt>
      <trkpt lat="43.54646" lon="6.71526">
        <ele>326.971985</ele>
        <time>2011-02-12T12:27:53Z</time>
      </trkpt>
      <trkpt lat="43.5465" lon="6.7152">
        <ele>326.767395</ele>
        <time>2011-02-12T12:27:57Z</time>
      </trkpt>
      <trkpt lat="43.54648" lon="6.71518">
        <ele>327.252197</ele>
        <time>2011-02-12T12:27:58Z</time>
      </trkpt>
      <trkpt lat="43.54656" lon="6.71496">
        <ele>327.849792</ele>
        <time>2011-02-12T12:28:06Z</time>
      </trkpt>
      <trkpt lat="43.54659" lon="6.7149">
        <ele>327.592285</ele>
        <time>2011-02-12T12:28:08Z</time>
      </trkpt>
      <trkpt lat="43.54663" lon="6.71479">
        <ele>326.928558</ele>
        <time>2011-02-12T12:28:12Z</time>
      </trkpt>
      <trkpt lat="43.54676" lon="6.71408">
        <ele>327.459381</ele>
        <time>2011-02-12T12:28:35Z</time>
      </trkpt>
      <trkpt lat="43.5468" lon="6.71368">
        <ele>328.937927</ele>
        <time>2011-02-12T12:28:50Z</time>
      </trkpt>
      <trkpt lat="43.54682" lon="6.71361">
        <ele>328.787201</ele>
        <time>2011-02-12T12:28:52Z</time>
      </trkpt>
      <trkpt lat="43.54682" lon="6.7134">
        <ele>330.574554</ele>
        <time>2011-02-12T12:28:59Z</time>
      </trkpt>
      <trkpt lat="43.54682" lon="6.71335">
        <ele>331.003571</ele>
        <time>2011-02-12T12:29:01Z</time>
      </trkpt>
      <trkpt lat="43.54684" lon="6.71327">
        <ele>331.392822</ele>
        <time>2011-02-12T12:29:04Z</time>
      </trkpt>
      <trkpt lat="43.54689" lon="6.71265">
        <ele>336.930115</ele>
        <time>2011-02-12T12:29:29Z</time>
      </trkpt>
      <trkpt lat="43.54697" lon="6.71256">
        <ele>337.305817</ele>
        <time>2011-02-12T12:29:35Z</time>
      </trkpt>
      <trkpt lat="43.54697" lon="6.71256">
        <ele>337.305817</ele>
        <time>2011-02-12T12:29:36Z</time>
      </trkpt>
      <trkpt lat="43.54699" lon="6.71254">
        <ele>337.459534</ele>
        <time>2011-02-12T12:29:38Z</time>
      </trkpt>
      <trkpt lat="43.54704" lon="6.71252">
        <ele>337.564972</ele>
        <time>2011-02-12T12:29:40Z</time>
      </trkpt>
      <trkpt lat="43.54717" lon="6.71235">
        <ele>338.539246</ele>
        <time>2011-02-12T12:29:53Z</time>
      </trkpt>
      <trkpt lat="43.54719" lon="6.7123">
        <ele>338.636993</ele>
        <time>2011-02-12T12:29:56Z</time>
      </trkpt>
      <trkpt lat="43.54721" lon="6.7123">
        <ele>338.03302</ele>
        <time>2011-02-12T12:29:57Z</time>
      </trkpt>
      <trkpt lat="43.54723" lon="6.71226">
        <ele>338.076141</ele>
        <time>2011-02-12T12:29:59Z</time>
      </trkpt>
      <trkpt lat="43.54729" lon="6.71217">
        <ele>337.385529</ele>
        <time>2011-02-12T12:30:06Z</time>
      </trkpt>
      <trkpt lat="43.54734" lon="6.71211">
        <ele>337.267212</ele>
        <time>2011-02-12T12:30:11Z</time>
      </trkpt>
      <trkpt lat="43.54747" lon="6.71172">
        <ele>341.689941</ele>
        <time>2011-02-12T12:30:33Z</time>
      </trkpt>
      <trkpt lat="43.54753" lon="6.71151">
        <ele>342.741272</ele>
        <time>2011-02-12T12:30:47Z</time>
      </trkpt>
      <trkpt lat="43.54759" lon="6.71129">
        <ele>343.259491</ele>
        <time>2011-02-12T12:30:59Z</time>
      </trkpt>
      <trkpt lat="43.54759" lon="6.71125">
        <ele>343.389038</ele>
        <time>2011-02-12T12:31:02Z</time>
      </trkpt>
      <trkpt lat="43.54764" lon="6.71119">
        <ele>342.936859</ele>
        <time>2011-02-12T12:31:06Z</time>
      </trkpt>
      <trkpt lat="43.54768" lon="6.71106">
        <ele>342.251282</ele>
        <time>2011-02-12T12:31:12Z</time>
      </trkpt>
      <trkpt lat="43.54785" lon="6.71033">
        <ele>341.28064</ele>
        <time>2011-02-12T12:31:47Z</time>
      </trkpt>
      <trkpt lat="43.54785" lon="6.71033">
        <ele>341.28064</ele>
        <time>2011-02-12T12:32:05Z</time>
      </trkpt>
      <trkpt lat="43.54785" lon="6.71033">
        <ele>341.28064</ele>
        <time>2011-02-12T12:32:15Z</time>
      </trkpt>
      <trkpt lat="43.54785" lon="6.71033">
        <ele>341.28064</ele>
        <time>2011-02-12T12:32:17Z</time>
      </trkpt>
      <trkpt lat="43.54824" lon="6.70756">
        <ele>341.128479</ele>
        <time>2011-02-12T12:32:24Z</time>
      </trkpt>
      <trkpt lat="43.54824" lon="6.70754">
        <ele>341.191101</ele>
        <time>2011-02-12T12:32:25Z</time>
      </trkpt>
      <trkpt lat="43.54824" lon="6.7075">
        <ele>341.315125</ele>
        <time>2011-02-12T12:32:28Z</time>
      </trkpt>
      <trkpt lat="43.54824" lon="6.70748">
        <ele>341.376526</ele>
        <time>2011-02-12T12:32:29Z</time>
      </trkpt>
      <trkpt lat="43.54824" lon="6.70741">
        <ele>341.55838</ele>
        <time>2011-02-12T12:32:32Z</time>
      </trkpt>
      <trkpt lat="43.54824" lon="6.70732">
        <ele>341.902435</ele>
        <time>2011-02-12T12:32:36Z</time>
      </trkpt>
      <trkpt lat="43.54826" lon="6.7072">
        <ele>341.908325</ele>
        <time>2011-02-12T12:32:42Z</time>
      </trkpt>
      <trkpt lat="43.54828" lon="6.70705">
        <ele>341.987122</ele>
        <time>2011-02-12T12:32:47Z</time>
      </trkpt>
      <trkpt lat="43.54828" lon="6.707">
        <ele>342.163788</ele>
        <time>2011-02-12T12:32:49Z</time>
      </trkpt>
      <trkpt lat="43.54828" lon="6.70692">
        <ele>342.518738</ele>
        <time>2011-02-12T12:32:52Z</time>
      </trkpt>
      <trkpt lat="43.54835" lon="6.70653">
        <ele>341.125702</ele>
        <time>2011-02-12T12:33:05Z</time>
      </trkpt>
      <trkpt lat="43.54837" lon="6.7063">
        <ele>340.327026</ele>
        <time>2011-02-12T12:33:12Z</time>
      </trkpt>
      <trkpt lat="43.54837" lon="6.70614">
        <ele>340.215637</ele>
        <time>2011-02-12T12:33:17Z</time>
      </trkpt>
      <trkpt lat="43.54837" lon="6.70606">
        <ele>340.177277</ele>
        <time>2011-02-12T12:33:20Z</time>
      </trkpt>
      <trkpt lat="43.54837" lon="6.70597">
        <ele>340.138885</ele>
        <time>2011-02-12T12:33:23Z</time>
      </trkpt>
      <trkpt lat="43.54835" lon="6.70563">
        <ele>340.607819</ele>
        <time>2011-02-12T12:33:35Z</time>
      </trkpt>
      <trkpt lat="43.54837" lon="6.70533">
        <ele>339.537659</ele>
        <time>2011-02-12T12:33:41Z</time>
      </trkpt>
      <trkpt lat="43.54837" lon="6.70529">
        <ele>339.45694</ele>
        <time>2011-02-12T12:33:42Z</time>
      </trkpt>
      <trkpt lat="43.54837" lon="6.7049">
        <ele>338.513</ele>
        <time>2011-02-12T12:33:49Z</time>
      </trkpt>
      <trkpt lat="43.54837" lon="6.70469">
        <ele>336.849121</ele>
        <time>2011-02-12T12:33:53Z</time>
      </trkpt>
      <trkpt lat="43.54837" lon="6.70456">
        <ele>335.805817</ele>
        <time>2011-02-12T12:33:55Z</time>
      </trkpt>
      <trkpt lat="43.54817" lon="6.70458">
        <ele>336.880005</ele>
        <time>2011-02-12T12:34:00Z</time>
      </trkpt>
      <trkpt lat="43.54813" lon="6.70462">
        <ele>337.34491</ele>
        <time>2011-02-12T12:34:01Z</time>
      </trkpt>
      <trkpt lat="43.54781" lon="6.70484">
        <ele>338.834503</ele>
        <time>2011-02-12T12:34:10Z</time>
      </trkpt>
      <trkpt lat="43.54729" lon="6.70505">
        <ele>335.141022</ele>
        <time>2011-02-12T12:34:22Z</time>
      </trkpt>
      <trkpt lat="43.54714" lon="6.70514">
        <ele>334.634796</ele>
        <time>2011-02-12T12:34:26Z</time>
      </trkpt>
      <trkpt lat="43.54629" lon="6.70557">
        <ele>329.162354</ele>
        <time>2011-02-12T12:34:47Z</time>
      </trkpt>
      <trkpt lat="43.54629" lon="6.70557">
        <ele>329.162354</ele>
        <time>2011-02-12T12:34:47Z</time>
      </trkpt>
      <trkpt lat="43.54629" lon="6.70557">
        <ele>329.162354</ele>
        <time>2011-02-12T12:34:56Z</time>
      </trkpt>
      <trkpt lat="43.54541" lon="6.70542">
        <ele>323.018402</ele>
        <time>2011-02-12T12:35:00Z</time>
      </trkpt>
      <trkpt lat="43.54536" lon="6.70546">
        <ele>322.598541</ele>
        <time>2011-02-12T12:35:01Z</time>
      </trkpt>
      <trkpt lat="43.54487" lon="6.70552">
        <ele>319.860992</ele>
        <time>2011-02-12T12:35:08Z</time>
      </trkpt>
      <trkpt lat="43.54457" lon="6.70576">
        <ele>316.475433</ele>
        <time>2011-02-12T12:35:12Z</time>
      </trkpt>
      <trkpt lat="43.54427" lon="6.70576">
        <ele>314.954803</ele>
        <time>2011-02-12T12:35:17Z</time>
      </trkpt>
      <trkpt lat="43.54395" lon="6.70565">
        <ele>313.251892</ele>
        <time>2011-02-12T12:35:23Z</time>
      </trkpt>
      <trkpt lat="43.5438" lon="6.70563">
        <ele>312.220856</ele>
        <time>2011-02-12T12:35:26Z</time>
      </trkpt>
      <trkpt lat="43.54341" lon="6.70561">
        <ele>310.396423</ele>
        <time>2011-02-12T12:35:32Z</time>
      </trkpt>
      <trkpt lat="43.54285" lon="6.70557">
        <ele>307.884003</ele>
        <time>2011-02-12T12:35:40Z</time>
      </trkpt>
      <trkpt lat="43.54275" lon="6.70535">
        <ele>309.508789</ele>
        <time>2011-02-12T12:35:44Z</time>
      </trkpt>
      <trkpt lat="43.54275" lon="6.70511">
        <ele>311.884399</ele>
        <time>2011-02-12T12:35:49Z</time>
      </trkpt>
      <trkpt lat="43.54277" lon="6.70505">
        <ele>312.047363</ele>
        <time>2011-02-12T12:35:51Z</time>
      </trkpt>
      <trkpt lat="43.54287" lon="6.70411">
        <ele>311.554047</ele>
        <time>2011-02-12T12:36:18Z</time>
      </trkpt>
      <trkpt lat="43.54292" lon="6.70361">
        <ele>311.112671</ele>
        <time>2011-02-12T12:36:29Z</time>
      </trkpt>
      <trkpt lat="43.54294" lon="6.70342">
        <ele>311.32489</ele>
        <time>2011-02-12T12:36:33Z</time>
      </trkpt>
      <trkpt lat="43.54302" lon="6.70297">
        <ele>312.159393</ele>
        <time>2011-02-12T12:36:44Z</time>
      </trkpt>
      <trkpt lat="43.54324" lon="6.70224">
        <ele>312.593597</ele>
        <time>2011-02-12T12:37:02Z</time>
      </trkpt>
      <trkpt lat="43.5433" lon="6.70209">
        <ele>312.609894</ele>
        <time>2011-02-12T12:37:07Z</time>
      </trkpt>
      <trkpt lat="43.54337" lon="6.70196">
        <ele>312.483704</ele>
        <time>2011-02-12T12:37:11Z</time>
      </trkpt>
      <trkpt lat="43.54345" lon="6.70181">
        <ele>312.416718</ele>
        <time>2011-02-12T12:37:16Z</time>
      </trkpt>
      <trkpt lat="43.54352" lon="6.70162">
        <ele>312.17868</ele>
        <time>2011-02-12T12:37:21Z</time>
      </trkpt>
      <trkpt lat="43.54386" lon="6.70059">
        <ele>310.601654</ele>
        <time>2011-02-12T12:37:46Z</time>
      </trkpt>
      <trkpt lat="43.54326" lon="6.70074">
        <ele>310.851074</ele>
        <time>2011-02-12T12:37:52Z</time>
      </trkpt>
      <trkpt lat="43.5432" lon="6.70072">
        <ele>310.603973</ele>
        <time>2011-02-12T12:37:53Z</time>
      </trkpt>
      <trkpt lat="43.543" lon="6.70061">
        <ele>308.956177</ele>
        <time>2011-02-12T12:37:58Z</time>
      </trkpt>
      <trkpt lat="43.54296" lon="6.70059">
        <ele>308.345612</ele>
        <time>2011-02-12T12:37:59Z</time>
      </trkpt>
      <trkpt lat="43.54277" lon="6.7005">
        <ele>305.644897</ele>
        <time>2011-02-12T12:38:04Z</time>
      </trkpt>
      <trkpt lat="43.54253" lon="6.70044">
        <ele>302.354828</ele>
        <time>2011-02-12T12:38:09Z</time>
      </trkpt>
      <trkpt lat="43.54249" lon="6.70044">
        <ele>301.727203</ele>
        <time>2011-02-12T12:38:10Z</time>
      </trkpt>
      <trkpt lat="43.54232" lon="6.70042">
        <ele>299.289368</ele>
        <time>2011-02-12T12:38:14Z</time>
      </trkpt>
      <trkpt lat="43.54227" lon="6.70039">
        <ele>298.746277</ele>
        <time>2011-02-12T12:38:15Z</time>
      </trkpt>
      <trkpt lat="43.54225" lon="6.70039">
        <ele>298.432831</ele>
        <time>2011-02-12T12:38:16Z</time>
      </trkpt>
      <trkpt lat="43.54212" lon="6.70035">
        <ele>296.375305</ele>
        <time>2011-02-12T12:38:19Z</time>
      </trkpt>
      <trkpt lat="43.54208" lon="6.70033">
        <ele>295.658234</ele>
        <time>2011-02-12T12:38:20Z</time>
      </trkpt>
      <trkpt lat="43.54199" lon="6.70031">
        <ele>294.136658</ele>
        <time>2011-02-12T12:38:22Z</time>
      </trkpt>
      <trkpt lat="43.54195" lon="6.70031">
        <ele>293.325439</ele>
        <time>2011-02-12T12:38:23Z</time>
      </trkpt>
      <trkpt lat="43.54187" lon="6.70029">
        <ele>291.814453</ele>
        <time>2011-02-12T12:38:25Z</time>
      </trkpt>
      <trkpt lat="43.54165" lon="6.70022">
        <ele>285.669373</ele>
        <time>2011-02-12T12:38:30Z</time>
      </trkpt>
      <trkpt lat="43.54169" lon="6.6999">
        <ele>289.46167</ele>
        <time>2011-02-12T12:38:39Z</time>
      </trkpt>
      <trkpt lat="43.54176" lon="6.69984">
        <ele>292.06723</ele>
        <time>2011-02-12T12:38:44Z</time>
      </trkpt>
    </trkseg>
  </trk>
</gpx>